<?xml version='1.0' encoding='UTF-8'?>
<gpx version="1.1" creator="https://www.komoot.de" xmlns="http://www.topografix.com/GPX/1/1" xmlns:xsi="http://www.w3.org/2001/XMLSchema-instance" xsi:schemaLocation="http://www.topografix.com/GPX/1/1 http://www.topografix.com/GPX/1/1/gpx.xsd">
  <metadata>
    <name>RPDT 2 Patates</name>
    <author>
      <link href="https://www.komoot.de">
        <text>komoot</text>
        <type>text/html</type>
      </link>
    </author>
  </metadata>
  <trk>
    <name>RPDT 2 Patates</name>
    <trkseg>
      <trkpt lat="48.891464" lon="2.261989">
        <ele>27.514158</ele>
        <time>2025-09-07T20:44:55.158Z</time>
      </trkpt>
      <trkpt lat="48.891465" lon="2.261991">
        <ele>27.514158</ele>
        <time>2025-09-07T20:44:55.272Z</time>
      </trkpt>
      <trkpt lat="48.891621" lon="2.262385">
        <ele>27.514158</ele>
        <time>2025-09-07T20:45:16.285Z</time>
      </trkpt>
      <trkpt lat="48.892027" lon="2.262843">
        <ele>27.514158</ele>
        <time>2025-09-07T20:45:51.417Z</time>
      </trkpt>
      <trkpt lat="48.892080" lon="2.262824">
        <ele>27.514158</ele>
        <time>2025-09-07T20:45:55.253Z</time>
      </trkpt>
      <trkpt lat="48.892130" lon="2.262890">
        <ele>27.506209</ele>
        <time>2025-09-07T20:45:57.217Z</time>
      </trkpt>
      <trkpt lat="48.892131" lon="2.262743">
        <ele>27.481319</ele>
        <time>2025-09-07T20:46:03.939Z</time>
      </trkpt>
      <trkpt lat="48.892245" lon="2.262505">
        <ele>27.431462</ele>
        <time>2025-09-07T20:46:17.421Z</time>
      </trkpt>
      <trkpt lat="48.892131" lon="2.262743">
        <ele>27.381605</ele>
        <time>2025-09-07T20:46:21.870Z</time>
      </trkpt>
      <trkpt lat="48.892130" lon="2.262890">
        <ele>27.356715</ele>
        <time>2025-09-07T20:46:24.027Z</time>
      </trkpt>
      <trkpt lat="48.892080" lon="2.262824">
        <ele>27.339666</ele>
        <time>2025-09-07T20:46:25.901Z</time>
      </trkpt>
      <trkpt lat="48.892027" lon="2.262843">
        <ele>27.325643</ele>
        <time>2025-09-07T20:46:29.736Z</time>
      </trkpt>
      <trkpt lat="48.891621" lon="2.262385">
        <ele>27.195470</ele>
        <time>2025-09-07T20:47:04.869Z</time>
      </trkpt>
      <trkpt lat="48.891190" lon="2.261292">
        <ele>27.365734</ele>
        <time>2025-09-07T20:48:03.134Z</time>
      </trkpt>
      <trkpt lat="48.890968" lon="2.260833">
        <ele>27.791693</ele>
        <time>2025-09-07T20:48:29.155Z</time>
      </trkpt>
      <trkpt lat="48.890767" lon="2.260409">
        <ele>28.182447</ele>
        <time>2025-09-07T20:48:53.052Z</time>
      </trkpt>
      <trkpt lat="48.890711" lon="2.260344">
        <ele>28.262540</ele>
        <time>2025-09-07T20:49:01.731Z</time>
      </trkpt>
      <trkpt lat="48.890368" lon="2.260761">
        <ele>28.761796</ele>
        <time>2025-09-07T20:49:15.390Z</time>
      </trkpt>
      <trkpt lat="48.890240" lon="2.260538">
        <ele>28.983087</ele>
        <time>2025-09-07T20:49:21.580Z</time>
      </trkpt>
      <trkpt lat="48.890204" lon="2.260524">
        <ele>29.025334</ele>
        <time>2025-09-07T20:49:22.870Z</time>
      </trkpt>
      <trkpt lat="48.890272" lon="2.260655">
        <ele>29.137098</ele>
        <time>2025-09-07T20:49:26.376Z</time>
      </trkpt>
      <trkpt lat="48.890240" lon="2.260694">
        <ele>29.172523</ele>
        <time>2025-09-07T20:49:27.852Z</time>
      </trkpt>
      <trkpt lat="48.890147" lon="2.260530">
        <ele>29.295536</ele>
        <time>2025-09-07T20:49:32.755Z</time>
      </trkpt>
      <trkpt lat="48.889996" lon="2.260344">
        <ele>29.463399</ele>
        <time>2025-09-07T20:49:39.749Z</time>
      </trkpt>
      <trkpt lat="48.889470" lon="2.259624">
        <ele>30.074738</ele>
        <time>2025-09-07T20:49:58.918Z</time>
      </trkpt>
      <trkpt lat="48.889434" lon="2.259580">
        <ele>30.114636</ele>
        <time>2025-09-07T20:50:00.017Z</time>
      </trkpt>
      <trkpt lat="48.889165" lon="2.259200">
        <ele>30.431798</ele>
        <time>2025-09-07T20:50:07.966Z</time>
      </trkpt>
      <trkpt lat="48.888908" lon="2.258797">
        <ele>30.641829</ele>
        <time>2025-09-07T20:50:15.942Z</time>
      </trkpt>
      <trkpt lat="48.888434" lon="2.258152">
        <ele>30.598604</ele>
        <time>2025-09-07T20:50:29.293Z</time>
      </trkpt>
      <trkpt lat="48.888094" lon="2.257704">
        <ele>30.568032</ele>
        <time>2025-09-07T20:50:38.602Z</time>
      </trkpt>
      <trkpt lat="48.887822" lon="2.257396">
        <ele>30.544986</ele>
        <time>2025-09-07T20:50:46.136Z</time>
      </trkpt>
      <trkpt lat="48.887496" lon="2.257030">
        <ele>30.562914</ele>
        <time>2025-09-07T20:50:57.055Z</time>
      </trkpt>
      <trkpt lat="48.887484" lon="2.256979">
        <ele>30.571406</ele>
        <time>2025-09-07T20:50:58.040Z</time>
      </trkpt>
      <trkpt lat="48.887297" lon="2.256772">
        <ele>30.626550</ele>
        <time>2025-09-07T20:51:04.975Z</time>
      </trkpt>
      <trkpt lat="48.886401" lon="2.256093">
        <ele>30.865228</ele>
        <time>2025-09-07T20:51:31.982Z</time>
      </trkpt>
      <trkpt lat="48.885997" lon="2.255811">
        <ele>30.878105</ele>
        <time>2025-09-07T20:51:40.640Z</time>
      </trkpt>
      <trkpt lat="48.885284" lon="2.255286">
        <ele>29.882319</ele>
        <time>2025-09-07T20:51:54.571Z</time>
      </trkpt>
      <trkpt lat="48.884967" lon="2.255111">
        <ele>29.458399</ele>
        <time>2025-09-07T20:52:00.716Z</time>
      </trkpt>
      <trkpt lat="48.884937" lon="2.255101">
        <ele>29.419793</ele>
        <time>2025-09-07T20:52:01.287Z</time>
      </trkpt>
      <trkpt lat="48.884723" lon="2.254984">
        <ele>29.133934</ele>
        <time>2025-09-07T20:52:05.623Z</time>
      </trkpt>
      <trkpt lat="48.884308" lon="2.254753">
        <ele>28.828431</ele>
        <time>2025-09-07T20:52:16.357Z</time>
      </trkpt>
      <trkpt lat="48.884244" lon="2.254743">
        <ele>28.920357</ele>
        <time>2025-09-07T20:52:18.272Z</time>
      </trkpt>
      <trkpt lat="48.883701" lon="2.254282">
        <ele>29.808920</ele>
        <time>2025-09-07T20:52:38.134Z</time>
      </trkpt>
      <trkpt lat="48.883398" lon="2.254010">
        <ele>30.311653</ele>
        <time>2025-09-07T20:52:51.053Z</time>
      </trkpt>
      <trkpt lat="48.882922" lon="2.253597">
        <ele>31.094683</ele>
        <time>2025-09-07T20:53:07.870Z</time>
      </trkpt>
      <trkpt lat="48.882390" lon="2.253145">
        <ele>31.213211</ele>
        <time>2025-09-07T20:53:22.199Z</time>
      </trkpt>
      <trkpt lat="48.881513" lon="2.252385">
        <ele>31.105788</ele>
        <time>2025-09-07T20:53:43.641Z</time>
      </trkpt>
      <trkpt lat="48.880676" lon="2.251519">
        <ele>30.976397</ele>
        <time>2025-09-07T20:54:04.415Z</time>
      </trkpt>
      <trkpt lat="48.880077" lon="2.250780">
        <ele>30.870886</ele>
        <time>2025-09-07T20:54:22.864Z</time>
      </trkpt>
      <trkpt lat="48.880043" lon="2.250737">
        <ele>30.864837</ele>
        <time>2025-09-07T20:54:23.950Z</time>
      </trkpt>
      <trkpt lat="48.879423" lon="2.249955">
        <ele>30.508293</ele>
        <time>2025-09-07T20:54:41.808Z</time>
      </trkpt>
      <trkpt lat="48.878549" lon="2.248810">
        <ele>29.819815</ele>
        <time>2025-09-07T20:55:04.853Z</time>
      </trkpt>
      <trkpt lat="48.877929" lon="2.248079">
        <ele>29.445141</ele>
        <time>2025-09-07T20:55:20.851Z</time>
      </trkpt>
      <trkpt lat="48.877721" lon="2.247823">
        <ele>29.322515</ele>
        <time>2025-09-07T20:55:26.554Z</time>
      </trkpt>
      <trkpt lat="48.877716" lon="2.247737">
        <ele>29.296497</ele>
        <time>2025-09-07T20:55:27.726Z</time>
      </trkpt>
      <trkpt lat="48.877512" lon="2.247477">
        <ele>29.174519</ele>
        <time>2025-09-07T20:55:33.523Z</time>
      </trkpt>
      <trkpt lat="48.876977" lon="2.246945">
        <ele>28.900170</ele>
        <time>2025-09-07T20:55:47.739Z</time>
      </trkpt>
      <trkpt lat="48.876466" lon="2.246473">
        <ele>28.730712</ele>
        <time>2025-09-07T20:56:00.281Z</time>
      </trkpt>
      <trkpt lat="48.876357" lon="2.246297">
        <ele>28.685649</ele>
        <time>2025-09-07T20:56:03.626Z</time>
      </trkpt>
      <trkpt lat="48.876332" lon="2.246183">
        <ele>28.663249</ele>
        <time>2025-09-07T20:56:05.269Z</time>
      </trkpt>
      <trkpt lat="48.876339" lon="2.246168">
        <ele>28.659820</ele>
        <time>2025-09-07T20:56:05.536Z</time>
      </trkpt>
      <trkpt lat="48.876299" lon="2.246130">
        <ele>28.646453</ele>
        <time>2025-09-07T20:56:08.846Z</time>
      </trkpt>
      <trkpt lat="48.876282" lon="2.246114">
        <ele>28.640786</ele>
        <time>2025-09-07T20:56:10.244Z</time>
      </trkpt>
      <trkpt lat="48.876246" lon="2.246080">
        <ele>28.628775</ele>
        <time>2025-09-07T20:56:13.137Z</time>
      </trkpt>
      <trkpt lat="48.876236" lon="2.246106">
        <ele>28.623160</ele>
        <time>2025-09-07T20:56:13.551Z</time>
      </trkpt>
      <trkpt lat="48.876150" lon="2.246149">
        <ele>28.597502</ele>
        <time>2025-09-07T20:56:15.473Z</time>
      </trkpt>
      <trkpt lat="48.876171" lon="2.246089">
        <ele>28.584833</ele>
        <time>2025-09-07T20:56:16.396Z</time>
      </trkpt>
      <trkpt lat="48.876174" lon="2.246082">
        <ele>28.583275</ele>
        <time>2025-09-07T20:56:16.509Z</time>
      </trkpt>
      <trkpt lat="48.876060" lon="2.246067">
        <ele>28.550844</ele>
        <time>2025-09-07T20:56:24.482Z</time>
      </trkpt>
      <trkpt lat="48.875356" lon="2.245536">
        <ele>28.467151</ele>
        <time>2025-09-07T20:57:19.095Z</time>
      </trkpt>
      <trkpt lat="48.875326" lon="2.245502">
        <ele>28.472503</ele>
        <time>2025-09-07T20:57:20.038Z</time>
      </trkpt>
      <trkpt lat="48.875307" lon="2.245454">
        <ele>28.477773</ele>
        <time>2025-09-07T20:57:24.575Z</time>
      </trkpt>
      <trkpt lat="48.875272" lon="2.245361">
        <ele>28.487851</ele>
        <time>2025-09-07T20:57:26.337Z</time>
      </trkpt>
      <trkpt lat="48.874665" lon="2.244825">
        <ele>28.588243</ele>
        <time>2025-09-07T20:57:44.327Z</time>
      </trkpt>
      <trkpt lat="48.873526" lon="2.243591">
        <ele>28.774524</ele>
        <time>2025-09-07T20:58:20.854Z</time>
      </trkpt>
      <trkpt lat="48.872942" lon="2.243062">
        <ele>28.859655</ele>
        <time>2025-09-07T20:58:37.879Z</time>
      </trkpt>
      <trkpt lat="48.872748" lon="2.242931">
        <ele>28.886239</ele>
        <time>2025-09-07T20:58:43.114Z</time>
      </trkpt>
      <trkpt lat="48.872641" lon="2.242890">
        <ele>28.900057</ele>
        <time>2025-09-07T20:58:45.838Z</time>
      </trkpt>
      <trkpt lat="48.872533" lon="2.242725">
        <ele>28.920099</ele>
        <time>2025-09-07T20:58:49.598Z</time>
      </trkpt>
      <trkpt lat="48.872499" lon="2.242619">
        <ele>28.930332</ele>
        <time>2025-09-07T20:58:51.510Z</time>
      </trkpt>
      <trkpt lat="48.872473" lon="2.242118">
        <ele>28.973940</ele>
        <time>2025-09-07T20:58:59.750Z</time>
      </trkpt>
      <trkpt lat="48.872437" lon="2.241949">
        <ele>28.989355</ele>
        <time>2025-09-07T20:59:02.708Z</time>
      </trkpt>
      <trkpt lat="48.872069" lon="2.241320">
        <ele>29.062403</ele>
        <time>2025-09-07T20:59:16.920Z</time>
      </trkpt>
      <trkpt lat="48.871683" lon="2.240576">
        <ele>29.133843</ele>
        <time>2025-09-07T20:59:33.271Z</time>
      </trkpt>
      <trkpt lat="48.871470" lon="2.240093">
        <ele>29.058684</ele>
        <time>2025-09-07T20:59:42.888Z</time>
      </trkpt>
      <trkpt lat="48.871204" lon="2.239352">
        <ele>28.949576</ele>
        <time>2025-09-07T20:59:56.188Z</time>
      </trkpt>
      <trkpt lat="48.870817" lon="2.238063">
        <ele>28.756108</ele>
        <time>2025-09-07T21:00:18.224Z</time>
      </trkpt>
      <trkpt lat="48.870626" lon="2.237350">
        <ele>28.606275</ele>
        <time>2025-09-07T21:00:30.290Z</time>
      </trkpt>
      <trkpt lat="48.870373" lon="2.236231">
        <ele>28.375984</ele>
        <time>2025-09-07T21:00:49.262Z</time>
      </trkpt>
      <trkpt lat="48.870327" lon="2.236180">
        <ele>28.359139</ele>
        <time>2025-09-07T21:00:50.632Z</time>
      </trkpt>
      <trkpt lat="48.870270" lon="2.236177">
        <ele>28.342263</ele>
        <time>2025-09-07T21:00:52.021Z</time>
      </trkpt>
      <trkpt lat="48.869951" lon="2.236347">
        <ele>28.241289</ele>
        <time>2025-09-07T21:00:59.894Z</time>
      </trkpt>
      <trkpt lat="48.869729" lon="2.235297">
        <ele>28.010140</ele>
        <time>2025-09-07T21:01:16.628Z</time>
      </trkpt>
      <trkpt lat="48.869920" lon="2.235152">
        <ele>27.942117</ele>
        <time>2025-09-07T21:01:21.567Z</time>
      </trkpt>
      <trkpt lat="48.869937" lon="2.235085">
        <ele>27.927067</ele>
        <time>2025-09-07T21:01:27.395Z</time>
      </trkpt>
      <trkpt lat="48.869425" lon="2.234020">
        <ele>27.770758</ele>
        <time>2025-09-07T21:01:46.215Z</time>
      </trkpt>
      <trkpt lat="48.869103" lon="2.233466">
        <ele>28.216854</ele>
        <time>2025-09-07T21:01:58.396Z</time>
      </trkpt>
      <trkpt lat="48.868710" lon="2.232867">
        <ele>28.727358</ele>
        <time>2025-09-07T21:02:13.203Z</time>
      </trkpt>
      <trkpt lat="48.867838" lon="2.231795">
        <ele>29.927998</ele>
        <time>2025-09-07T21:02:46.753Z</time>
      </trkpt>
      <trkpt lat="48.867678" lon="2.231680">
        <ele>30.156085</ele>
        <time>2025-09-07T21:02:52.427Z</time>
      </trkpt>
      <trkpt lat="48.867624" lon="2.231656">
        <ele>30.228591</ele>
        <time>2025-09-07T21:02:54.259Z</time>
      </trkpt>
      <trkpt lat="48.867510" lon="2.231669">
        <ele>30.375923</ele>
        <time>2025-09-07T21:02:57.904Z</time>
      </trkpt>
      <trkpt lat="48.867388" lon="2.231613">
        <ele>30.540162</ele>
        <time>2025-09-07T21:03:01.988Z</time>
      </trkpt>
      <trkpt lat="48.867316" lon="2.231641">
        <ele>30.635941</ele>
        <time>2025-09-07T21:03:04.309Z</time>
      </trkpt>
      <trkpt lat="48.867282" lon="2.231705">
        <ele>30.705682</ele>
        <time>2025-09-07T21:03:05.980Z</time>
      </trkpt>
      <trkpt lat="48.867088" lon="2.232095">
        <ele>31.120196</ele>
        <time>2025-09-07T21:03:15.327Z</time>
      </trkpt>
      <trkpt lat="48.867052" lon="2.232019">
        <ele>31.199592</ele>
        <time>2025-09-07T21:03:17.932Z</time>
      </trkpt>
      <trkpt lat="48.866933" lon="2.231822">
        <ele>31.426334</ele>
        <time>2025-09-07T21:03:39.660Z</time>
      </trkpt>
      <trkpt lat="48.866888" lon="2.231755">
        <ele>31.507510</ele>
        <time>2025-09-07T21:03:41.445Z</time>
      </trkpt>
      <trkpt lat="48.866791" lon="2.231617">
        <ele>31.631503</ele>
        <time>2025-09-07T21:03:45.023Z</time>
      </trkpt>
      <trkpt lat="48.866673" lon="2.231449">
        <ele>31.502347</ele>
        <time>2025-09-07T21:03:49.103Z</time>
      </trkpt>
      <trkpt lat="48.866574" lon="2.231396">
        <ele>31.418496</ele>
        <time>2025-09-07T21:03:51.646Z</time>
      </trkpt>
      <trkpt lat="48.866467" lon="2.231441">
        <ele>31.329805</ele>
        <time>2025-09-07T21:03:54.246Z</time>
      </trkpt>
      <trkpt lat="48.866358" lon="2.231799">
        <ele>31.122494</ele>
        <time>2025-09-07T21:03:59.645Z</time>
      </trkpt>
      <trkpt lat="48.866202" lon="2.232298">
        <ele>30.832151</ele>
        <time>2025-09-07T21:04:06.873Z</time>
      </trkpt>
      <trkpt lat="48.865990" lon="2.232857">
        <ele>30.493058</ele>
        <time>2025-09-07T21:04:14.802Z</time>
      </trkpt>
      <trkpt lat="48.865434" lon="2.234052">
        <ele>29.685303</ele>
        <time>2025-09-07T21:04:33.438Z</time>
      </trkpt>
      <trkpt lat="48.865238" lon="2.234466">
        <ele>29.396110</ele>
        <time>2025-09-07T21:04:40.060Z</time>
      </trkpt>
      <trkpt lat="48.865238" lon="2.234466">
        <ele>29.396110</ele>
        <time>2025-09-07T21:04:40.068Z</time>
      </trkpt>
      <trkpt lat="48.865150" lon="2.234362">
        <ele>29.300040</ele>
        <time>2025-09-07T21:04:42.943Z</time>
      </trkpt>
      <trkpt lat="48.865067" lon="2.234261">
        <ele>29.208407</ele>
        <time>2025-09-07T21:04:50.346Z</time>
      </trkpt>
      <trkpt lat="48.865023" lon="2.234207">
        <ele>29.159668</ele>
        <time>2025-09-07T21:04:54.267Z</time>
      </trkpt>
      <trkpt lat="48.864944" lon="2.234240">
        <ele>29.089056</ele>
        <time>2025-09-07T21:05:00.016Z</time>
      </trkpt>
      <trkpt lat="48.864906" lon="2.234110">
        <ele>29.008400</ele>
        <time>2025-09-07T21:05:06.520Z</time>
      </trkpt>
      <trkpt lat="48.864914" lon="2.233824">
        <ele>28.846099</ele>
        <time>2025-09-07T21:05:19.596Z</time>
      </trkpt>
      <trkpt lat="48.864913" lon="2.233733">
        <ele>28.794497</ele>
        <time>2025-09-07T21:05:21.795Z</time>
      </trkpt>
      <trkpt lat="48.864914" lon="2.233594">
        <ele>28.715683</ele>
        <time>2025-09-07T21:05:24.004Z</time>
      </trkpt>
      <trkpt lat="48.864916" lon="2.233239">
        <ele>28.685421</ele>
        <time>2025-09-07T21:05:29.858Z</time>
      </trkpt>
      <trkpt lat="48.864967" lon="2.233029">
        <ele>28.705112</ele>
        <time>2025-09-07T21:05:33.520Z</time>
      </trkpt>
      <trkpt lat="48.865204" lon="2.232715">
        <ele>28.747149</ele>
        <time>2025-09-07T21:05:41.313Z</time>
      </trkpt>
      <trkpt lat="48.865267" lon="2.232568">
        <ele>28.762581</ele>
        <time>2025-09-07T21:05:45.645Z</time>
      </trkpt>
      <trkpt lat="48.865311" lon="2.232329">
        <ele>28.784411</ele>
        <time>2025-09-07T21:05:51.927Z</time>
      </trkpt>
      <trkpt lat="48.865293" lon="2.232187">
        <ele>28.797132</ele>
        <time>2025-09-07T21:05:55.640Z</time>
      </trkpt>
      <trkpt lat="48.865200" lon="2.232039">
        <ele>28.815135</ele>
        <time>2025-09-07T21:06:00.873Z</time>
      </trkpt>
      <trkpt lat="48.864979" lon="2.231897">
        <ele>28.847216</ele>
        <time>2025-09-07T21:06:10.151Z</time>
      </trkpt>
      <trkpt lat="48.864481" lon="2.231487">
        <ele>28.934749</ele>
        <time>2025-09-07T21:06:32.012Z</time>
      </trkpt>
      <trkpt lat="48.864349" lon="2.231303">
        <ele>28.972837</ele>
        <time>2025-09-07T21:06:38.803Z</time>
      </trkpt>
      <trkpt lat="48.864277" lon="2.231202">
        <ele>28.993673</ele>
        <time>2025-09-07T21:06:42.488Z</time>
      </trkpt>
      <trkpt lat="48.863788" lon="2.230870">
        <ele>29.107571</ele>
        <time>2025-09-07T21:07:02.717Z</time>
      </trkpt>
      <trkpt lat="48.863570" lon="2.230688">
        <ele>29.160465</ele>
        <time>2025-09-07T21:07:12.138Z</time>
      </trkpt>
      <trkpt lat="48.863396" lon="2.230406">
        <ele>29.214557</ele>
        <time>2025-09-07T21:07:21.829Z</time>
      </trkpt>
      <trkpt lat="48.863246" lon="2.230285">
        <ele>29.250671</ele>
        <time>2025-09-07T21:07:28.357Z</time>
      </trkpt>
      <trkpt lat="48.863158" lon="2.230223">
        <ele>29.271299</ele>
        <time>2025-09-07T21:07:32.122Z</time>
      </trkpt>
      <trkpt lat="48.862915" lon="2.230225">
        <ele>29.240811</ele>
        <time>2025-09-07T21:07:41.508Z</time>
      </trkpt>
      <trkpt lat="48.862496" lon="2.229867">
        <ele>29.119085</ele>
        <time>2025-09-07T21:08:00.085Z</time>
      </trkpt>
      <trkpt lat="48.862272" lon="2.229675">
        <ele>29.053960</ele>
        <time>2025-09-07T21:08:09.609Z</time>
      </trkpt>
      <trkpt lat="48.862251" lon="2.229601">
        <ele>29.040533</ele>
        <time>2025-09-07T21:08:11.535Z</time>
      </trkpt>
      <trkpt lat="48.862246" lon="2.229584">
        <ele>29.037431</ele>
        <time>2025-09-07T21:08:12.354Z</time>
      </trkpt>
      <trkpt lat="48.862347" lon="2.229531">
        <ele>29.010371</ele>
        <time>2025-09-07T21:08:19.754Z</time>
      </trkpt>
      <trkpt lat="48.862360" lon="2.229456">
        <ele>28.997449</ele>
        <time>2025-09-07T21:08:23.295Z</time>
      </trkpt>
      <trkpt lat="48.862386" lon="2.229314">
        <ele>28.972892</ele>
        <time>2025-09-07T21:08:30.049Z</time>
      </trkpt>
      <trkpt lat="48.862243" lon="2.229219">
        <ele>28.933369</ele>
        <time>2025-09-07T21:08:33.257Z</time>
      </trkpt>
      <trkpt lat="48.862125" lon="2.229148">
        <ele>28.901230</ele>
        <time>2025-09-07T21:08:35.832Z</time>
      </trkpt>
      <trkpt lat="48.861902" lon="2.229019">
        <ele>28.840804</ele>
        <time>2025-09-07T21:08:40.623Z</time>
      </trkpt>
      <trkpt lat="48.861950" lon="2.228826">
        <ele>28.780851</ele>
        <time>2025-09-07T21:08:44.282Z</time>
      </trkpt>
      <trkpt lat="48.861972" lon="2.228733">
        <ele>28.746495</ele>
        <time>2025-09-07T21:08:46.033Z</time>
      </trkpt>
      <trkpt lat="48.861993" lon="2.228651">
        <ele>28.715905</ele>
        <time>2025-09-07T21:08:47.584Z</time>
      </trkpt>
      <trkpt lat="48.862034" lon="2.228485">
        <ele>28.654265</ele>
        <time>2025-09-07T21:08:50.719Z</time>
      </trkpt>
      <trkpt lat="48.861938" lon="2.228436">
        <ele>28.600753</ele>
        <time>2025-09-07T21:08:53.433Z</time>
      </trkpt>
      <trkpt lat="48.861796" lon="2.228363">
        <ele>28.521542</ele>
        <time>2025-09-07T21:08:57.479Z</time>
      </trkpt>
      <trkpt lat="48.861610" lon="2.228296">
        <ele>28.420533</ele>
        <time>2025-09-07T21:09:02.716Z</time>
      </trkpt>
      <trkpt lat="48.861596" lon="2.228213">
        <ele>28.390746</ele>
        <time>2025-09-07T21:09:04.697Z</time>
      </trkpt>
      <trkpt lat="48.861497" lon="2.228184">
        <ele>28.337470</ele>
        <time>2025-09-07T21:09:08.286Z</time>
      </trkpt>
      <trkpt lat="48.861419" lon="2.228030">
        <ele>28.269905</ele>
        <time>2025-09-07T21:09:12.875Z</time>
      </trkpt>
      <trkpt lat="48.861249" lon="2.227997">
        <ele>28.179344</ele>
        <time>2025-09-07T21:09:16.986Z</time>
      </trkpt>
      <trkpt lat="48.860889" lon="2.227884">
        <ele>27.985099</ele>
        <time>2025-09-07T21:09:25.884Z</time>
      </trkpt>
      <trkpt lat="48.860605" lon="2.227736">
        <ele>27.837479</ele>
        <time>2025-09-07T21:09:33.203Z</time>
      </trkpt>
      <trkpt lat="48.860511" lon="2.227583">
        <ele>27.779823</ele>
        <time>2025-09-07T21:09:36.533Z</time>
      </trkpt>
      <trkpt lat="48.860371" lon="2.227512">
        <ele>27.718039</ele>
        <time>2025-09-07T21:09:40.068Z</time>
      </trkpt>
      <trkpt lat="48.859727" lon="2.227227">
        <ele>27.437244</ele>
        <time>2025-09-07T21:09:55.911Z</time>
      </trkpt>
      <trkpt lat="48.859343" lon="2.227021">
        <ele>27.266770</ele>
        <time>2025-09-07T21:10:05.277Z</time>
      </trkpt>
      <trkpt lat="48.859155" lon="2.226910">
        <ele>27.182338</ele>
        <time>2025-09-07T21:10:09.831Z</time>
      </trkpt>
      <trkpt lat="48.858611" lon="2.226690">
        <ele>27.137394</ele>
        <time>2025-09-07T21:10:22.951Z</time>
      </trkpt>
      <trkpt lat="48.857873" lon="2.226288">
        <ele>27.157172</ele>
        <time>2025-09-07T21:10:43.019Z</time>
      </trkpt>
      <trkpt lat="48.856586" lon="2.225727">
        <ele>27.126219</ele>
        <time>2025-09-07T21:11:18.144Z</time>
      </trkpt>
      <trkpt lat="48.856345" lon="2.225590">
        <ele>27.110618</ele>
        <time>2025-09-07T21:11:24.373Z</time>
      </trkpt>
      <trkpt lat="48.855498" lon="2.225404">
        <ele>27.068024</ele>
        <time>2025-09-07T21:11:44.748Z</time>
      </trkpt>
      <trkpt lat="48.854864" lon="2.225319">
        <ele>27.116029</ele>
        <time>2025-09-07T21:12:00.023Z</time>
      </trkpt>
      <trkpt lat="48.854412" lon="2.225318">
        <ele>27.150121</ele>
        <time>2025-09-07T21:12:11.514Z</time>
      </trkpt>
      <trkpt lat="48.853895" lon="2.225426">
        <ele>27.189483</ele>
        <time>2025-09-07T21:12:25.739Z</time>
      </trkpt>
      <trkpt lat="48.853506" lon="2.225710">
        <ele>27.567521</ele>
        <time>2025-09-07T21:12:36.812Z</time>
      </trkpt>
      <trkpt lat="48.853436" lon="2.225854">
        <ele>27.707035</ele>
        <time>2025-09-07T21:12:39.946Z</time>
      </trkpt>
      <trkpt lat="48.853212" lon="2.226166">
        <ele>28.066876</ele>
        <time>2025-09-07T21:12:48.205Z</time>
      </trkpt>
      <trkpt lat="48.853230" lon="2.225932">
        <ele>28.250463</ele>
        <time>2025-09-07T21:12:52.150Z</time>
      </trkpt>
      <trkpt lat="48.853211" lon="2.225790">
        <ele>28.363382</ele>
        <time>2025-09-07T21:12:54.609Z</time>
      </trkpt>
      <trkpt lat="48.853155" lon="2.225702">
        <ele>28.458781</ele>
        <time>2025-09-07T21:12:56.735Z</time>
      </trkpt>
      <trkpt lat="48.853019" lon="2.225662">
        <ele>28.622833</ele>
        <time>2025-09-07T21:13:00.437Z</time>
      </trkpt>
      <trkpt lat="48.852833" lon="2.222367">
        <ele>34.568735</ele>
        <time>2025-09-07T21:15:31.714Z</time>
      </trkpt>
      <trkpt lat="48.852735" lon="2.220624">
        <ele>42.652867</ele>
        <time>2025-09-07T21:16:51.869Z</time>
      </trkpt>
      <trkpt lat="48.852735" lon="2.220624">
        <ele>42.652867</ele>
        <time>2025-09-07T21:16:51.909Z</time>
      </trkpt>
      <trkpt lat="48.852707" lon="2.219950">
        <ele>46.159876</ele>
        <time>2025-09-07T21:17:03.438Z</time>
      </trkpt>
      <trkpt lat="48.852701" lon="2.219876">
        <ele>46.547061</ele>
        <time>2025-09-07T21:17:04.714Z</time>
      </trkpt>
      <trkpt lat="48.852375" lon="2.219920">
        <ele>49.129992</ele>
        <time>2025-09-07T21:17:13.206Z</time>
      </trkpt>
      <trkpt lat="48.852273" lon="2.219970">
        <ele>49.968598</ele>
        <time>2025-09-07T21:17:15.987Z</time>
      </trkpt>
      <trkpt lat="48.852260" lon="2.219923">
        <ele>50.229432</ele>
        <time>2025-09-07T21:17:16.856Z</time>
      </trkpt>
      <trkpt lat="48.852215" lon="2.219893">
        <ele>50.611493</ele>
        <time>2025-09-07T21:17:18.131Z</time>
      </trkpt>
      <trkpt lat="48.852165" lon="2.219955">
        <ele>51.113232</ele>
        <time>2025-09-07T21:17:19.806Z</time>
      </trkpt>
      <trkpt lat="48.851851" lon="2.219914">
        <ele>53.563600</ele>
        <time>2025-09-07T21:17:27.975Z</time>
      </trkpt>
      <trkpt lat="48.851797" lon="2.219909">
        <ele>53.984233</ele>
        <time>2025-09-07T21:17:29.377Z</time>
      </trkpt>
      <trkpt lat="48.851286" lon="2.219849">
        <ele>57.969138</ele>
        <time>2025-09-07T21:17:42.661Z</time>
      </trkpt>
      <trkpt lat="48.851287" lon="2.219835">
        <ele>58.041184</ele>
        <time>2025-09-07T21:17:42.895Z</time>
      </trkpt>
      <trkpt lat="48.850913" lon="2.219749">
        <ele>60.982161</ele>
        <time>2025-09-07T21:18:05.655Z</time>
      </trkpt>
      <trkpt lat="48.850628" lon="2.219603">
        <ele>63.320569</ele>
        <time>2025-09-07T21:18:23.498Z</time>
      </trkpt>
      <trkpt lat="48.850381" lon="2.219455">
        <ele>64.777572</ele>
        <time>2025-09-07T21:18:39.142Z</time>
      </trkpt>
      <trkpt lat="48.850119" lon="2.219298">
        <ele>66.271651</ele>
        <time>2025-09-07T21:18:55.318Z</time>
      </trkpt>
      <trkpt lat="48.849948" lon="2.219196">
        <ele>67.246195</ele>
        <time>2025-09-07T21:19:05.249Z</time>
      </trkpt>
      <trkpt lat="48.849577" lon="2.219046">
        <ele>69.282840</ele>
        <time>2025-09-07T21:19:24.317Z</time>
      </trkpt>
      <trkpt lat="48.849499" lon="2.219045">
        <ele>69.696649</ele>
        <time>2025-09-07T21:19:28.042Z</time>
      </trkpt>
      <trkpt lat="48.849447" lon="2.219049">
        <ele>69.972865</ele>
        <time>2025-09-07T21:19:30.325Z</time>
      </trkpt>
      <trkpt lat="48.849421" lon="2.218951">
        <ele>70.341737</ele>
        <time>2025-09-07T21:19:33.933Z</time>
      </trkpt>
      <trkpt lat="48.849110" lon="2.218826">
        <ele>72.048342</ele>
        <time>2025-09-07T21:19:47.950Z</time>
      </trkpt>
      <trkpt lat="48.848574" lon="2.218753">
        <ele>73.310361</ele>
        <time>2025-09-07T21:20:06.808Z</time>
      </trkpt>
      <trkpt lat="48.848609" lon="2.218618">
        <ele>73.389576</ele>
        <time>2025-09-07T21:20:09.873Z</time>
      </trkpt>
      <trkpt lat="48.848594" lon="2.218520">
        <ele>73.444507</ele>
        <time>2025-09-07T21:20:11.620Z</time>
      </trkpt>
      <trkpt lat="48.848534" lon="2.218424">
        <ele>73.516789</ele>
        <time>2025-09-07T21:20:14.311Z</time>
      </trkpt>
      <trkpt lat="48.848453" lon="2.218474">
        <ele>73.589322</ele>
        <time>2025-09-07T21:20:16.482Z</time>
      </trkpt>
      <trkpt lat="48.847969" lon="2.218605">
        <ele>73.997183</ele>
        <time>2025-09-07T21:20:28.365Z</time>
      </trkpt>
      <trkpt lat="48.847375" lon="2.218553">
        <ele>74.490802</ele>
        <time>2025-09-07T21:20:40.633Z</time>
      </trkpt>
      <trkpt lat="48.847056" lon="2.218544">
        <ele>74.600676</ele>
        <time>2025-09-07T21:20:47.096Z</time>
      </trkpt>
      <trkpt lat="48.846331" lon="2.218663">
        <ele>74.828290</ele>
        <time>2025-09-07T21:21:03.557Z</time>
      </trkpt>
      <trkpt lat="48.846105" lon="2.218700">
        <ele>74.899241</ele>
        <time>2025-09-07T21:21:09.531Z</time>
      </trkpt>
      <trkpt lat="48.845970" lon="2.218750">
        <ele>74.942613</ele>
        <time>2025-09-07T21:21:13.256Z</time>
      </trkpt>
      <trkpt lat="48.845899" lon="2.218754">
        <ele>74.964789</ele>
        <time>2025-09-07T21:21:14.995Z</time>
      </trkpt>
      <trkpt lat="48.845784" lon="2.218767">
        <ele>75.000784</ele>
        <time>2025-09-07T21:21:18.112Z</time>
      </trkpt>
      <trkpt lat="48.845457" lon="2.218809">
        <ele>75.124710</ele>
        <time>2025-09-07T21:21:27.017Z</time>
      </trkpt>
      <trkpt lat="48.845364" lon="2.218774">
        <ele>75.173245</ele>
        <time>2025-09-07T21:21:29.758Z</time>
      </trkpt>
      <trkpt lat="48.844636" lon="2.218741">
        <ele>75.542194</ele>
        <time>2025-09-07T21:21:51.331Z</time>
      </trkpt>
      <trkpt lat="48.844492" lon="2.218708">
        <ele>75.615966</ele>
        <time>2025-09-07T21:21:55.494Z</time>
      </trkpt>
      <trkpt lat="48.844437" lon="2.218668">
        <ele>75.646854</ele>
        <time>2025-09-07T21:21:57.069Z</time>
      </trkpt>
      <trkpt lat="48.844359" lon="2.218590">
        <ele>75.694156</ele>
        <time>2025-09-07T21:21:59.166Z</time>
      </trkpt>
      <trkpt lat="48.844331" lon="2.218570">
        <ele>75.709829</ele>
        <time>2025-09-07T21:21:59.832Z</time>
      </trkpt>
      <trkpt lat="48.843933" lon="2.218332">
        <ele>75.926496</ele>
        <time>2025-09-07T21:22:08.414Z</time>
      </trkpt>
      <trkpt lat="48.843716" lon="2.218202">
        <ele>75.875772</ele>
        <time>2025-09-07T21:22:13.053Z</time>
      </trkpt>
      <trkpt lat="48.843578" lon="2.218126">
        <ele>75.756343</ele>
        <time>2025-09-07T21:22:15.964Z</time>
      </trkpt>
      <trkpt lat="48.842982" lon="2.218050">
        <ele>75.269711</ele>
        <time>2025-09-07T21:22:28.420Z</time>
      </trkpt>
      <trkpt lat="48.842596" lon="2.218034">
        <ele>74.955531</ele>
        <time>2025-09-07T21:22:36.111Z</time>
      </trkpt>
      <trkpt lat="48.841578" lon="2.217766">
        <ele>75.553977</ele>
        <time>2025-09-07T21:22:56.432Z</time>
      </trkpt>
      <trkpt lat="48.841324" lon="2.217640">
        <ele>76.115776</ele>
        <time>2025-09-07T21:23:03.634Z</time>
      </trkpt>
      <trkpt lat="48.840798" lon="2.217509">
        <ele>77.236496</ele>
        <time>2025-09-07T21:23:40.693Z</time>
      </trkpt>
      <trkpt lat="48.840749" lon="2.217497">
        <ele>77.340852</ele>
        <time>2025-09-07T21:23:42.807Z</time>
      </trkpt>
      <trkpt lat="48.840695" lon="2.217356">
        <ele>77.566602</ele>
        <time>2025-09-07T21:23:47.473Z</time>
      </trkpt>
      <trkpt lat="48.840624" lon="2.217287">
        <ele>77.743811</ele>
        <time>2025-09-07T21:23:51.066Z</time>
      </trkpt>
      <trkpt lat="48.840550" lon="2.217194">
        <ele>77.945730</ele>
        <time>2025-09-07T21:23:55.484Z</time>
      </trkpt>
      <trkpt lat="48.840102" lon="2.216752">
        <ele>80.707177</ele>
        <time>2025-09-07T21:24:22.678Z</time>
      </trkpt>
      <trkpt lat="48.840317" lon="2.216597">
        <ele>82.271278</ele>
        <time>2025-09-07T21:24:37.149Z</time>
      </trkpt>
      <trkpt lat="48.840119" lon="2.216495">
        <ele>83.645408</ele>
        <time>2025-09-07T21:24:50.834Z</time>
      </trkpt>
      <trkpt lat="48.839791" lon="2.216404">
        <ele>85.836848</ele>
        <time>2025-09-07T21:25:11.595Z</time>
      </trkpt>
      <trkpt lat="48.839732" lon="2.216304">
        <ele>86.417797</ele>
        <time>2025-09-07T21:25:18.270Z</time>
      </trkpt>
      <trkpt lat="48.839788" lon="2.216212">
        <ele>86.959881</ele>
        <time>2025-09-07T21:25:24.495Z</time>
      </trkpt>
      <trkpt lat="48.839965" lon="2.216230">
        <ele>88.125824</ele>
        <time>2025-09-07T21:25:35.496Z</time>
      </trkpt>
      <trkpt lat="48.839955" lon="2.215781">
        <ele>90.069227</ele>
        <time>2025-09-07T21:25:51.636Z</time>
      </trkpt>
      <trkpt lat="48.839928" lon="2.214655">
        <ele>90.735724</ele>
        <time>2025-09-07T21:26:24.044Z</time>
      </trkpt>
      <trkpt lat="48.839917" lon="2.213757">
        <ele>91.231781</ele>
        <time>2025-09-07T21:26:37.679Z</time>
      </trkpt>
      <trkpt lat="48.839913" lon="2.213359">
        <ele>91.451625</ele>
        <time>2025-09-07T21:26:42.495Z</time>
      </trkpt>
      <trkpt lat="48.838153" lon="2.211806">
        <ele>84.007203</ele>
        <time>2025-09-07T21:27:41.673Z</time>
      </trkpt>
      <trkpt lat="48.838140" lon="2.211521">
        <ele>83.967855</ele>
        <time>2025-09-07T21:27:45.054Z</time>
      </trkpt>
      <trkpt lat="48.838094" lon="2.210498">
        <ele>83.826629</ele>
        <time>2025-09-07T21:27:57.927Z</time>
      </trkpt>
      <trkpt lat="48.837789" lon="2.211031">
        <ele>83.729353</ele>
        <time>2025-09-07T21:28:17.744Z</time>
      </trkpt>
      <trkpt lat="48.837638" lon="2.210699">
        <ele>83.673771</ele>
        <time>2025-09-07T21:28:26.829Z</time>
      </trkpt>
      <trkpt lat="48.837462" lon="2.210723">
        <ele>83.636794</ele>
        <time>2025-09-07T21:28:33.076Z</time>
      </trkpt>
      <trkpt lat="48.837351" lon="2.209130">
        <ele>88.468466</ele>
        <time>2025-09-07T21:29:23.610Z</time>
      </trkpt>
      <trkpt lat="48.837265" lon="2.207896">
        <ele>92.037392</ele>
        <time>2025-09-07T21:30:05.139Z</time>
      </trkpt>
      <trkpt lat="48.837342" lon="2.207779">
        <ele>92.242750</ele>
        <time>2025-09-07T21:30:09.789Z</time>
      </trkpt>
      <trkpt lat="48.837391" lon="2.207632">
        <ele>92.447268</ele>
        <time>2025-09-07T21:30:14.268Z</time>
      </trkpt>
      <trkpt lat="48.837407" lon="2.207434">
        <ele>92.694867</ele>
        <time>2025-09-07T21:30:19.382Z</time>
      </trkpt>
      <trkpt lat="48.837389" lon="2.207298">
        <ele>92.867047</ele>
        <time>2025-09-07T21:30:22.719Z</time>
      </trkpt>
      <trkpt lat="48.837287" lon="2.207069">
        <ele>93.210244</ele>
        <time>2025-09-07T21:30:28.995Z</time>
      </trkpt>
      <trkpt lat="48.837193" lon="2.206980">
        <ele>93.419106</ele>
        <time>2025-09-07T21:30:32.466Z</time>
      </trkpt>
      <trkpt lat="48.837045" lon="2.206940">
        <ele>93.702575</ele>
        <time>2025-09-07T21:30:36.862Z</time>
      </trkpt>
      <trkpt lat="48.836900" lon="2.206997">
        <ele>93.985010</ele>
        <time>2025-09-07T21:30:40.844Z</time>
      </trkpt>
      <trkpt lat="48.836756" lon="2.204976">
        <ele>95.975787</ele>
        <time>2025-09-07T21:31:31.444Z</time>
      </trkpt>
      <trkpt lat="48.836708" lon="2.204301">
        <ele>96.447426</ele>
        <time>2025-09-07T21:31:48.501Z</time>
      </trkpt>
      <trkpt lat="48.836651" lon="2.203531">
        <ele>96.985704</ele>
        <time>2025-09-07T21:32:10.722Z</time>
      </trkpt>
      <trkpt lat="48.836633" lon="2.203318">
        <ele>97.134886</ele>
        <time>2025-09-07T21:32:17.410Z</time>
      </trkpt>
      <trkpt lat="48.835356" lon="2.202933">
        <ele>102.285029</ele>
        <time>2025-09-07T21:33:31.018Z</time>
      </trkpt>
      <trkpt lat="48.833057" lon="2.202240">
        <ele>113.954481</ele>
        <time>2025-09-07T21:35:59.545Z</time>
      </trkpt>
      <trkpt lat="48.832713" lon="2.202204">
        <ele>115.791265</ele>
        <time>2025-09-07T21:36:21.957Z</time>
      </trkpt>
      <trkpt lat="48.832617" lon="2.202087">
        <ele>116.447162</ele>
        <time>2025-09-07T21:36:28.192Z</time>
      </trkpt>
      <trkpt lat="48.830801" lon="2.199881">
        <ele>126.009462</ele>
        <time>2025-09-07T21:38:21.562Z</time>
      </trkpt>
      <trkpt lat="48.830839" lon="2.199781">
        <ele>126.195900</ele>
        <time>2025-09-07T21:38:24.321Z</time>
      </trkpt>
      <trkpt lat="48.830829" lon="2.199626">
        <ele>126.447371</ele>
        <time>2025-09-07T21:38:27.906Z</time>
      </trkpt>
      <trkpt lat="48.830778" lon="2.199477">
        <ele>126.718534</ele>
        <time>2025-09-07T21:38:31.394Z</time>
      </trkpt>
      <trkpt lat="48.830923" lon="2.199247">
        <ele>127.232743</ele>
        <time>2025-09-07T21:38:35.906Z</time>
      </trkpt>
      <trkpt lat="48.831676" lon="2.198028">
        <ele>126.437649</ele>
        <time>2025-09-07T21:38:55.638Z</time>
      </trkpt>
      <trkpt lat="48.831837" lon="2.197768">
        <ele>125.966886</ele>
        <time>2025-09-07T21:38:59.801Z</time>
      </trkpt>
      <trkpt lat="48.831761" lon="2.197701">
        <ele>125.790842</ele>
        <time>2025-09-07T21:39:01.592Z</time>
      </trkpt>
      <trkpt lat="48.831066" lon="2.197052">
        <ele>123.997957</ele>
        <time>2025-09-07T21:39:18.701Z</time>
      </trkpt>
      <trkpt lat="48.830950" lon="2.196857">
        <ele>123.430475</ele>
        <time>2025-09-07T21:39:22.379Z</time>
      </trkpt>
      <trkpt lat="48.830819" lon="2.196528">
        <ele>122.600268</ele>
        <time>2025-09-07T21:39:27.652Z</time>
      </trkpt>
      <trkpt lat="48.830686" lon="2.196270">
        <ele>121.892718</ele>
        <time>2025-09-07T21:39:31.978Z</time>
      </trkpt>
      <trkpt lat="48.830581" lon="2.196212">
        <ele>121.526256</ele>
        <time>2025-09-07T21:39:34.151Z</time>
      </trkpt>
      <trkpt lat="48.830565" lon="2.195919">
        <ele>120.891444</ele>
        <time>2025-09-07T21:39:37.862Z</time>
      </trkpt>
      <trkpt lat="48.830450" lon="2.195914">
        <ele>120.514090</ele>
        <time>2025-09-07T21:39:39.998Z</time>
      </trkpt>
      <trkpt lat="48.830448" lon="2.195812">
        <ele>120.293756</ele>
        <time>2025-09-07T21:39:41.109Z</time>
      </trkpt>
      <trkpt lat="48.830375" lon="2.195812">
        <ele>120.054316</ele>
        <time>2025-09-07T21:39:43.242Z</time>
      </trkpt>
      <trkpt lat="48.830327" lon="2.195747">
        <ele>119.843403</ele>
        <time>2025-09-07T21:39:45.139Z</time>
      </trkpt>
      <trkpt lat="48.830260" lon="2.195513">
        <ele>119.292428</ele>
        <time>2025-09-07T21:39:50.025Z</time>
      </trkpt>
      <trkpt lat="48.829974" lon="2.194827">
        <ele>117.499019</ele>
        <time>2025-09-07T21:40:05.361Z</time>
      </trkpt>
      <trkpt lat="48.829970" lon="2.194819">
        <ele>117.476427</ele>
        <time>2025-09-07T21:40:05.539Z</time>
      </trkpt>
      <trkpt lat="48.829900" lon="2.194579">
        <ele>116.886093</ele>
        <time>2025-09-07T21:40:10.536Z</time>
      </trkpt>
      <trkpt lat="48.829636" lon="2.194278">
        <ele>115.758441</ele>
        <time>2025-09-07T21:40:20.185Z</time>
      </trkpt>
      <trkpt lat="48.829503" lon="2.194063">
        <ele>115.094948</ele>
        <time>2025-09-07T21:40:26.049Z</time>
      </trkpt>
      <trkpt lat="48.829422" lon="2.193996">
        <ele>114.779871</ele>
        <time>2025-09-07T21:40:28.816Z</time>
      </trkpt>
      <trkpt lat="48.829453" lon="2.193886">
        <ele>114.510777</ele>
        <time>2025-09-07T21:40:34.307Z</time>
      </trkpt>
      <trkpt lat="48.829420" lon="2.193843">
        <ele>114.362249</ele>
        <time>2025-09-07T21:40:35.025Z</time>
      </trkpt>
      <trkpt lat="48.829259" lon="2.193664">
        <ele>113.680662</ele>
        <time>2025-09-07T21:40:38.540Z</time>
      </trkpt>
      <trkpt lat="48.829051" lon="2.193431">
        <ele>112.797779</ele>
        <time>2025-09-07T21:40:43.257Z</time>
      </trkpt>
      <trkpt lat="48.828831" lon="2.193106">
        <ele>112.308025</ele>
        <time>2025-09-07T21:40:49.243Z</time>
      </trkpt>
      <trkpt lat="48.828743" lon="2.192935">
        <ele>112.265737</ele>
        <time>2025-09-07T21:40:52.251Z</time>
      </trkpt>
      <trkpt lat="48.828648" lon="2.192658">
        <ele>112.204885</ele>
        <time>2025-09-07T21:40:56.787Z</time>
      </trkpt>
      <trkpt lat="48.828465" lon="2.191373">
        <ele>111.948735</ele>
        <time>2025-09-07T21:41:16.196Z</time>
      </trkpt>
      <trkpt lat="48.828279" lon="2.190010">
        <ele>112.296129</ele>
        <time>2025-09-07T21:41:37.207Z</time>
      </trkpt>
      <trkpt lat="48.828065" lon="2.189501">
        <ele>112.660006</ele>
        <time>2025-09-07T21:41:45.741Z</time>
      </trkpt>
      <trkpt lat="48.827950" lon="2.189313">
        <ele>112.814625</ele>
        <time>2025-09-07T21:41:49.263Z</time>
      </trkpt>
      <trkpt lat="48.827810" lon="2.189109">
        <ele>112.992175</ele>
        <time>2025-09-07T21:41:53.531Z</time>
      </trkpt>
      <trkpt lat="48.827737" lon="2.189004">
        <ele>113.084185</ele>
        <time>2025-09-07T21:41:56.054Z</time>
      </trkpt>
      <trkpt lat="48.827661" lon="2.188919">
        <ele>113.170560</ele>
        <time>2025-09-07T21:41:58.734Z</time>
      </trkpt>
      <trkpt lat="48.827520" lon="2.188849">
        <ele>113.306321</ele>
        <time>2025-09-07T21:42:03.488Z</time>
      </trkpt>
      <trkpt lat="48.827401" lon="2.188820">
        <ele>113.416623</ele>
        <time>2025-09-07T21:42:07.885Z</time>
      </trkpt>
      <trkpt lat="48.827077" lon="2.188746">
        <ele>115.448916</ele>
        <time>2025-09-07T21:42:21.541Z</time>
      </trkpt>
      <trkpt lat="48.826971" lon="2.188479">
        <ele>116.983479</ele>
        <time>2025-09-07T21:42:31.516Z</time>
      </trkpt>
      <trkpt lat="48.827053" lon="2.187386">
        <ele>122.397782</ele>
        <time>2025-09-07T21:43:15.478Z</time>
      </trkpt>
      <trkpt lat="48.827129" lon="2.186183">
        <ele>128.918928</ele>
        <time>2025-09-07T21:44:16.315Z</time>
      </trkpt>
      <trkpt lat="48.827174" lon="2.185522">
        <ele>133.505570</ele>
        <time>2025-09-07T21:44:47.993Z</time>
      </trkpt>
      <trkpt lat="48.827058" lon="2.185195">
        <ele>136.069382</ele>
        <time>2025-09-07T21:45:06.425Z</time>
      </trkpt>
      <trkpt lat="48.826914" lon="2.184900">
        <ele>138.604171</ele>
        <time>2025-09-07T21:45:24.989Z</time>
      </trkpt>
      <trkpt lat="48.826783" lon="2.184686">
        <ele>140.621114</ele>
        <time>2025-09-07T21:45:40.154Z</time>
      </trkpt>
      <trkpt lat="48.826717" lon="2.184580">
        <ele>141.628137</ele>
        <time>2025-09-07T21:45:47.445Z</time>
      </trkpt>
      <trkpt lat="48.826071" lon="2.183540">
        <ele>150.022377</ele>
        <time>2025-09-07T21:46:57.067Z</time>
      </trkpt>
      <trkpt lat="48.825520" lon="2.182632">
        <ele>156.347454</ele>
        <time>2025-09-07T21:47:50.475Z</time>
      </trkpt>
      <trkpt lat="48.825383" lon="2.181854">
        <ele>159.826563</ele>
        <time>2025-09-07T21:48:14.150Z</time>
      </trkpt>
      <trkpt lat="48.825327" lon="2.181222">
        <ele>160.078261</ele>
        <time>2025-09-07T21:48:28.476Z</time>
      </trkpt>
      <trkpt lat="48.825082" lon="2.179591">
        <ele>160.738561</ele>
        <time>2025-09-07T21:48:51.402Z</time>
      </trkpt>
      <trkpt lat="48.824944" lon="2.178656">
        <ele>160.445780</ele>
        <time>2025-09-07T21:49:03.348Z</time>
      </trkpt>
      <trkpt lat="48.824541" lon="2.178823">
        <ele>160.064035</ele>
        <time>2025-09-07T21:49:17.140Z</time>
      </trkpt>
      <trkpt lat="48.824416" lon="2.178460">
        <ele>159.817564</ele>
        <time>2025-09-07T21:49:26.136Z</time>
      </trkpt>
      <trkpt lat="48.824394" lon="2.178319">
        <ele>159.730381</ele>
        <time>2025-09-07T21:49:29.409Z</time>
      </trkpt>
      <trkpt lat="48.824381" lon="2.177774">
        <ele>159.402263</ele>
        <time>2025-09-07T21:49:42.390Z</time>
      </trkpt>
      <trkpt lat="48.824295" lon="2.177293">
        <ele>159.259725</ele>
        <time>2025-09-07T21:49:55.233Z</time>
      </trkpt>
      <trkpt lat="48.824167" lon="2.176835">
        <ele>159.409518</ele>
        <time>2025-09-07T21:50:08.423Z</time>
      </trkpt>
      <trkpt lat="48.824203" lon="2.176495">
        <ele>159.513193</ele>
        <time>2025-09-07T21:50:18.056Z</time>
      </trkpt>
      <trkpt lat="48.824175" lon="2.176112">
        <ele>159.629206</ele>
        <time>2025-09-07T21:50:29.220Z</time>
      </trkpt>
      <trkpt lat="48.824071" lon="2.175647">
        <ele>159.777055</ele>
        <time>2025-09-07T21:50:43.544Z</time>
      </trkpt>
      <trkpt lat="48.824117" lon="2.175207">
        <ele>159.911181</ele>
        <time>2025-09-07T21:50:55.557Z</time>
      </trkpt>
      <trkpt lat="48.823993" lon="2.174778">
        <ele>159.928815</ele>
        <time>2025-09-07T21:51:06.799Z</time>
      </trkpt>
      <trkpt lat="48.823918" lon="2.174214">
        <ele>159.152114</ele>
        <time>2025-09-07T21:51:19.479Z</time>
      </trkpt>
      <trkpt lat="48.823833" lon="2.174019">
        <ele>158.836426</ele>
        <time>2025-09-07T21:51:24.323Z</time>
      </trkpt>
      <trkpt lat="48.823602" lon="2.173926">
        <ele>158.346450</ele>
        <time>2025-09-07T21:51:31.705Z</time>
      </trkpt>
      <trkpt lat="48.823504" lon="2.173752">
        <ele>158.037353</ele>
        <time>2025-09-07T21:51:36.295Z</time>
      </trkpt>
      <trkpt lat="48.823446" lon="2.173504">
        <ele>157.682088</ele>
        <time>2025-09-07T21:51:41.543Z</time>
      </trkpt>
      <trkpt lat="48.823343" lon="2.173376">
        <ele>157.409229</ele>
        <time>2025-09-07T21:51:45.554Z</time>
      </trkpt>
      <trkpt lat="48.823298" lon="2.173163">
        <ele>157.107263</ele>
        <time>2025-09-07T21:51:50.011Z</time>
      </trkpt>
      <trkpt lat="48.823180" lon="2.172860">
        <ele>156.632050</ele>
        <time>2025-09-07T21:51:57.207Z</time>
      </trkpt>
      <trkpt lat="48.823191" lon="2.171866">
        <ele>157.168685</ele>
        <time>2025-09-07T21:52:20.072Z</time>
      </trkpt>
      <trkpt lat="48.823158" lon="2.171506">
        <ele>157.554306</ele>
        <time>2025-09-07T21:52:31.139Z</time>
      </trkpt>
      <trkpt lat="48.823164" lon="2.170495">
        <ele>158.626954</ele>
        <time>2025-09-07T21:53:07.592Z</time>
      </trkpt>
      <trkpt lat="48.823184" lon="2.170239">
        <ele>158.900459</ele>
        <time>2025-09-07T21:53:16.794Z</time>
      </trkpt>
      <trkpt lat="48.823273" lon="2.169824">
        <ele>159.327857</ele>
        <time>2025-09-07T21:53:32.127Z</time>
      </trkpt>
      <trkpt lat="48.823287" lon="2.169375">
        <ele>159.666705</ele>
        <time>2025-09-07T21:53:46.861Z</time>
      </trkpt>
      <trkpt lat="48.823235" lon="2.169206">
        <ele>159.807328</ele>
        <time>2025-09-07T21:53:52.566Z</time>
      </trkpt>
      <trkpt lat="48.823155" lon="2.169076">
        <ele>159.941468</ele>
        <time>2025-09-07T21:53:57.841Z</time>
      </trkpt>
      <trkpt lat="48.822908" lon="2.168941">
        <ele>160.242028</ele>
        <time>2025-09-07T21:54:09.168Z</time>
      </trkpt>
      <trkpt lat="48.822740" lon="2.168805">
        <ele>160.459998</ele>
        <time>2025-09-07T21:54:16.780Z</time>
      </trkpt>
      <trkpt lat="48.822652" lon="2.168684">
        <ele>160.595909</ele>
        <time>2025-09-07T21:54:21.356Z</time>
      </trkpt>
      <trkpt lat="48.822553" lon="2.168429">
        <ele>160.819070</ele>
        <time>2025-09-07T21:54:28.517Z</time>
      </trkpt>
      <trkpt lat="48.822555" lon="2.168148">
        <ele>161.030910</ele>
        <time>2025-09-07T21:54:35.131Z</time>
      </trkpt>
      <trkpt lat="48.822616" lon="2.167925">
        <ele>161.212948</ele>
        <time>2025-09-07T21:54:40.577Z</time>
      </trkpt>
      <trkpt lat="48.823070" lon="2.166860">
        <ele>159.855416</ele>
        <time>2025-09-07T21:55:13.786Z</time>
      </trkpt>
      <trkpt lat="48.823068" lon="2.166783">
        <ele>159.758942</ele>
        <time>2025-09-07T21:55:15.599Z</time>
      </trkpt>
      <trkpt lat="48.822983" lon="2.166495">
        <ele>159.363813</ele>
        <time>2025-09-07T21:55:22.787Z</time>
      </trkpt>
      <trkpt lat="48.823120" lon="2.166041">
        <ele>158.738576</ele>
        <time>2025-09-07T21:55:28.741Z</time>
      </trkpt>
      <trkpt lat="48.823246" lon="2.165876">
        <ele>158.422229</ele>
        <time>2025-09-07T21:55:31.544Z</time>
      </trkpt>
      <trkpt lat="48.823099" lon="2.165871">
        <ele>158.142635</ele>
        <time>2025-09-07T21:55:35.852Z</time>
      </trkpt>
      <trkpt lat="48.822558" lon="2.165854">
        <ele>154.845973</ele>
        <time>2025-09-07T21:55:50.987Z</time>
      </trkpt>
      <trkpt lat="48.821823" lon="2.165926">
        <ele>149.298485</ele>
        <time>2025-09-07T21:56:10.264Z</time>
      </trkpt>
      <trkpt lat="48.821676" lon="2.165940">
        <ele>148.189114</ele>
        <time>2025-09-07T21:56:14.064Z</time>
      </trkpt>
      <trkpt lat="48.820142" lon="2.166071">
        <ele>139.675276</ele>
        <time>2025-09-07T21:56:55.643Z</time>
      </trkpt>
      <trkpt lat="48.818529" lon="2.166159">
        <ele>136.553772</ele>
        <time>2025-09-07T21:57:28.513Z</time>
      </trkpt>
      <trkpt lat="48.818502" lon="2.166160">
        <ele>136.566592</ele>
        <time>2025-09-07T21:57:29.258Z</time>
      </trkpt>
      <trkpt lat="48.818493" lon="2.166136">
        <ele>136.575224</ele>
        <time>2025-09-07T21:57:29.740Z</time>
      </trkpt>
      <trkpt lat="48.818417" lon="2.165919">
        <ele>136.652041</ele>
        <time>2025-09-07T21:57:34.352Z</time>
      </trkpt>
      <trkpt lat="48.818345" lon="2.165850">
        <ele>136.692452</ele>
        <time>2025-09-07T21:57:36.910Z</time>
      </trkpt>
      <trkpt lat="48.818316" lon="2.166043">
        <ele>136.754322</ele>
        <time>2025-09-07T21:57:40.775Z</time>
      </trkpt>
      <trkpt lat="48.818267" lon="2.166114">
        <ele>136.786468</ele>
        <time>2025-09-07T21:57:42.835Z</time>
      </trkpt>
      <trkpt lat="48.818133" lon="2.166188">
        <ele>136.854146</ele>
        <time>2025-09-07T21:57:47.224Z</time>
      </trkpt>
      <trkpt lat="48.817818" lon="2.166188">
        <ele>137.003663</ele>
        <time>2025-09-07T21:57:57.041Z</time>
      </trkpt>
      <trkpt lat="48.817797" lon="2.166188">
        <ele>137.035279</ele>
        <time>2025-09-07T21:57:57.668Z</time>
      </trkpt>
      <trkpt lat="48.817588" lon="2.166210">
        <ele>137.591272</ele>
        <time>2025-09-07T21:58:04.761Z</time>
      </trkpt>
      <trkpt lat="48.817503" lon="2.166219">
        <ele>137.817400</ele>
        <time>2025-09-07T21:58:07.506Z</time>
      </trkpt>
      <trkpt lat="48.817143" lon="2.166250">
        <ele>138.774334</ele>
        <time>2025-09-07T21:58:19.391Z</time>
      </trkpt>
      <trkpt lat="48.816780" lon="2.166272">
        <ele>139.738461</ele>
        <time>2025-09-07T21:58:32.288Z</time>
      </trkpt>
      <trkpt lat="48.816412" lon="2.166303">
        <ele>140.716593</ele>
        <time>2025-09-07T21:58:46.112Z</time>
      </trkpt>
      <trkpt lat="48.813955" lon="2.166423">
        <ele>151.332319</ele>
        <time>2025-09-07T22:00:41.313Z</time>
      </trkpt>
      <trkpt lat="48.813842" lon="2.166244">
        <ele>152.226830</ele>
        <time>2025-09-07T22:00:53.489Z</time>
      </trkpt>
      <trkpt lat="48.813676" lon="2.166074">
        <ele>153.323657</ele>
        <time>2025-09-07T22:01:08.272Z</time>
      </trkpt>
      <trkpt lat="48.813294" lon="2.165838">
        <ele>155.582846</ele>
        <time>2025-09-07T22:01:38.260Z</time>
      </trkpt>
      <trkpt lat="48.813270" lon="2.165824">
        <ele>155.723688</ele>
        <time>2025-09-07T22:01:40.120Z</time>
      </trkpt>
      <trkpt lat="48.812890" lon="2.165688">
        <ele>157.862404</ele>
        <time>2025-09-07T22:02:07.612Z</time>
      </trkpt>
      <trkpt lat="48.812666" lon="2.165678">
        <ele>159.090032</ele>
        <time>2025-09-07T22:02:22.092Z</time>
      </trkpt>
      <trkpt lat="48.812532" lon="2.165812">
        <ele>159.643288</ele>
        <time>2025-09-07T22:02:31.266Z</time>
      </trkpt>
      <trkpt lat="48.812303" lon="2.166533">
        <ele>157.760647</ele>
        <time>2025-09-07T22:02:53.189Z</time>
      </trkpt>
      <trkpt lat="48.812079" lon="2.166545">
        <ele>156.960146</ele>
        <time>2025-09-07T22:02:57.630Z</time>
      </trkpt>
      <trkpt lat="48.812002" lon="2.166554">
        <ele>156.684331</ele>
        <time>2025-09-07T22:02:59.042Z</time>
      </trkpt>
      <trkpt lat="48.811726" lon="2.166586">
        <ele>155.695744</ele>
        <time>2025-09-07T22:03:03.972Z</time>
      </trkpt>
      <trkpt lat="48.811130" lon="2.166482">
        <ele>153.553156</ele>
        <time>2025-09-07T22:03:13.928Z</time>
      </trkpt>
      <trkpt lat="48.810422" lon="2.166329">
        <ele>147.695393</ele>
        <time>2025-09-07T22:03:25.429Z</time>
      </trkpt>
      <trkpt lat="48.810403" lon="2.166322">
        <ele>147.527360</ele>
        <time>2025-09-07T22:03:25.744Z</time>
      </trkpt>
      <trkpt lat="48.810365" lon="2.166314">
        <ele>147.197645</ele>
        <time>2025-09-07T22:03:26.291Z</time>
      </trkpt>
      <trkpt lat="48.809599" lon="2.166142">
        <ele>140.542674</ele>
        <time>2025-09-07T22:03:37.458Z</time>
      </trkpt>
      <trkpt lat="48.809548" lon="2.166131">
        <ele>140.099956</ele>
        <time>2025-09-07T22:03:38.227Z</time>
      </trkpt>
      <trkpt lat="48.809530" lon="2.166189">
        <ele>139.737049</ele>
        <time>2025-09-07T22:03:38.845Z</time>
      </trkpt>
      <trkpt lat="48.808171" lon="2.166963">
        <ele>129.805874</ele>
        <time>2025-09-07T22:04:00.862Z</time>
      </trkpt>
      <trkpt lat="48.808096" lon="2.167011">
        <ele>129.273777</ele>
        <time>2025-09-07T22:04:02.576Z</time>
      </trkpt>
      <trkpt lat="48.808054" lon="2.167048">
        <ele>128.956330</ele>
        <time>2025-09-07T22:04:03.598Z</time>
      </trkpt>
      <trkpt lat="48.807927" lon="2.166790">
        <ele>127.569489</ele>
        <time>2025-09-07T22:04:07.003Z</time>
      </trkpt>
      <trkpt lat="48.807397" lon="2.167049">
        <ele>124.242829</ele>
        <time>2025-09-07T22:04:15.562Z</time>
      </trkpt>
      <trkpt lat="48.807013" lon="2.167236">
        <ele>121.981669</ele>
        <time>2025-09-07T22:04:21.844Z</time>
      </trkpt>
      <trkpt lat="48.805981" lon="2.167710">
        <ele>115.943773</ele>
        <time>2025-09-07T22:04:38.755Z</time>
      </trkpt>
      <trkpt lat="48.805842" lon="2.167707">
        <ele>115.218457</ele>
        <time>2025-09-07T22:04:40.947Z</time>
      </trkpt>
      <trkpt lat="48.805820" lon="2.167772">
        <ele>114.967326</ele>
        <time>2025-09-07T22:04:41.695Z</time>
      </trkpt>
      <trkpt lat="48.805721" lon="2.168142">
        <ele>113.594952</ele>
        <time>2025-09-07T22:04:45.791Z</time>
      </trkpt>
      <trkpt lat="48.805714" lon="2.168206">
        <ele>113.372012</ele>
        <time>2025-09-07T22:04:46.441Z</time>
      </trkpt>
      <trkpt lat="48.805720" lon="2.168435">
        <ele>112.584461</ele>
        <time>2025-09-07T22:04:48.746Z</time>
      </trkpt>
      <trkpt lat="48.805724" lon="2.168707">
        <ele>111.649536</ele>
        <time>2025-09-07T22:04:51.476Z</time>
      </trkpt>
      <trkpt lat="48.805726" lon="2.168866">
        <ele>111.103054</ele>
        <time>2025-09-07T22:04:53.067Z</time>
      </trkpt>
      <trkpt lat="48.805737" lon="2.169027">
        <ele>110.546830</ele>
        <time>2025-09-07T22:04:54.694Z</time>
      </trkpt>
      <trkpt lat="48.805677" lon="2.169126">
        <ele>110.084511</ele>
        <time>2025-09-07T22:04:56.062Z</time>
      </trkpt>
      <trkpt lat="48.805649" lon="2.169151">
        <ele>109.915031</ele>
        <time>2025-09-07T22:04:56.557Z</time>
      </trkpt>
      <trkpt lat="48.805558" lon="2.169226">
        <ele>109.374793</ele>
        <time>2025-09-07T22:04:58.157Z</time>
      </trkpt>
      <trkpt lat="48.805459" lon="2.169307">
        <ele>108.788030</ele>
        <time>2025-09-07T22:04:59.921Z</time>
      </trkpt>
      <trkpt lat="48.805411" lon="2.169334">
        <ele>108.520952</ele>
        <time>2025-09-07T22:05:00.728Z</time>
      </trkpt>
      <trkpt lat="48.805334" lon="2.169375">
        <ele>108.095211</ele>
        <time>2025-09-07T22:05:02.025Z</time>
      </trkpt>
      <trkpt lat="48.805137" lon="2.169401">
        <ele>107.063473</ele>
        <time>2025-09-07T22:05:05.282Z</time>
      </trkpt>
      <trkpt lat="48.805072" lon="2.169401">
        <ele>106.724331</ele>
        <time>2025-09-07T22:05:06.369Z</time>
      </trkpt>
      <trkpt lat="48.804768" lon="2.169417">
        <ele>106.860928</ele>
        <time>2025-09-07T22:05:11.625Z</time>
      </trkpt>
      <trkpt lat="48.804644" lon="2.169441">
        <ele>106.946484</ele>
        <time>2025-09-07T22:05:13.855Z</time>
      </trkpt>
      <trkpt lat="48.804437" lon="2.169511">
        <ele>107.091633</ele>
        <time>2025-09-07T22:05:17.866Z</time>
      </trkpt>
      <trkpt lat="48.804211" lon="2.169595">
        <ele>107.250882</ele>
        <time>2025-09-07T22:05:22.914Z</time>
      </trkpt>
      <trkpt lat="48.804117" lon="2.169608">
        <ele>107.315485</ele>
        <time>2025-09-07T22:05:25.590Z</time>
      </trkpt>
      <trkpt lat="48.803964" lon="2.169903">
        <ele>107.484750</ele>
        <time>2025-09-07T22:05:34.152Z</time>
      </trkpt>
      <trkpt lat="48.803954" lon="2.169923">
        <ele>107.496069</ele>
        <time>2025-09-07T22:05:34.799Z</time>
      </trkpt>
      <trkpt lat="48.803882" lon="2.170106">
        <ele>107.592162</ele>
        <time>2025-09-07T22:05:40.624Z</time>
      </trkpt>
      <trkpt lat="48.803783" lon="2.170266">
        <ele>107.691125</ele>
        <time>2025-09-07T22:05:46.895Z</time>
      </trkpt>
      <trkpt lat="48.803580" lon="2.170444">
        <ele>107.851571</ele>
        <time>2025-09-07T22:05:57.303Z</time>
      </trkpt>
      <trkpt lat="48.803456" lon="2.170515">
        <ele>108.145518</ele>
        <time>2025-09-07T22:06:03.501Z</time>
      </trkpt>
      <trkpt lat="48.803137" lon="2.170633">
        <ele>109.280273</ele>
        <time>2025-09-07T22:06:17.939Z</time>
      </trkpt>
      <trkpt lat="48.802895" lon="2.170692">
        <ele>110.127371</ele>
        <time>2025-09-07T22:06:27.972Z</time>
      </trkpt>
      <trkpt lat="48.802583" lon="2.170749">
        <ele>111.213461</ele>
        <time>2025-09-07T22:06:40.772Z</time>
      </trkpt>
      <trkpt lat="48.802327" lon="2.170785">
        <ele>112.102017</ele>
        <time>2025-09-07T22:06:51.024Z</time>
      </trkpt>
      <trkpt lat="48.801920" lon="2.170837">
        <ele>113.513634</ele>
        <time>2025-09-07T22:07:05.625Z</time>
      </trkpt>
      <trkpt lat="48.801830" lon="2.170848">
        <ele>113.825691</ele>
        <time>2025-09-07T22:07:08.617Z</time>
      </trkpt>
      <trkpt lat="48.801743" lon="2.170860">
        <ele>114.123777</ele>
        <time>2025-09-07T22:07:11.505Z</time>
      </trkpt>
      <trkpt lat="48.801227" lon="2.170959">
        <ele>115.561917</ele>
        <time>2025-09-07T22:07:30.156Z</time>
      </trkpt>
      <trkpt lat="48.801154" lon="2.170974">
        <ele>115.765610</ele>
        <time>2025-09-07T22:07:32.839Z</time>
      </trkpt>
      <trkpt lat="48.800902" lon="2.171015">
        <ele>116.466405</ele>
        <time>2025-09-07T22:07:41.945Z</time>
      </trkpt>
      <trkpt lat="48.800598" lon="2.171077">
        <ele>117.314546</ele>
        <time>2025-09-07T22:07:52.738Z</time>
      </trkpt>
      <trkpt lat="48.800466" lon="2.171104">
        <ele>117.682837</ele>
        <time>2025-09-07T22:07:57.270Z</time>
      </trkpt>
      <trkpt lat="48.800429" lon="2.171114">
        <ele>117.786754</ele>
        <time>2025-09-07T22:07:58.590Z</time>
      </trkpt>
      <trkpt lat="48.799989" lon="2.171223">
        <ele>119.019489</ele>
        <time>2025-09-07T22:08:14.773Z</time>
      </trkpt>
      <trkpt lat="48.799411" lon="2.171524">
        <ele>120.929887</ele>
        <time>2025-09-07T22:08:38.440Z</time>
      </trkpt>
      <trkpt lat="48.799332" lon="2.171568">
        <ele>121.194132</ele>
        <time>2025-09-07T22:08:41.446Z</time>
      </trkpt>
      <trkpt lat="48.799300" lon="2.171397">
        <ele>121.561835</ele>
        <time>2025-09-07T22:08:45.806Z</time>
      </trkpt>
      <trkpt lat="48.799250" lon="2.170400">
        <ele>123.630054</ele>
        <time>2025-09-07T22:09:10.638Z</time>
      </trkpt>
      <trkpt lat="48.799233" lon="2.170048">
        <ele>124.360106</ele>
        <time>2025-09-07T22:09:19.764Z</time>
      </trkpt>
      <trkpt lat="48.799204" lon="2.169471">
        <ele>125.203694</ele>
        <time>2025-09-07T22:09:35.121Z</time>
      </trkpt>
      <trkpt lat="48.799137" lon="2.168798">
        <ele>126.010045</ele>
        <time>2025-09-07T22:09:51.893Z</time>
      </trkpt>
      <trkpt lat="48.799126" lon="2.168687">
        <ele>126.143026</ele>
        <time>2025-09-07T22:09:54.369Z</time>
      </trkpt>
      <trkpt lat="48.799112" lon="2.168560">
        <ele>126.295574</ele>
        <time>2025-09-07T22:09:57.166Z</time>
      </trkpt>
      <trkpt lat="48.799003" lon="2.167508">
        <ele>127.557196</ele>
        <time>2025-09-07T22:10:16.015Z</time>
      </trkpt>
      <trkpt lat="48.798922" lon="2.166690">
        <ele>127.714688</ele>
        <time>2025-09-07T22:10:27.975Z</time>
      </trkpt>
      <trkpt lat="48.798883" lon="2.166348">
        <ele>127.534906</ele>
        <time>2025-09-07T22:10:33.604Z</time>
      </trkpt>
      <trkpt lat="48.798830" lon="2.166058">
        <ele>127.379019</ele>
        <time>2025-09-07T22:10:38.364Z</time>
      </trkpt>
      <trkpt lat="48.798718" lon="2.165630">
        <ele>127.140473</ele>
        <time>2025-09-07T22:10:44.767Z</time>
      </trkpt>
      <trkpt lat="48.798686" lon="2.165817">
        <ele>127.040396</ele>
        <time>2025-09-07T22:10:47.283Z</time>
      </trkpt>
      <trkpt lat="48.798676" lon="2.166129">
        <ele>126.878597</ele>
        <time>2025-09-07T22:10:51.137Z</time>
      </trkpt>
      <trkpt lat="48.798572" lon="2.166101">
        <ele>126.795540</ele>
        <time>2025-09-07T22:10:53.048Z</time>
      </trkpt>
      <trkpt lat="48.798338" lon="2.166126">
        <ele>126.611078</ele>
        <time>2025-09-07T22:10:57.150Z</time>
      </trkpt>
      <trkpt lat="48.798291" lon="2.166064">
        <ele>126.562116</ele>
        <time>2025-09-07T22:10:58.236Z</time>
      </trkpt>
      <trkpt lat="48.798243" lon="2.165859">
        <ele>126.564546</ele>
        <time>2025-09-07T22:11:02.685Z</time>
      </trkpt>
      <trkpt lat="48.798209" lon="2.165389">
        <ele>126.598501</ele>
        <time>2025-09-07T22:11:12.902Z</time>
      </trkpt>
      <trkpt lat="48.798145" lon="2.165189">
        <ele>126.614469</ele>
        <time>2025-09-07T22:11:17.867Z</time>
      </trkpt>
      <trkpt lat="48.798072" lon="2.165057">
        <ele>126.626846</ele>
        <time>2025-09-07T22:11:21.721Z</time>
      </trkpt>
      <trkpt lat="48.797959" lon="2.164953">
        <ele>126.641252</ele>
        <time>2025-09-07T22:11:26.315Z</time>
      </trkpt>
      <trkpt lat="48.797782" lon="2.164842">
        <ele>126.662130</ele>
        <time>2025-09-07T22:11:33.092Z</time>
      </trkpt>
      <trkpt lat="48.797615" lon="2.164816">
        <ele>126.680432</ele>
        <time>2025-09-07T22:11:39.181Z</time>
      </trkpt>
      <trkpt lat="48.797475" lon="2.164840">
        <ele>126.695791</ele>
        <time>2025-09-07T22:11:44.502Z</time>
      </trkpt>
      <trkpt lat="48.797340" lon="2.164921">
        <ele>126.711617</ele>
        <time>2025-09-07T22:11:50.596Z</time>
      </trkpt>
      <trkpt lat="48.797078" lon="2.165350">
        <ele>127.064291</ele>
        <time>2025-09-07T22:12:10.449Z</time>
      </trkpt>
      <trkpt lat="48.796937" lon="2.165547">
        <ele>128.010616</ele>
        <time>2025-09-07T22:12:22.428Z</time>
      </trkpt>
      <trkpt lat="48.796791" lon="2.165603">
        <ele>128.754274</ele>
        <time>2025-09-07T22:12:32.399Z</time>
      </trkpt>
      <trkpt lat="48.796679" lon="2.165618">
        <ele>129.309518</ele>
        <time>2025-09-07T22:12:39.796Z</time>
      </trkpt>
      <trkpt lat="48.796362" lon="2.165575">
        <ele>130.881214</ele>
        <time>2025-09-07T22:13:00.893Z</time>
      </trkpt>
      <trkpt lat="48.796192" lon="2.165612">
        <ele>131.729319</ele>
        <time>2025-09-07T22:13:11.830Z</time>
      </trkpt>
      <trkpt lat="48.795867" lon="2.165724">
        <ele>133.375121</ele>
        <time>2025-09-07T22:13:32.288Z</time>
      </trkpt>
      <trkpt lat="48.795605" lon="2.165731">
        <ele>134.669170</ele>
        <time>2025-09-07T22:13:48.427Z</time>
      </trkpt>
      <trkpt lat="48.795482" lon="2.165610">
        <ele>135.392980</ele>
        <time>2025-09-07T22:13:57.973Z</time>
      </trkpt>
      <trkpt lat="48.795310" lon="2.165499">
        <ele>136.140708</ele>
        <time>2025-09-07T22:14:10.612Z</time>
      </trkpt>
      <trkpt lat="48.795130" lon="2.165488">
        <ele>136.803406</ele>
        <time>2025-09-07T22:14:23.052Z</time>
      </trkpt>
      <trkpt lat="48.794926" lon="2.165570">
        <ele>137.579718</ele>
        <time>2025-09-07T22:14:37.193Z</time>
      </trkpt>
      <trkpt lat="48.794711" lon="2.165815">
        <ele>138.568683</ele>
        <time>2025-09-07T22:14:54.039Z</time>
      </trkpt>
      <trkpt lat="48.794470" lon="2.166174">
        <ele>139.810806</ele>
        <time>2025-09-07T22:15:13.742Z</time>
      </trkpt>
      <trkpt lat="48.794305" lon="2.166282">
        <ele>140.471809</ele>
        <time>2025-09-07T22:15:22.747Z</time>
      </trkpt>
      <trkpt lat="48.794104" lon="2.166266">
        <ele>141.212238</ele>
        <time>2025-09-07T22:15:31.516Z</time>
      </trkpt>
      <trkpt lat="48.793975" lon="2.166194">
        <ele>141.717848</ele>
        <time>2025-09-07T22:15:37.114Z</time>
      </trkpt>
      <trkpt lat="48.793867" lon="2.166054">
        <ele>142.240297</ele>
        <time>2025-09-07T22:15:43.060Z</time>
      </trkpt>
      <trkpt lat="48.793818" lon="2.165906">
        <ele>142.314568</ele>
        <time>2025-09-07T22:15:47.688Z</time>
      </trkpt>
      <trkpt lat="48.793831" lon="2.165689">
        <ele>142.406534</ele>
        <time>2025-09-07T22:15:53.531Z</time>
      </trkpt>
      <trkpt lat="48.794017" lon="2.165196">
        <ele>142.646322</ele>
        <time>2025-09-07T22:16:07.362Z</time>
      </trkpt>
      <trkpt lat="48.794013" lon="2.164979">
        <ele>142.737946</ele>
        <time>2025-09-07T22:16:12.447Z</time>
      </trkpt>
      <trkpt lat="48.793939" lon="2.164821">
        <ele>142.819768</ele>
        <time>2025-09-07T22:16:16.895Z</time>
      </trkpt>
      <trkpt lat="48.793719" lon="2.164722">
        <ele>142.966783</ele>
        <time>2025-09-07T22:16:24.670Z</time>
      </trkpt>
      <trkpt lat="48.792941" lon="2.164689">
        <ele>143.707909</ele>
        <time>2025-09-07T22:16:56.701Z</time>
      </trkpt>
      <trkpt lat="48.792737" lon="2.164514">
        <ele>144.397444</ele>
        <time>2025-09-07T22:17:10.514Z</time>
      </trkpt>
      <trkpt lat="48.792619" lon="2.164520">
        <ele>144.744874</ele>
        <time>2025-09-07T22:17:17.395Z</time>
      </trkpt>
      <trkpt lat="48.792555" lon="2.164569">
        <ele>144.955806</ele>
        <time>2025-09-07T22:17:21.552Z</time>
      </trkpt>
      <trkpt lat="48.792410" lon="2.164689">
        <ele>145.441789</ele>
        <time>2025-09-07T22:17:30.808Z</time>
      </trkpt>
      <trkpt lat="48.792335" lon="2.164929">
        <ele>145.956746</ele>
        <time>2025-09-07T22:17:40.313Z</time>
      </trkpt>
      <trkpt lat="48.792340" lon="2.165128">
        <ele>146.342808</ele>
        <time>2025-09-07T22:17:47.106Z</time>
      </trkpt>
      <trkpt lat="48.792421" lon="2.165355">
        <ele>146.843277</ele>
        <time>2025-09-07T22:17:55.732Z</time>
      </trkpt>
      <trkpt lat="48.792425" lon="2.165521">
        <ele>147.165300</ele>
        <time>2025-09-07T22:18:01.043Z</time>
      </trkpt>
      <trkpt lat="48.792397" lon="2.165657">
        <ele>147.441525</ele>
        <time>2025-09-07T22:18:05.654Z</time>
      </trkpt>
      <trkpt lat="48.792289" lon="2.165926">
        <ele>148.052220</ele>
        <time>2025-09-07T22:18:16.571Z</time>
      </trkpt>
      <trkpt lat="48.792075" lon="2.166080">
        <ele>148.724361</ele>
        <time>2025-09-07T22:18:29.400Z</time>
      </trkpt>
      <trkpt lat="48.791951" lon="2.166076">
        <ele>148.934408</ele>
        <time>2025-09-07T22:18:36.275Z</time>
      </trkpt>
      <trkpt lat="48.791616" lon="2.165811">
        <ele>149.574166</ele>
        <time>2025-09-07T22:18:57.267Z</time>
      </trkpt>
      <trkpt lat="48.791495" lon="2.165791">
        <ele>149.780297</ele>
        <time>2025-09-07T22:19:03.371Z</time>
      </trkpt>
      <trkpt lat="48.791347" lon="2.165883">
        <ele>150.051146</ele>
        <time>2025-09-07T22:19:10.730Z</time>
      </trkpt>
      <trkpt lat="48.791252" lon="2.166040">
        <ele>150.288987</ele>
        <time>2025-09-07T22:19:16.804Z</time>
      </trkpt>
      <trkpt lat="48.791170" lon="2.166424">
        <ele>150.739367</ele>
        <time>2025-09-07T22:19:27.586Z</time>
      </trkpt>
      <trkpt lat="48.790980" lon="2.166837">
        <ele>151.301390</ele>
        <time>2025-09-07T22:19:39.915Z</time>
      </trkpt>
      <trkpt lat="48.790900" lon="2.166821">
        <ele>151.438045</ele>
        <time>2025-09-07T22:19:42.859Z</time>
      </trkpt>
      <trkpt lat="48.790721" lon="2.166666">
        <ele>151.815705</ele>
        <time>2025-09-07T22:19:50.659Z</time>
      </trkpt>
      <trkpt lat="48.790616" lon="2.166614">
        <ele>152.109547</ele>
        <time>2025-09-07T22:19:55.103Z</time>
      </trkpt>
      <trkpt lat="48.790388" lon="2.166663">
        <ele>152.722184</ele>
        <time>2025-09-07T22:20:04.957Z</time>
      </trkpt>
      <trkpt lat="48.790224" lon="2.166627">
        <ele>153.163040</ele>
        <time>2025-09-07T22:20:12.365Z</time>
      </trkpt>
      <trkpt lat="48.790037" lon="2.166477">
        <ele>153.725746</ele>
        <time>2025-09-07T22:20:21.827Z</time>
      </trkpt>
      <trkpt lat="48.789933" lon="2.166450">
        <ele>154.006453</ele>
        <time>2025-09-07T22:20:26.599Z</time>
      </trkpt>
      <trkpt lat="48.789824" lon="2.166465">
        <ele>154.297634</ele>
        <time>2025-09-07T22:20:31.487Z</time>
      </trkpt>
      <trkpt lat="48.789578" lon="2.166577">
        <ele>154.980917</ele>
        <time>2025-09-07T22:20:44.879Z</time>
      </trkpt>
      <trkpt lat="48.789097" lon="2.166734">
        <ele>156.289858</ele>
        <time>2025-09-07T22:21:14.792Z</time>
      </trkpt>
      <trkpt lat="48.788950" lon="2.166930">
        <ele>156.809447</ele>
        <time>2025-09-07T22:21:27.859Z</time>
      </trkpt>
      <trkpt lat="48.788853" lon="2.167174">
        <ele>157.307287</ele>
        <time>2025-09-07T22:21:40.539Z</time>
      </trkpt>
      <trkpt lat="48.788661" lon="2.167401">
        <ele>157.952609</ele>
        <time>2025-09-07T22:21:55.955Z</time>
      </trkpt>
      <trkpt lat="48.788496" lon="2.167505">
        <ele>158.426340</ele>
        <time>2025-09-07T22:22:05.409Z</time>
      </trkpt>
      <trkpt lat="48.788250" lon="2.167542">
        <ele>159.081819</ele>
        <time>2025-09-07T22:22:17.450Z</time>
      </trkpt>
      <trkpt lat="48.788138" lon="2.167394">
        <ele>159.475573</ele>
        <time>2025-09-07T22:22:24.339Z</time>
      </trkpt>
      <trkpt lat="48.787974" lon="2.167017">
        <ele>160.264790</ele>
        <time>2025-09-07T22:22:37.260Z</time>
      </trkpt>
      <trkpt lat="48.787948" lon="2.166777">
        <ele>160.689694</ele>
        <time>2025-09-07T22:22:43.815Z</time>
      </trkpt>
      <trkpt lat="48.787962" lon="2.166597">
        <ele>161.006333</ele>
        <time>2025-09-07T22:22:48.244Z</time>
      </trkpt>
      <trkpt lat="48.787914" lon="2.166431">
        <ele>161.315896</ele>
        <time>2025-09-07T22:22:52.611Z</time>
      </trkpt>
      <trkpt lat="48.787776" lon="2.166340">
        <ele>161.625120</ele>
        <time>2025-09-07T22:22:58.162Z</time>
      </trkpt>
      <trkpt lat="48.787562" lon="2.166327">
        <ele>162.065279</ele>
        <time>2025-09-07T22:23:06.493Z</time>
      </trkpt>
      <trkpt lat="48.787493" lon="2.166260">
        <ele>162.233622</ele>
        <time>2025-09-07T22:23:09.391Z</time>
      </trkpt>
      <trkpt lat="48.787413" lon="2.165717">
        <ele>162.987034</ele>
        <time>2025-09-07T22:23:24.295Z</time>
      </trkpt>
      <trkpt lat="48.787352" lon="2.165576">
        <ele>163.215437</ele>
        <time>2025-09-07T22:23:29.136Z</time>
      </trkpt>
      <trkpt lat="48.787166" lon="2.165390">
        <ele>163.673209</ele>
        <time>2025-09-07T22:23:40.923Z</time>
      </trkpt>
      <trkpt lat="48.787101" lon="2.165272">
        <ele>163.881476</ele>
        <time>2025-09-07T22:23:46.824Z</time>
      </trkpt>
      <trkpt lat="48.787065" lon="2.165184">
        <ele>164.021735</ele>
        <time>2025-09-07T22:23:50.914Z</time>
      </trkpt>
      <trkpt lat="48.787046" lon="2.164951">
        <ele>164.339640</ele>
        <time>2025-09-07T22:24:00.258Z</time>
      </trkpt>
      <trkpt lat="48.786962" lon="2.164642">
        <ele>164.792263</ele>
        <time>2025-09-07T22:24:13.188Z</time>
      </trkpt>
      <trkpt lat="48.786789" lon="2.164493">
        <ele>165.222463</ele>
        <time>2025-09-07T22:24:24.187Z</time>
      </trkpt>
      <trkpt lat="48.786294" lon="2.164311">
        <ele>166.374244</ele>
        <time>2025-09-07T22:24:50.386Z</time>
      </trkpt>
      <trkpt lat="48.786217" lon="2.164217">
        <ele>166.597710</ele>
        <time>2025-09-07T22:24:55.283Z</time>
      </trkpt>
      <trkpt lat="48.786165" lon="2.164028">
        <ele>166.902883</ele>
        <time>2025-09-07T22:25:01.877Z</time>
      </trkpt>
      <trkpt lat="48.786209" lon="2.163863">
        <ele>167.168103</ele>
        <time>2025-09-07T22:25:07.498Z</time>
      </trkpt>
      <trkpt lat="48.786477" lon="2.163536">
        <ele>167.945725</ele>
        <time>2025-09-07T22:25:23.517Z</time>
      </trkpt>
      <trkpt lat="48.786515" lon="2.163363">
        <ele>168.217438</ele>
        <time>2025-09-07T22:25:29.018Z</time>
      </trkpt>
      <trkpt lat="48.786515" lon="2.163182">
        <ele>168.487123</ele>
        <time>2025-09-07T22:25:34.333Z</time>
      </trkpt>
      <trkpt lat="48.786472" lon="2.162815">
        <ele>169.042522</ele>
        <time>2025-09-07T22:25:44.789Z</time>
      </trkpt>
      <trkpt lat="48.786502" lon="2.162157">
        <ele>169.654016</ele>
        <time>2025-09-07T22:26:01.732Z</time>
      </trkpt>
      <trkpt lat="48.786418" lon="2.162008">
        <ele>169.834366</ele>
        <time>2025-09-07T22:26:07.140Z</time>
      </trkpt>
      <trkpt lat="48.786417" lon="2.162299">
        <ele>170.101997</ele>
        <time>2025-09-07T22:26:13.372Z</time>
      </trkpt>
      <trkpt lat="48.786349" lon="2.162576">
        <ele>170.373857</ele>
        <time>2025-09-07T22:26:19.857Z</time>
      </trkpt>
      <trkpt lat="48.786352" lon="2.163062">
        <ele>170.820844</ele>
        <time>2025-09-07T22:26:30.538Z</time>
      </trkpt>
      <trkpt lat="48.786352" lon="2.163063">
        <ele>170.821763</ele>
        <time>2025-09-07T22:26:30.561Z</time>
      </trkpt>
      <trkpt lat="48.786312" lon="2.163331">
        <ele>171.074484</ele>
        <time>2025-09-07T22:26:36.648Z</time>
      </trkpt>
      <trkpt lat="48.786270" lon="2.163447">
        <ele>171.196214</ele>
        <time>2025-09-07T22:26:39.468Z</time>
      </trkpt>
      <trkpt lat="48.786088" lon="2.163673">
        <ele>171.524453</ele>
        <time>2025-09-07T22:26:47.369Z</time>
      </trkpt>
      <trkpt lat="48.786020" lon="2.163827">
        <ele>171.705732</ele>
        <time>2025-09-07T22:26:51.292Z</time>
      </trkpt>
      <trkpt lat="48.785980" lon="2.164123">
        <ele>172.006857</ele>
        <time>2025-09-07T22:26:57.613Z</time>
      </trkpt>
      <trkpt lat="48.785981" lon="2.164314">
        <ele>172.197208</ele>
        <time>2025-09-07T22:27:01.706Z</time>
      </trkpt>
      <trkpt lat="48.786018" lon="2.164434">
        <ele>172.329243</ele>
        <time>2025-09-07T22:27:05.467Z</time>
      </trkpt>
      <trkpt lat="48.785846" lon="2.164406">
        <ele>172.590892</ele>
        <time>2025-09-07T22:27:13.250Z</time>
      </trkpt>
      <trkpt lat="48.785534" lon="2.164449">
        <ele>173.064745</ele>
        <time>2025-09-07T22:27:27.445Z</time>
      </trkpt>
      <trkpt lat="48.785392" lon="2.164425">
        <ele>173.280853</ele>
        <time>2025-09-07T22:27:33.763Z</time>
      </trkpt>
      <trkpt lat="48.785167" lon="2.164341">
        <ele>173.631318</ele>
        <time>2025-09-07T22:27:43.881Z</time>
      </trkpt>
      <trkpt lat="48.784591" lon="2.163964">
        <ele>174.444181</ele>
        <time>2025-09-07T22:28:12.474Z</time>
      </trkpt>
      <trkpt lat="48.783619" lon="2.163328">
        <ele>175.304090</ele>
        <time>2025-09-07T22:28:56.966Z</time>
      </trkpt>
      <trkpt lat="48.783315" lon="2.163021">
        <ele>175.600737</ele>
        <time>2025-09-07T22:29:10.266Z</time>
      </trkpt>
      <trkpt lat="48.783083" lon="2.162742">
        <ele>175.814684</ele>
        <time>2025-09-07T22:29:21.261Z</time>
      </trkpt>
      <trkpt lat="48.782955" lon="2.162589">
        <ele>175.909510</ele>
        <time>2025-09-07T22:29:27.481Z</time>
      </trkpt>
      <trkpt lat="48.782941" lon="2.162635">
        <ele>175.928941</ele>
        <time>2025-09-07T22:29:28.370Z</time>
      </trkpt>
      <trkpt lat="48.782802" lon="2.163100">
        <ele>176.124753</ele>
        <time>2025-09-07T22:29:37.641Z</time>
      </trkpt>
      <trkpt lat="48.782720" lon="2.163445">
        <ele>176.265399</ele>
        <time>2025-09-07T22:29:44.168Z</time>
      </trkpt>
      <trkpt lat="48.782637" lon="2.164700">
        <ele>176.749091</ele>
        <time>2025-09-07T22:30:08.158Z</time>
      </trkpt>
      <trkpt lat="48.782351" lon="2.164601">
        <ele>176.765734</ele>
        <time>2025-09-07T22:30:20.909Z</time>
      </trkpt>
      <trkpt lat="48.782206" lon="2.164556">
        <ele>176.745983</ele>
        <time>2025-09-07T22:30:27.124Z</time>
      </trkpt>
      <trkpt lat="48.781807" lon="2.164421">
        <ele>176.691428</ele>
        <time>2025-09-07T22:30:42.857Z</time>
      </trkpt>
      <trkpt lat="48.781807" lon="2.164421">
        <ele>176.691428</ele>
        <time>2025-09-07T22:30:42.861Z</time>
      </trkpt>
      <trkpt lat="48.781807" lon="2.164421">
        <ele>176.691428</ele>
        <time>2025-09-07T22:30:42.861Z</time>
      </trkpt>
      <trkpt lat="48.781371" lon="2.164356">
        <ele>176.632962</ele>
        <time>2025-09-07T22:30:54.190Z</time>
      </trkpt>
      <trkpt lat="48.781289" lon="2.164285">
        <ele>176.620363</ele>
        <time>2025-09-07T22:30:56.631Z</time>
      </trkpt>
      <trkpt lat="48.781242" lon="2.164131">
        <ele>176.605439</ele>
        <time>2025-09-07T22:30:59.523Z</time>
      </trkpt>
      <trkpt lat="48.781275" lon="2.162768">
        <ele>176.084219</ele>
        <time>2025-09-07T22:31:22.765Z</time>
      </trkpt>
      <trkpt lat="48.781170" lon="2.162823">
        <ele>175.983111</ele>
        <time>2025-09-07T22:31:25.637Z</time>
      </trkpt>
      <trkpt lat="48.781073" lon="2.162919">
        <ele>175.877702</ele>
        <time>2025-09-07T22:31:28.632Z</time>
      </trkpt>
      <trkpt lat="48.781111" lon="2.162708">
        <ele>175.746504</ele>
        <time>2025-09-07T22:31:32.359Z</time>
      </trkpt>
      <trkpt lat="48.781104" lon="2.162501">
        <ele>175.622184</ele>
        <time>2025-09-07T22:31:35.891Z</time>
      </trkpt>
      <trkpt lat="48.781008" lon="2.162078">
        <ele>175.353845</ele>
        <time>2025-09-07T22:31:43.515Z</time>
      </trkpt>
      <trkpt lat="48.781018" lon="2.162072">
        <ele>175.344057</ele>
        <time>2025-09-07T22:31:43.783Z</time>
      </trkpt>
      <trkpt lat="48.780932" lon="2.161746">
        <ele>175.133437</ele>
        <time>2025-09-07T22:31:51.768Z</time>
      </trkpt>
      <trkpt lat="48.780485" lon="2.161677">
        <ele>174.809315</ele>
        <time>2025-09-07T22:32:07.383Z</time>
      </trkpt>
      <trkpt lat="48.779183" lon="2.161476">
        <ele>174.142403</ele>
        <time>2025-09-07T22:32:54.030Z</time>
      </trkpt>
      <trkpt lat="48.777153" lon="2.161186">
        <ele>173.416348</ele>
        <time>2025-09-07T22:34:08.724Z</time>
      </trkpt>
      <trkpt lat="48.776995" lon="2.161164">
        <ele>173.189334</ele>
        <time>2025-09-07T22:34:14.241Z</time>
      </trkpt>
      <trkpt lat="48.776890" lon="2.161150">
        <ele>173.002298</ele>
        <time>2025-09-07T22:34:17.872Z</time>
      </trkpt>
      <trkpt lat="48.776623" lon="2.161113">
        <ele>172.526547</ele>
        <time>2025-09-07T22:34:27.011Z</time>
      </trkpt>
      <trkpt lat="48.774466" lon="2.160781">
        <ele>167.998063</ele>
        <time>2025-09-07T22:35:36.761Z</time>
      </trkpt>
      <trkpt lat="48.772810" lon="2.160528">
        <ele>163.187991</ele>
        <time>2025-09-07T22:36:28.686Z</time>
      </trkpt>
      <trkpt lat="48.772835" lon="2.160047">
        <ele>162.135845</ele>
        <time>2025-09-07T22:36:38.462Z</time>
      </trkpt>
      <trkpt lat="48.772453" lon="2.159752">
        <ele>160.717604</ele>
        <time>2025-09-07T22:36:51.541Z</time>
      </trkpt>
      <trkpt lat="48.772405" lon="2.159508">
        <ele>160.162325</ele>
        <time>2025-09-07T22:36:56.602Z</time>
      </trkpt>
      <trkpt lat="48.772185" lon="2.159451">
        <ele>159.419702</ele>
        <time>2025-09-07T22:37:03.255Z</time>
      </trkpt>
      <trkpt lat="48.772104" lon="2.159288">
        <ele>158.966377</ele>
        <time>2025-09-07T22:37:07.184Z</time>
      </trkpt>
      <trkpt lat="48.771745" lon="2.159118">
        <ele>157.699215</ele>
        <time>2025-09-07T22:37:18.095Z</time>
      </trkpt>
      <trkpt lat="48.771745" lon="2.159118">
        <ele>157.699215</ele>
        <time>2025-09-07T22:37:18.108Z</time>
      </trkpt>
      <trkpt lat="48.771349" lon="2.159272">
        <ele>156.321797</ele>
        <time>2025-09-07T22:37:30.198Z</time>
      </trkpt>
      <trkpt lat="48.771161" lon="2.159150">
        <ele>155.632842</ele>
        <time>2025-09-07T22:37:36.381Z</time>
      </trkpt>
      <trkpt lat="48.770887" lon="2.159174">
        <ele>154.708084</ele>
        <time>2025-09-07T22:37:44.824Z</time>
      </trkpt>
      <trkpt lat="48.770894" lon="2.158988">
        <ele>154.294363</ele>
        <time>2025-09-07T22:37:47.251Z</time>
      </trkpt>
      <trkpt lat="48.770989" lon="2.156682">
        <ele>152.083568</ele>
        <time>2025-09-07T22:38:21.374Z</time>
      </trkpt>
      <trkpt lat="48.771027" lon="2.154997">
        <ele>149.564396</ele>
        <time>2025-09-07T22:38:46.105Z</time>
      </trkpt>
      <trkpt lat="48.771100" lon="2.153269">
        <ele>145.987384</ele>
        <time>2025-09-07T22:39:08.285Z</time>
      </trkpt>
      <trkpt lat="48.771113" lon="2.152916">
        <ele>143.655862</ele>
        <time>2025-09-07T22:39:12.253Z</time>
      </trkpt>
      <trkpt lat="48.770885" lon="2.152343">
        <ele>138.774845</ele>
        <time>2025-09-07T22:39:23.558Z</time>
      </trkpt>
      <trkpt lat="48.770701" lon="2.152091">
        <ele>136.032226</ele>
        <time>2025-09-07T22:39:29.691Z</time>
      </trkpt>
      <trkpt lat="48.770701" lon="2.152091">
        <ele>136.032226</ele>
        <time>2025-09-07T22:39:29.698Z</time>
      </trkpt>
      <trkpt lat="48.770443" lon="2.151908">
        <ele>132.881018</ele>
        <time>2025-09-07T22:39:36.648Z</time>
      </trkpt>
      <trkpt lat="48.770214" lon="2.151657">
        <ele>129.755228</ele>
        <time>2025-09-07T22:39:43.532Z</time>
      </trkpt>
      <trkpt lat="48.770085" lon="2.151435">
        <ele>127.596931</ele>
        <time>2025-09-07T22:39:48.278Z</time>
      </trkpt>
      <trkpt lat="48.769952" lon="2.150986">
        <ele>124.662803</ele>
        <time>2025-09-07T22:39:56.317Z</time>
      </trkpt>
      <trkpt lat="48.769959" lon="2.150497">
        <ele>122.276285</ele>
        <time>2025-09-07T22:40:04.483Z</time>
      </trkpt>
      <trkpt lat="48.769993" lon="2.150328">
        <ele>121.414131</ele>
        <time>2025-09-07T22:40:07.517Z</time>
      </trkpt>
      <trkpt lat="48.770065" lon="2.149988">
        <ele>119.671659</ele>
        <time>2025-09-07T22:40:13.787Z</time>
      </trkpt>
      <trkpt lat="48.770223" lon="2.149565">
        <ele>117.299335</ele>
        <time>2025-09-07T22:40:22.760Z</time>
      </trkpt>
      <trkpt lat="48.770517" lon="2.148824">
        <ele>113.079263</ele>
        <time>2025-09-07T22:40:39.910Z</time>
      </trkpt>
      <trkpt lat="48.770786" lon="2.148239">
        <ele>111.252383</ele>
        <time>2025-09-07T22:40:54.854Z</time>
      </trkpt>
      <trkpt lat="48.770962" lon="2.147925">
        <ele>110.322958</ele>
        <time>2025-09-07T22:41:03.312Z</time>
      </trkpt>
      <trkpt lat="48.771064" lon="2.147825">
        <ele>109.907490</ele>
        <time>2025-09-07T22:41:07.068Z</time>
      </trkpt>
      <trkpt lat="48.771189" lon="2.147756">
        <ele>109.452421</ele>
        <time>2025-09-07T22:41:11.135Z</time>
      </trkpt>
      <trkpt lat="48.771280" lon="2.147759">
        <ele>109.141021</ele>
        <time>2025-09-07T22:41:13.909Z</time>
      </trkpt>
      <trkpt lat="48.771503" lon="2.147838">
        <ele>108.357580</ele>
        <time>2025-09-07T22:41:20.813Z</time>
      </trkpt>
      <trkpt lat="48.771545" lon="2.147828">
        <ele>108.212132</ele>
        <time>2025-09-07T22:41:22.119Z</time>
      </trkpt>
      <trkpt lat="48.771606" lon="2.147645">
        <ele>107.749736</ele>
        <time>2025-09-07T22:41:26.187Z</time>
      </trkpt>
      <trkpt lat="48.771639" lon="2.147594">
        <ele>107.588586</ele>
        <time>2025-09-07T22:41:27.599Z</time>
      </trkpt>
      <trkpt lat="48.771442" lon="2.147465">
        <ele>106.854528</ele>
        <time>2025-09-07T22:41:31.171Z</time>
      </trkpt>
      <trkpt lat="48.771223" lon="2.147331">
        <ele>106.020821</ele>
        <time>2025-09-07T22:41:35.122Z</time>
      </trkpt>
      <trkpt lat="48.771190" lon="2.147319">
        <ele>105.898381</ele>
        <time>2025-09-07T22:41:35.680Z</time>
      </trkpt>
      <trkpt lat="48.771171" lon="2.147314">
        <ele>105.828803</ele>
        <time>2025-09-07T22:41:35.991Z</time>
      </trkpt>
      <trkpt lat="48.771121" lon="2.147331">
        <ele>105.643923</ele>
        <time>2025-09-07T22:41:36.845Z</time>
      </trkpt>
      <trkpt lat="48.771021" lon="2.147324">
        <ele>105.282726</ele>
        <time>2025-09-07T22:41:38.499Z</time>
      </trkpt>
      <trkpt lat="48.771031" lon="2.147232">
        <ele>105.060994</ele>
        <time>2025-09-07T22:41:39.517Z</time>
      </trkpt>
      <trkpt lat="48.770935" lon="2.147081">
        <ele>104.562077</ele>
        <time>2025-09-07T22:41:41.734Z</time>
      </trkpt>
      <trkpt lat="48.770831" lon="2.146899">
        <ele>103.989255</ele>
        <time>2025-09-07T22:41:44.267Z</time>
      </trkpt>
      <trkpt lat="48.770731" lon="2.146726">
        <ele>103.442050</ele>
        <time>2025-09-07T22:41:46.700Z</time>
      </trkpt>
      <trkpt lat="48.770590" lon="2.146477">
        <ele>102.661383</ele>
        <time>2025-09-07T22:41:50.203Z</time>
      </trkpt>
      <trkpt lat="48.770577" lon="2.146453">
        <ele>102.587509</ele>
        <time>2025-09-07T22:41:50.539Z</time>
      </trkpt>
      <trkpt lat="48.770227" lon="2.145808">
        <ele>100.600694</ele>
        <time>2025-09-07T22:41:59.812Z</time>
      </trkpt>
      <trkpt lat="48.770139" lon="2.145637">
        <ele>100.084770</ele>
        <time>2025-09-07T22:42:02.399Z</time>
      </trkpt>
      <trkpt lat="48.770031" lon="2.145433">
        <ele>99.988239</ele>
        <time>2025-09-07T22:42:05.672Z</time>
      </trkpt>
      <trkpt lat="48.769916" lon="2.145274">
        <ele>99.947101</ele>
        <time>2025-09-07T22:42:08.687Z</time>
      </trkpt>
      <trkpt lat="48.769849" lon="2.145190">
        <ele>99.924121</ele>
        <time>2025-09-07T22:42:10.404Z</time>
      </trkpt>
      <trkpt lat="48.769713" lon="2.145018">
        <ele>99.877307</ele>
        <time>2025-09-07T22:42:13.995Z</time>
      </trkpt>
      <trkpt lat="48.769755" lon="2.144971">
        <ele>99.863508</ele>
        <time>2025-09-07T22:42:15.896Z</time>
      </trkpt>
      <trkpt lat="48.769963" lon="2.144329">
        <ele>99.738842</ele>
        <time>2025-09-07T22:42:33.678Z</time>
      </trkpt>
      <trkpt lat="48.771214" lon="2.141183">
        <ele>101.305545</ele>
        <time>2025-09-07T22:44:13.127Z</time>
      </trkpt>
      <trkpt lat="48.771234" lon="2.141029">
        <ele>101.508467</ele>
        <time>2025-09-07T22:44:17.694Z</time>
      </trkpt>
      <trkpt lat="48.771183" lon="2.141064">
        <ele>101.759262</ele>
        <time>2025-09-07T22:44:20.257Z</time>
      </trkpt>
      <trkpt lat="48.771139" lon="2.141086">
        <ele>101.966834</ele>
        <time>2025-09-07T22:44:21.726Z</time>
      </trkpt>
      <trkpt lat="48.770956" lon="2.141175">
        <ele>102.827865</ele>
        <time>2025-09-07T22:44:28.126Z</time>
      </trkpt>
      <trkpt lat="48.770876" lon="2.141168">
        <ele>103.186905</ele>
        <time>2025-09-07T22:44:31.014Z</time>
      </trkpt>
      <trkpt lat="48.770781" lon="2.141099">
        <ele>103.658812</ele>
        <time>2025-09-07T22:44:35.049Z</time>
      </trkpt>
      <trkpt lat="48.770164" lon="2.140301">
        <ele>107.291389</ele>
        <time>2025-09-07T22:45:12.971Z</time>
      </trkpt>
      <trkpt lat="48.770077" lon="2.140145">
        <ele>107.894856</ele>
        <time>2025-09-07T22:45:20.543Z</time>
      </trkpt>
      <trkpt lat="48.769928" lon="2.139877">
        <ele>108.930247</ele>
        <time>2025-09-07T22:45:34.381Z</time>
      </trkpt>
      <trkpt lat="48.769577" lon="2.139249">
        <ele>111.030494</ele>
        <time>2025-09-07T22:46:07.560Z</time>
      </trkpt>
      <trkpt lat="48.769587" lon="2.139011">
        <ele>111.613279</ele>
        <time>2025-09-07T22:46:16.739Z</time>
      </trkpt>
      <trkpt lat="48.769535" lon="2.138715">
        <ele>112.361875</ele>
        <time>2025-09-07T22:46:27.603Z</time>
      </trkpt>
      <trkpt lat="48.769538" lon="2.138632">
        <ele>112.565008</ele>
        <time>2025-09-07T22:46:30.193Z</time>
      </trkpt>
      <trkpt lat="48.769760" lon="2.137917">
        <ele>114.496439</ele>
        <time>2025-09-07T22:46:49.879Z</time>
      </trkpt>
      <trkpt lat="48.769826" lon="2.137626">
        <ele>115.248485</ele>
        <time>2025-09-07T22:46:55.718Z</time>
      </trkpt>
      <trkpt lat="48.769999" lon="2.137281">
        <ele>116.138197</ele>
        <time>2025-09-07T22:47:02.787Z</time>
      </trkpt>
      <trkpt lat="48.770170" lon="2.137215">
        <ele>116.232123</ele>
        <time>2025-09-07T22:47:06.794Z</time>
      </trkpt>
      <trkpt lat="48.770383" lon="2.137220">
        <ele>116.345521</ele>
        <time>2025-09-07T22:47:11.577Z</time>
      </trkpt>
      <trkpt lat="48.770496" lon="2.137002">
        <ele>116.442824</ele>
        <time>2025-09-07T22:47:15.673Z</time>
      </trkpt>
      <trkpt lat="48.770578" lon="2.136744">
        <ele>116.543315</ele>
        <time>2025-09-07T22:47:19.758Z</time>
      </trkpt>
      <trkpt lat="48.770719" lon="2.136091">
        <ele>116.784394</ele>
        <time>2025-09-07T22:47:29.536Z</time>
      </trkpt>
      <trkpt lat="48.770747" lon="2.135446">
        <ele>117.011175</ele>
        <time>2025-09-07T22:47:43.718Z</time>
      </trkpt>
      <trkpt lat="48.770780" lon="2.135118">
        <ele>117.755847</ele>
        <time>2025-09-07T22:47:53.208Z</time>
      </trkpt>
      <trkpt lat="48.770871" lon="2.134641">
        <ele>119.743124</ele>
        <time>2025-09-07T22:48:09.859Z</time>
      </trkpt>
      <trkpt lat="48.769921" lon="2.133485">
        <ele>127.137522</ele>
        <time>2025-09-07T22:49:39.548Z</time>
      </trkpt>
      <trkpt lat="48.767993" lon="2.131220">
        <ele>141.617442</ele>
        <time>2025-09-07T22:52:28.842Z</time>
      </trkpt>
      <trkpt lat="48.767906" lon="2.131088">
        <ele>142.101597</ele>
        <time>2025-09-07T22:52:35.967Z</time>
      </trkpt>
      <trkpt lat="48.767938" lon="2.130823">
        <ele>142.800338</ele>
        <time>2025-09-07T22:52:43.832Z</time>
      </trkpt>
      <trkpt lat="48.768041" lon="2.130458">
        <ele>143.830113</ele>
        <time>2025-09-07T22:52:54.657Z</time>
      </trkpt>
      <trkpt lat="48.767971" lon="2.130432">
        <ele>144.113696</ele>
        <time>2025-09-07T22:52:58.430Z</time>
      </trkpt>
      <trkpt lat="48.767967" lon="2.130109">
        <ele>144.951573</ele>
        <time>2025-09-07T22:53:06.017Z</time>
      </trkpt>
      <trkpt lat="48.767923" lon="2.129733">
        <ele>145.942014</ele>
        <time>2025-09-07T22:53:14.567Z</time>
      </trkpt>
      <trkpt lat="48.767881" lon="2.129745">
        <ele>146.110189</ele>
        <time>2025-09-07T22:53:15.963Z</time>
      </trkpt>
      <trkpt lat="48.767816" lon="2.129760">
        <ele>146.368905</ele>
        <time>2025-09-07T22:53:18.073Z</time>
      </trkpt>
      <trkpt lat="48.767707" lon="2.129682">
        <ele>146.789111</ele>
        <time>2025-09-07T22:53:21.933Z</time>
      </trkpt>
      <trkpt lat="48.767398" lon="2.129618">
        <ele>147.434353</ele>
        <time>2025-09-07T22:53:31.463Z</time>
      </trkpt>
      <trkpt lat="48.767189" lon="2.129492">
        <ele>147.899655</ele>
        <time>2025-09-07T22:53:38.236Z</time>
      </trkpt>
      <trkpt lat="48.765285" lon="2.128173">
        <ele>151.889203</ele>
        <time>2025-09-07T22:54:47.338Z</time>
      </trkpt>
      <trkpt lat="48.764983" lon="2.127953">
        <ele>152.449517</ele>
        <time>2025-09-07T22:54:57.845Z</time>
      </trkpt>
      <trkpt lat="48.761041" lon="2.125067">
        <ele>156.722488</ele>
        <time>2025-09-07T22:56:56.347Z</time>
      </trkpt>
      <trkpt lat="48.760964" lon="2.125014">
        <ele>156.681450</ele>
        <time>2025-09-07T22:56:58.329Z</time>
      </trkpt>
      <trkpt lat="48.760913" lon="2.125017">
        <ele>156.656680</ele>
        <time>2025-09-07T22:56:59.474Z</time>
      </trkpt>
      <trkpt lat="48.760815" lon="2.125040">
        <ele>156.608552</ele>
        <time>2025-09-07T22:57:01.734Z</time>
      </trkpt>
      <trkpt lat="48.760767" lon="2.125107">
        <ele>156.576895</ele>
        <time>2025-09-07T22:57:03.189Z</time>
      </trkpt>
      <trkpt lat="48.760739" lon="2.125072">
        <ele>156.559287</ele>
        <time>2025-09-07T22:57:03.989Z</time>
      </trkpt>
      <trkpt lat="48.760697" lon="2.125018">
        <ele>156.532567</ele>
        <time>2025-09-07T22:57:05.199Z</time>
      </trkpt>
      <trkpt lat="48.760678" lon="2.124995">
        <ele>156.520770</ele>
        <time>2025-09-07T22:57:05.727Z</time>
      </trkpt>
      <trkpt lat="48.760653" lon="2.124952">
        <ele>156.502426</ele>
        <time>2025-09-07T22:57:06.549Z</time>
      </trkpt>
      <trkpt lat="48.760624" lon="2.124774">
        <ele>156.443765</ele>
        <time>2025-09-07T22:57:09.147Z</time>
      </trkpt>
      <trkpt lat="48.759875" lon="2.124218">
        <ele>156.039065</ele>
        <time>2025-09-07T22:57:25.973Z</time>
      </trkpt>
      <trkpt lat="48.759005" lon="2.123584">
        <ele>154.508017</ele>
        <time>2025-09-07T22:57:44.067Z</time>
      </trkpt>
      <trkpt lat="48.758830" lon="2.123353">
        <ele>154.067189</ele>
        <time>2025-09-07T22:57:48.284Z</time>
      </trkpt>
      <trkpt lat="48.757434" lon="2.122328">
        <ele>151.216107</ele>
        <time>2025-09-07T22:58:16.410Z</time>
      </trkpt>
      <trkpt lat="48.755715" lon="2.121095">
        <ele>148.367057</ele>
        <time>2025-09-07T22:58:52.683Z</time>
      </trkpt>
      <trkpt lat="48.755483" lon="2.120955">
        <ele>148.078865</ele>
        <time>2025-09-07T22:58:57.464Z</time>
      </trkpt>
      <trkpt lat="48.755127" lon="2.120796">
        <ele>147.650520</ele>
        <time>2025-09-07T22:59:04.743Z</time>
      </trkpt>
      <trkpt lat="48.754569" lon="2.120659">
        <ele>147.299841</ele>
        <time>2025-09-07T22:59:16.209Z</time>
      </trkpt>
      <trkpt lat="48.750931" lon="2.120140">
        <ele>148.826387</ele>
        <time>2025-09-07T23:00:45.603Z</time>
      </trkpt>
      <trkpt lat="48.750869" lon="2.120129">
        <ele>148.910404</ele>
        <time>2025-09-07T23:00:47.293Z</time>
      </trkpt>
      <trkpt lat="48.750846" lon="2.120125">
        <ele>148.941563</ele>
        <time>2025-09-07T23:00:47.913Z</time>
      </trkpt>
      <trkpt lat="48.750544" lon="2.120086">
        <ele>149.349507</ele>
        <time>2025-09-07T23:00:56.295Z</time>
      </trkpt>
      <trkpt lat="48.750420" lon="2.120154">
        <ele>149.526978</ele>
        <time>2025-09-07T23:01:00.011Z</time>
      </trkpt>
      <trkpt lat="48.750395" lon="2.120132">
        <ele>149.565880</ele>
        <time>2025-09-07T23:01:00.869Z</time>
      </trkpt>
      <trkpt lat="48.750350" lon="2.119985">
        <ele>149.709707</ele>
        <time>2025-09-07T23:01:03.957Z</time>
      </trkpt>
      <trkpt lat="48.750324" lon="2.119927">
        <ele>149.771947</ele>
        <time>2025-09-07T23:01:05.299Z</time>
      </trkpt>
      <trkpt lat="48.750230" lon="2.119849">
        <ele>149.916163</ele>
        <time>2025-09-07T23:01:08.472Z</time>
      </trkpt>
      <trkpt lat="48.750140" lon="2.119794">
        <ele>150.046761</ele>
        <time>2025-09-07T23:01:11.403Z</time>
      </trkpt>
      <trkpt lat="48.749992" lon="2.119765">
        <ele>150.247615</ele>
        <time>2025-09-07T23:01:15.995Z</time>
      </trkpt>
      <trkpt lat="48.749908" lon="2.119751">
        <ele>150.361354</ele>
        <time>2025-09-07T23:01:18.649Z</time>
      </trkpt>
      <trkpt lat="48.749828" lon="2.119811">
        <ele>150.481475</ele>
        <time>2025-09-07T23:01:21.523Z</time>
      </trkpt>
      <trkpt lat="48.749244" lon="2.119667">
        <ele>151.413961</ele>
        <time>2025-09-07T23:01:41.135Z</time>
      </trkpt>
      <trkpt lat="48.748929" lon="2.119518">
        <ele>152.005340</ele>
        <time>2025-09-07T23:01:51.920Z</time>
      </trkpt>
      <trkpt lat="48.748649" lon="2.119305">
        <ele>152.566758</ele>
        <time>2025-09-07T23:02:02.059Z</time>
      </trkpt>
      <trkpt lat="48.748150" lon="2.118742">
        <ele>153.681425</ele>
        <time>2025-09-07T23:02:21.483Z</time>
      </trkpt>
      <trkpt lat="48.747953" lon="2.118403">
        <ele>154.150211</ele>
        <time>2025-09-07T23:02:30.255Z</time>
      </trkpt>
      <trkpt lat="48.747698" lon="2.117860">
        <ele>154.525518</ele>
        <time>2025-09-07T23:02:41.841Z</time>
      </trkpt>
      <trkpt lat="48.747687" lon="2.117796">
        <ele>154.562753</ele>
        <time>2025-09-07T23:02:42.974Z</time>
      </trkpt>
      <trkpt lat="48.747711" lon="2.117653">
        <ele>154.645827</ele>
        <time>2025-09-07T23:02:45.495Z</time>
      </trkpt>
      <trkpt lat="48.747682" lon="2.117525">
        <ele>154.722025</ele>
        <time>2025-09-07T23:02:47.779Z</time>
      </trkpt>
      <trkpt lat="48.747617" lon="2.117442">
        <ele>154.794575</ele>
        <time>2025-09-07T23:02:49.973Z</time>
      </trkpt>
      <trkpt lat="48.747527" lon="2.117407">
        <ele>154.873904</ele>
        <time>2025-09-07T23:02:52.320Z</time>
      </trkpt>
      <trkpt lat="48.747469" lon="2.117284">
        <ele>154.959037</ele>
        <time>2025-09-07T23:02:54.886Z</time>
      </trkpt>
      <trkpt lat="48.747336" lon="2.117019">
        <ele>155.146529</ele>
        <time>2025-09-07T23:03:00.403Z</time>
      </trkpt>
      <trkpt lat="48.747226" lon="2.116921">
        <ele>155.255456</ele>
        <time>2025-09-07T23:03:03.609Z</time>
      </trkpt>
      <trkpt lat="48.747014" lon="2.116364">
        <ele>155.617534</ele>
        <time>2025-09-07T23:03:14.488Z</time>
      </trkpt>
      <trkpt lat="48.746886" lon="2.115926">
        <ele>155.964911</ele>
        <time>2025-09-07T23:03:22.564Z</time>
      </trkpt>
      <trkpt lat="48.746804" lon="2.115705">
        <ele>156.150208</ele>
        <time>2025-09-07T23:03:26.912Z</time>
      </trkpt>
      <trkpt lat="48.746762" lon="2.115594">
        <ele>156.243723</ele>
        <time>2025-09-07T23:03:29.255Z</time>
      </trkpt>
      <trkpt lat="48.746384" lon="2.114782">
        <ele>156.970026</ele>
        <time>2025-09-07T23:03:48.147Z</time>
      </trkpt>
      <trkpt lat="48.746174" lon="2.114447">
        <ele>157.307781</ele>
        <time>2025-09-07T23:03:57.114Z</time>
      </trkpt>
      <trkpt lat="48.746142" lon="2.114383">
        <ele>157.366471</ele>
        <time>2025-09-07T23:03:58.671Z</time>
      </trkpt>
      <trkpt lat="48.746136" lon="2.114249">
        <ele>157.464613</ele>
        <time>2025-09-07T23:04:01.300Z</time>
      </trkpt>
      <trkpt lat="48.746150" lon="2.114180">
        <ele>157.517366</ele>
        <time>2025-09-07T23:04:02.680Z</time>
      </trkpt>
      <trkpt lat="48.746140" lon="2.113938">
        <ele>157.655963</ele>
        <time>2025-09-07T23:04:07.288Z</time>
      </trkpt>
      <trkpt lat="48.746087" lon="2.113769">
        <ele>157.722141</ele>
        <time>2025-09-07T23:04:10.784Z</time>
      </trkpt>
      <trkpt lat="48.746060" lon="2.113657">
        <ele>157.764311</ele>
        <time>2025-09-07T23:04:12.981Z</time>
      </trkpt>
      <trkpt lat="48.746060" lon="2.113374">
        <ele>157.864388</ele>
        <time>2025-09-07T23:04:18.069Z</time>
      </trkpt>
      <trkpt lat="48.746063" lon="2.113220">
        <ele>157.918870</ele>
        <time>2025-09-07T23:04:20.714Z</time>
      </trkpt>
      <trkpt lat="48.746064" lon="2.113124">
        <ele>157.952823</ele>
        <time>2025-09-07T23:04:22.324Z</time>
      </trkpt>
      <trkpt lat="48.746044" lon="2.113102">
        <ele>157.966073</ele>
        <time>2025-09-07T23:04:22.935Z</time>
      </trkpt>
      <trkpt lat="48.745943" lon="2.113106">
        <ele>158.020257</ele>
        <time>2025-09-07T23:04:25.375Z</time>
      </trkpt>
      <trkpt lat="48.745907" lon="2.113107">
        <ele>158.039566</ele>
        <time>2025-09-07T23:04:26.287Z</time>
      </trkpt>
      <trkpt lat="48.745923" lon="2.112837">
        <ele>158.135431</ele>
        <time>2025-09-07T23:04:30.626Z</time>
      </trkpt>
      <trkpt lat="48.745940" lon="2.112570">
        <ele>158.230289</ele>
        <time>2025-09-07T23:04:34.715Z</time>
      </trkpt>
      <trkpt lat="48.745955" lon="2.112278">
        <ele>158.333862</ele>
        <time>2025-09-07T23:04:39.197Z</time>
      </trkpt>
      <trkpt lat="48.745962" lon="2.112140">
        <ele>158.382807</ele>
        <time>2025-09-07T23:04:41.336Z</time>
      </trkpt>
      <trkpt lat="48.746004" lon="2.111914">
        <ele>158.465840</ele>
        <time>2025-09-07T23:04:44.838Z</time>
      </trkpt>
      <trkpt lat="48.746026" lon="2.111818">
        <ele>158.501780</ele>
        <time>2025-09-07T23:04:46.307Z</time>
      </trkpt>
      <trkpt lat="48.746016" lon="2.111782">
        <ele>158.515595</ele>
        <time>2025-09-07T23:04:46.897Z</time>
      </trkpt>
      <trkpt lat="48.746069" lon="2.111648">
        <ele>158.570852</ele>
        <time>2025-09-07T23:04:49.240Z</time>
      </trkpt>
      <trkpt lat="48.746065" lon="2.111569">
        <ele>158.592628</ele>
        <time>2025-09-07T23:04:50.423Z</time>
      </trkpt>
      <trkpt lat="48.746097" lon="2.111037">
        <ele>158.700191</ele>
        <time>2025-09-07T23:04:58.242Z</time>
      </trkpt>
      <trkpt lat="48.746098" lon="2.110484">
        <ele>158.811538</ele>
        <time>2025-09-07T23:05:06.557Z</time>
      </trkpt>
      <trkpt lat="48.746076" lon="2.109085">
        <ele>159.093307</ele>
        <time>2025-09-07T23:05:29.489Z</time>
      </trkpt>
      <trkpt lat="48.746070" lon="2.108658">
        <ele>159.184372</ele>
        <time>2025-09-07T23:05:36.394Z</time>
      </trkpt>
      <trkpt lat="48.746044" lon="2.108082">
        <ele>159.313514</ele>
        <time>2025-09-07T23:05:45.611Z</time>
      </trkpt>
      <trkpt lat="48.746016" lon="2.107975">
        <ele>159.339264</ele>
        <time>2025-09-07T23:05:47.437Z</time>
      </trkpt>
      <trkpt lat="48.745936" lon="2.107663">
        <ele>159.414143</ele>
        <time>2025-09-07T23:05:52.729Z</time>
      </trkpt>
      <trkpt lat="48.745723" lon="2.107287">
        <ele>159.525022</ele>
        <time>2025-09-07T23:06:00.517Z</time>
      </trkpt>
      <trkpt lat="48.745072" lon="2.106413">
        <ele>159.795973</ele>
        <time>2025-09-07T23:06:20.982Z</time>
      </trkpt>
      <trkpt lat="48.745082" lon="2.106342">
        <ele>159.807103</ele>
        <time>2025-09-07T23:06:22.117Z</time>
      </trkpt>
      <trkpt lat="48.745488" lon="2.101263">
        <ele>160.558575</ele>
        <time>2025-09-07T23:07:40.671Z</time>
      </trkpt>
      <trkpt lat="48.745559" lon="2.100947">
        <ele>160.571755</ele>
        <time>2025-09-07T23:07:45.989Z</time>
      </trkpt>
      <trkpt lat="48.746231" lon="2.098947">
        <ele>160.660377</ele>
        <time>2025-09-07T23:08:19.910Z</time>
      </trkpt>
      <trkpt lat="48.746255" lon="2.098826">
        <ele>160.643173</ele>
        <time>2025-09-07T23:08:21.675Z</time>
      </trkpt>
      <trkpt lat="48.746184" lon="2.098794">
        <ele>160.599106</ele>
        <time>2025-09-07T23:08:23.244Z</time>
      </trkpt>
      <trkpt lat="48.745903" lon="2.098540">
        <ele>160.404481</ele>
        <time>2025-09-07T23:08:30.057Z</time>
      </trkpt>
      <trkpt lat="48.745619" lon="2.098354">
        <ele>160.220433</ele>
        <time>2025-09-07T23:08:36.408Z</time>
      </trkpt>
      <trkpt lat="48.745252" lon="2.098221">
        <ele>159.995939</ele>
        <time>2025-09-07T23:08:43.993Z</time>
      </trkpt>
      <trkpt lat="48.742728" lon="2.097869">
        <ele>158.196166</ele>
        <time>2025-09-07T23:09:35.658Z</time>
      </trkpt>
      <trkpt lat="48.742455" lon="2.097901">
        <ele>158.019771</ele>
        <time>2025-09-07T23:09:41.199Z</time>
      </trkpt>
      <trkpt lat="48.742019" lon="2.098052">
        <ele>157.731661</ele>
        <time>2025-09-07T23:09:50.313Z</time>
      </trkpt>
      <trkpt lat="48.741731" lon="2.098035">
        <ele>157.545986</ele>
        <time>2025-09-07T23:09:56.179Z</time>
      </trkpt>
      <trkpt lat="48.741394" lon="2.097959">
        <ele>157.326498</ele>
        <time>2025-09-07T23:10:03.110Z</time>
      </trkpt>
      <trkpt lat="48.740820" lon="2.097768">
        <ele>157.061796</ele>
        <time>2025-09-07T23:10:15.644Z</time>
      </trkpt>
      <trkpt lat="48.740668" lon="2.097415">
        <ele>157.042496</ele>
        <time>2025-09-07T23:10:21.946Z</time>
      </trkpt>
      <trkpt lat="48.740604" lon="2.097194">
        <ele>157.031445</ele>
        <time>2025-09-07T23:10:25.574Z</time>
      </trkpt>
      <trkpt lat="48.740638" lon="2.097100">
        <ele>157.026537</ele>
        <time>2025-09-07T23:10:27.135Z</time>
      </trkpt>
      <trkpt lat="48.740666" lon="2.096891">
        <ele>157.016773</ele>
        <time>2025-09-07T23:10:30.233Z</time>
      </trkpt>
      <trkpt lat="48.740627" lon="2.096692">
        <ele>157.007269</ele>
        <time>2025-09-07T23:10:33.261Z</time>
      </trkpt>
      <trkpt lat="48.740568" lon="2.096544">
        <ele>156.999352</ele>
        <time>2025-09-07T23:10:35.778Z</time>
      </trkpt>
      <trkpt lat="48.740547" lon="2.096489">
        <ele>156.996442</ele>
        <time>2025-09-07T23:10:36.748Z</time>
      </trkpt>
      <trkpt lat="48.740445" lon="2.096393">
        <ele>156.988108</ele>
        <time>2025-09-07T23:10:39.444Z</time>
      </trkpt>
      <trkpt lat="48.740242" lon="2.096364">
        <ele>156.973953</ele>
        <time>2025-09-07T23:10:44.123Z</time>
      </trkpt>
      <trkpt lat="48.740124" lon="2.096452">
        <ele>156.964825</ele>
        <time>2025-09-07T23:10:47.180Z</time>
      </trkpt>
      <trkpt lat="48.739989" lon="2.096373">
        <ele>156.954779</ele>
        <time>2025-09-07T23:10:50.599Z</time>
      </trkpt>
      <trkpt lat="48.739725" lon="2.095948">
        <ele>156.807593</ele>
        <time>2025-09-07T23:10:59.396Z</time>
      </trkpt>
      <trkpt lat="48.739702" lon="2.095912">
        <ele>156.793087</ele>
        <time>2025-09-07T23:11:00.117Z</time>
      </trkpt>
      <trkpt lat="48.739505" lon="2.095604">
        <ele>156.668913</ele>
        <time>2025-09-07T23:11:06.338Z</time>
      </trkpt>
      <trkpt lat="48.739142" lon="2.094965">
        <ele>156.424831</ele>
        <time>2025-09-07T23:11:18.143Z</time>
      </trkpt>
      <trkpt lat="48.739006" lon="2.094787">
        <ele>156.345991</ele>
        <time>2025-09-07T23:11:21.868Z</time>
      </trkpt>
      <trkpt lat="48.738829" lon="2.094614">
        <ele>156.253579</ele>
        <time>2025-09-07T23:11:26.157Z</time>
      </trkpt>
      <trkpt lat="48.738667" lon="2.094473">
        <ele>156.171607</ele>
        <time>2025-09-07T23:11:29.896Z</time>
      </trkpt>
      <trkpt lat="48.738316" lon="2.094161">
        <ele>155.429550</ele>
        <time>2025-09-07T23:11:37.759Z</time>
      </trkpt>
      <trkpt lat="48.738156" lon="2.094019">
        <ele>155.075808</ele>
        <time>2025-09-07T23:11:41.292Z</time>
      </trkpt>
      <trkpt lat="48.738135" lon="2.093999">
        <ele>155.028490</ele>
        <time>2025-09-07T23:11:41.752Z</time>
      </trkpt>
      <trkpt lat="48.738112" lon="2.093976">
        <ele>154.975920</ele>
        <time>2025-09-07T23:11:42.276Z</time>
      </trkpt>
      <trkpt lat="48.738097" lon="2.093963">
        <ele>154.942954</ele>
        <time>2025-09-07T23:11:42.604Z</time>
      </trkpt>
      <trkpt lat="48.738005" lon="2.093883">
        <ele>154.740593</ele>
        <time>2025-09-07T23:11:44.590Z</time>
      </trkpt>
      <trkpt lat="48.737851" lon="2.093752">
        <ele>154.403667</ele>
        <time>2025-09-07T23:11:47.865Z</time>
      </trkpt>
      <trkpt lat="48.737709" lon="2.093596">
        <ele>154.069080</ele>
        <time>2025-09-07T23:11:51.064Z</time>
      </trkpt>
      <trkpt lat="48.737328" lon="2.092888">
        <ele>152.919178</ele>
        <time>2025-09-07T23:12:01.760Z</time>
      </trkpt>
      <trkpt lat="48.737074" lon="2.092501">
        <ele>151.504807</ele>
        <time>2025-09-07T23:12:08.151Z</time>
      </trkpt>
      <trkpt lat="48.736798" lon="2.092064">
        <ele>149.629836</ele>
        <time>2025-09-07T23:12:15.264Z</time>
      </trkpt>
      <trkpt lat="48.736488" lon="2.091575">
        <ele>147.527984</ele>
        <time>2025-09-07T23:12:22.723Z</time>
      </trkpt>
      <trkpt lat="48.736437" lon="2.091458">
        <ele>147.093388</ele>
        <time>2025-09-07T23:12:24.198Z</time>
      </trkpt>
      <trkpt lat="48.736373" lon="2.091328">
        <ele>146.590682</ele>
        <time>2025-09-07T23:12:25.860Z</time>
      </trkpt>
      <trkpt lat="48.736303" lon="2.091256">
        <ele>146.193243</ele>
        <time>2025-09-07T23:12:27.147Z</time>
      </trkpt>
      <trkpt lat="48.736145" lon="2.091200">
        <ele>145.430853</ele>
        <time>2025-09-07T23:12:29.592Z</time>
      </trkpt>
      <trkpt lat="48.735837" lon="2.091160">
        <ele>143.566326</ele>
        <time>2025-09-07T23:12:34.151Z</time>
      </trkpt>
      <trkpt lat="48.735780" lon="2.091167">
        <ele>142.928497</ele>
        <time>2025-09-07T23:12:34.990Z</time>
      </trkpt>
      <trkpt lat="48.735577" lon="2.091254">
        <ele>140.575638</ele>
        <time>2025-09-07T23:12:38.034Z</time>
      </trkpt>
      <trkpt lat="48.734915" lon="2.091427">
        <ele>133.083185</ele>
        <time>2025-09-07T23:12:47.438Z</time>
      </trkpt>
      <trkpt lat="48.734420" lon="2.091483">
        <ele>127.546881</ele>
        <time>2025-09-07T23:12:54.174Z</time>
      </trkpt>
      <trkpt lat="48.734150" lon="2.091414">
        <ele>124.492972</ele>
        <time>2025-09-07T23:12:57.900Z</time>
      </trkpt>
      <trkpt lat="48.733963" lon="2.091250">
        <ele>122.530872</ele>
        <time>2025-09-07T23:13:00.887Z</time>
      </trkpt>
      <trkpt lat="48.733763" lon="2.091073">
        <ele>120.489523</ele>
        <time>2025-09-07T23:13:04.120Z</time>
      </trkpt>
      <trkpt lat="48.733648" lon="2.091029">
        <ele>119.444027</ele>
        <time>2025-09-07T23:13:05.796Z</time>
      </trkpt>
      <trkpt lat="48.733619" lon="2.091032">
        <ele>119.187799</ele>
        <time>2025-09-07T23:13:06.200Z</time>
      </trkpt>
      <trkpt lat="48.733477" lon="2.091111">
        <ele>117.854471</ele>
        <time>2025-09-07T23:13:08.357Z</time>
      </trkpt>
      <trkpt lat="48.733474" lon="2.091117">
        <ele>117.810696</ele>
        <time>2025-09-07T23:13:08.429Z</time>
      </trkpt>
      <trkpt lat="48.733370" lon="2.091317">
        <ele>116.329973</ele>
        <time>2025-09-07T23:13:10.852Z</time>
      </trkpt>
      <trkpt lat="48.733348" lon="2.091502">
        <ele>115.237038</ele>
        <time>2025-09-07T23:13:12.648Z</time>
      </trkpt>
      <trkpt lat="48.733379" lon="2.091671">
        <ele>114.217179</ele>
        <time>2025-09-07T23:13:14.340Z</time>
      </trkpt>
      <trkpt lat="48.733440" lon="2.091819">
        <ele>113.202513</ele>
        <time>2025-09-07T23:13:16.030Z</time>
      </trkpt>
      <trkpt lat="48.733500" lon="2.092120">
        <ele>111.374323</ele>
        <time>2025-09-07T23:13:19.095Z</time>
      </trkpt>
      <trkpt lat="48.733448" lon="2.092492">
        <ele>109.163476</ele>
        <time>2025-09-07T23:13:22.920Z</time>
      </trkpt>
      <trkpt lat="48.733430" lon="2.092614">
        <ele>108.436638</ele>
        <time>2025-09-07T23:13:24.236Z</time>
      </trkpt>
      <trkpt lat="48.733390" lon="2.092677">
        <ele>108.243192</ele>
        <time>2025-09-07T23:13:25.200Z</time>
      </trkpt>
      <trkpt lat="48.733259" lon="2.092538">
        <ele>107.856342</ele>
        <time>2025-09-07T23:13:27.929Z</time>
      </trkpt>
      <trkpt lat="48.733119" lon="2.092455">
        <ele>107.492648</ele>
        <time>2025-09-07T23:13:30.510Z</time>
      </trkpt>
      <trkpt lat="48.732807" lon="2.092269">
        <ele>106.681532</ele>
        <time>2025-09-07T23:13:36.249Z</time>
      </trkpt>
      <trkpt lat="48.732421" lon="2.092065">
        <ele>105.692525</ele>
        <time>2025-09-07T23:13:43.613Z</time>
      </trkpt>
      <trkpt lat="48.731796" lon="2.091892">
        <ele>104.155395</ele>
        <time>2025-09-07T23:13:56.290Z</time>
      </trkpt>
      <trkpt lat="48.731763" lon="2.091885">
        <ele>104.074776</ele>
        <time>2025-09-07T23:13:57.014Z</time>
      </trkpt>
      <trkpt lat="48.731715" lon="2.091873">
        <ele>104.023158</ele>
        <time>2025-09-07T23:13:58.040Z</time>
      </trkpt>
      <trkpt lat="48.731554" lon="2.091843">
        <ele>104.114528</ele>
        <time>2025-09-07T23:14:01.515Z</time>
      </trkpt>
      <trkpt lat="48.731522" lon="2.091484">
        <ele>104.249121</ele>
        <time>2025-09-07T23:14:06.783Z</time>
      </trkpt>
      <trkpt lat="48.731508" lon="2.091019">
        <ele>104.422064</ele>
        <time>2025-09-07T23:14:14.298Z</time>
      </trkpt>
      <trkpt lat="48.731491" lon="2.090582">
        <ele>104.584706</ele>
        <time>2025-09-07T23:14:21.825Z</time>
      </trkpt>
      <trkpt lat="48.731488" lon="2.090501">
        <ele>104.614847</ele>
        <time>2025-09-07T23:14:23.312Z</time>
      </trkpt>
      <trkpt lat="48.731472" lon="2.089953">
        <ele>104.818647</ele>
        <time>2025-09-07T23:14:33.127Z</time>
      </trkpt>
      <trkpt lat="48.731498" lon="2.089641">
        <ele>104.935487</ele>
        <time>2025-09-07T23:14:38.942Z</time>
      </trkpt>
      <trkpt lat="48.731536" lon="2.089477">
        <ele>105.000069</ele>
        <time>2025-09-07T23:14:42.218Z</time>
      </trkpt>
      <trkpt lat="48.731648" lon="2.089186">
        <ele>105.202592</ele>
        <time>2025-09-07T23:14:48.817Z</time>
      </trkpt>
      <trkpt lat="48.731777" lon="2.088964">
        <ele>105.396341</ele>
        <time>2025-09-07T23:14:54.416Z</time>
      </trkpt>
      <trkpt lat="48.732186" lon="2.088475">
        <ele>105.913484</ele>
        <time>2025-09-07T23:15:09.581Z</time>
      </trkpt>
      <trkpt lat="48.732228" lon="2.088422">
        <ele>105.967737</ele>
        <time>2025-09-07T23:15:11.248Z</time>
      </trkpt>
      <trkpt lat="48.732477" lon="2.088125">
        <ele>106.282289</ele>
        <time>2025-09-07T23:15:20.301Z</time>
      </trkpt>
      <trkpt lat="48.732768" lon="2.087784">
        <ele>106.647441</ele>
        <time>2025-09-07T23:15:29.699Z</time>
      </trkpt>
      <trkpt lat="48.733236" lon="2.087261">
        <ele>107.852968</ele>
        <time>2025-09-07T23:15:42.410Z</time>
      </trkpt>
      <trkpt lat="48.733236" lon="2.087261">
        <ele>107.852968</ele>
        <time>2025-09-07T23:15:42.415Z</time>
      </trkpt>
      <trkpt lat="48.733866" lon="2.086879">
        <ele>109.546284</ele>
        <time>2025-09-07T23:15:58.957Z</time>
      </trkpt>
      <trkpt lat="48.734088" lon="2.086610">
        <ele>110.255508</ele>
        <time>2025-09-07T23:16:09.488Z</time>
      </trkpt>
      <trkpt lat="48.734121" lon="2.086467">
        <ele>110.504878</ele>
        <time>2025-09-07T23:16:13.741Z</time>
      </trkpt>
      <trkpt lat="48.734133" lon="2.086408">
        <ele>110.606505</ele>
        <time>2025-09-07T23:16:16.093Z</time>
      </trkpt>
      <trkpt lat="48.734174" lon="2.086206">
        <ele>110.954385</ele>
        <time>2025-09-07T23:16:22.960Z</time>
      </trkpt>
      <trkpt lat="48.734158" lon="2.085970">
        <ele>111.506150</ele>
        <time>2025-09-07T23:16:31.492Z</time>
      </trkpt>
      <trkpt lat="48.733779" lon="2.084681">
        <ele>121.873474</ele>
        <time>2025-09-07T23:17:40.933Z</time>
      </trkpt>
      <trkpt lat="48.733689" lon="2.084596">
        <ele>123.054453</ele>
        <time>2025-09-07T23:17:50.653Z</time>
      </trkpt>
      <trkpt lat="48.733070" lon="2.083360">
        <ele>134.498133</ele>
        <time>2025-09-07T23:19:29.076Z</time>
      </trkpt>
      <trkpt lat="48.732383" lon="2.082359">
        <ele>145.256792</ele>
        <time>2025-09-07T23:20:53.194Z</time>
      </trkpt>
      <trkpt lat="48.732342" lon="2.082297">
        <ele>145.910647</ele>
        <time>2025-09-07T23:20:57.564Z</time>
      </trkpt>
      <trkpt lat="48.731469" lon="2.081567">
        <ele>153.764961</ele>
        <time>2025-09-07T23:21:58.108Z</time>
      </trkpt>
      <trkpt lat="48.730170" lon="2.080245">
        <ele>159.915637</ele>
        <time>2025-09-07T23:22:55.555Z</time>
      </trkpt>
      <trkpt lat="48.729785" lon="2.080826">
        <ele>160.913368</ele>
        <time>2025-09-07T23:23:13.750Z</time>
      </trkpt>
      <trkpt lat="48.729751" lon="2.080967">
        <ele>161.095245</ele>
        <time>2025-09-07T23:23:17.036Z</time>
      </trkpt>
      <trkpt lat="48.729765" lon="2.081088">
        <ele>161.244075</ele>
        <time>2025-09-07T23:23:19.701Z</time>
      </trkpt>
      <trkpt lat="48.728912" lon="2.081396">
        <ele>162.784971</ele>
        <time>2025-09-07T23:23:48.084Z</time>
      </trkpt>
      <trkpt lat="48.728881" lon="2.081317">
        <ele>162.822175</ele>
        <time>2025-09-07T23:23:49.991Z</time>
      </trkpt>
      <trkpt lat="48.728802" lon="2.081408">
        <ele>162.883055</ele>
        <time>2025-09-07T23:23:56.892Z</time>
      </trkpt>
      <trkpt lat="48.728773" lon="2.081251">
        <ele>162.949043</ele>
        <time>2025-09-07T23:23:59.883Z</time>
      </trkpt>
      <trkpt lat="48.728715" lon="2.081196">
        <ele>162.991020</ele>
        <time>2025-09-07T23:24:01.775Z</time>
      </trkpt>
      <trkpt lat="48.728627" lon="2.081031">
        <ele>163.076901</ele>
        <time>2025-09-07T23:24:05.546Z</time>
      </trkpt>
      <trkpt lat="48.728609" lon="2.080899">
        <ele>163.131457</ele>
        <time>2025-09-07T23:24:07.849Z</time>
      </trkpt>
      <trkpt lat="48.728621" lon="2.080814">
        <ele>163.166639</ele>
        <time>2025-09-07T23:24:09.314Z</time>
      </trkpt>
      <trkpt lat="48.728701" lon="2.080617">
        <ele>163.260272</ele>
        <time>2025-09-07T23:24:13.157Z</time>
      </trkpt>
      <trkpt lat="48.728938" lon="2.080043">
        <ele>163.534353</ele>
        <time>2025-09-07T23:24:23.867Z</time>
      </trkpt>
      <trkpt lat="48.729081" lon="2.079663">
        <ele>163.711423</ele>
        <time>2025-09-07T23:24:30.406Z</time>
      </trkpt>
      <trkpt lat="48.729140" lon="2.079398">
        <ele>163.824624</ele>
        <time>2025-09-07T23:24:34.512Z</time>
      </trkpt>
      <trkpt lat="48.729172" lon="2.079038">
        <ele>163.874293</ele>
        <time>2025-09-07T23:24:39.997Z</time>
      </trkpt>
      <trkpt lat="48.729155" lon="2.078676">
        <ele>163.899958</ele>
        <time>2025-09-07T23:24:45.580Z</time>
      </trkpt>
      <trkpt lat="48.729167" lon="2.078561">
        <ele>163.908192</ele>
        <time>2025-09-07T23:24:47.381Z</time>
      </trkpt>
      <trkpt lat="48.729091" lon="2.078282">
        <ele>163.929539</ele>
        <time>2025-09-07T23:24:52.107Z</time>
      </trkpt>
      <trkpt lat="48.729028" lon="2.078128">
        <ele>163.942354</ele>
        <time>2025-09-07T23:24:54.952Z</time>
      </trkpt>
      <trkpt lat="48.728723" lon="2.077959">
        <ele>163.977170</ele>
        <time>2025-09-07T23:25:02.622Z</time>
      </trkpt>
      <trkpt lat="48.728194" lon="2.077514">
        <ele>164.042032</ele>
        <time>2025-09-07T23:25:16.516Z</time>
      </trkpt>
      <trkpt lat="48.727556" lon="2.076960">
        <ele>163.205482</ele>
        <time>2025-09-07T23:25:33.785Z</time>
      </trkpt>
      <trkpt lat="48.726048" lon="2.075602">
        <ele>160.209608</ele>
        <time>2025-09-07T23:26:31.402Z</time>
      </trkpt>
      <trkpt lat="48.725729" lon="2.075289">
        <ele>159.240066</ele>
        <time>2025-09-07T23:26:43.306Z</time>
      </trkpt>
      <trkpt lat="48.724918" lon="2.074660">
        <ele>156.807978</ele>
        <time>2025-09-07T23:27:11.417Z</time>
      </trkpt>
      <trkpt lat="48.724409" lon="2.074159">
        <ele>154.796154</ele>
        <time>2025-09-07T23:27:30.363Z</time>
      </trkpt>
      <trkpt lat="48.724024" lon="2.073720">
        <ele>153.199117</ele>
        <time>2025-09-07T23:27:45.419Z</time>
      </trkpt>
      <trkpt lat="48.723960" lon="2.073241">
        <ele>152.130342</ele>
        <time>2025-09-07T23:27:55.317Z</time>
      </trkpt>
      <trkpt lat="48.723984" lon="2.073088">
        <ele>151.786423</ele>
        <time>2025-09-07T23:27:58.421Z</time>
      </trkpt>
      <trkpt lat="48.723834" lon="2.072847">
        <ele>150.862495</ele>
        <time>2025-09-07T23:28:04.898Z</time>
      </trkpt>
      <trkpt lat="48.723245" lon="2.072309">
        <ele>146.775041</ele>
        <time>2025-09-07T23:28:24.629Z</time>
      </trkpt>
      <trkpt lat="48.723180" lon="2.072037">
        <ele>145.640653</ele>
        <time>2025-09-07T23:28:29.942Z</time>
      </trkpt>
      <trkpt lat="48.722695" lon="2.071381">
        <ele>141.777044</ele>
        <time>2025-09-07T23:28:47.697Z</time>
      </trkpt>
      <trkpt lat="48.722449" lon="2.070994">
        <ele>139.339842</ele>
        <time>2025-09-07T23:28:57.281Z</time>
      </trkpt>
      <trkpt lat="48.722076" lon="2.070597">
        <ele>135.692631</ele>
        <time>2025-09-07T23:29:09.647Z</time>
      </trkpt>
      <trkpt lat="48.721691" lon="2.070308">
        <ele>132.254636</ele>
        <time>2025-09-07T23:29:21.231Z</time>
      </trkpt>
      <trkpt lat="48.721197" lon="2.069764">
        <ele>127.368362</ele>
        <time>2025-09-07T23:29:37.438Z</time>
      </trkpt>
      <trkpt lat="48.720979" lon="2.069564">
        <ele>124.934183</ele>
        <time>2025-09-07T23:29:44.090Z</time>
      </trkpt>
      <trkpt lat="48.720760" lon="2.069399">
        <ele>122.117730</ele>
        <time>2025-09-07T23:29:50.389Z</time>
      </trkpt>
      <trkpt lat="48.720598" lon="2.069344">
        <ele>120.205860</ele>
        <time>2025-09-07T23:29:54.620Z</time>
      </trkpt>
      <trkpt lat="48.720522" lon="2.069269">
        <ele>119.161471</ele>
        <time>2025-09-07T23:29:56.918Z</time>
      </trkpt>
      <trkpt lat="48.720385" lon="2.069224">
        <ele>117.547115</ele>
        <time>2025-09-07T23:30:00.463Z</time>
      </trkpt>
      <trkpt lat="48.720182" lon="2.069095">
        <ele>115.012162</ele>
        <time>2025-09-07T23:30:05.996Z</time>
      </trkpt>
      <trkpt lat="48.719867" lon="2.069151">
        <ele>111.359654</ele>
        <time>2025-09-07T23:30:13.876Z</time>
      </trkpt>
      <trkpt lat="48.719662" lon="2.069063">
        <ele>108.905956</ele>
        <time>2025-09-07T23:30:19.132Z</time>
      </trkpt>
      <trkpt lat="48.719604" lon="2.068978">
        <ele>107.976854</ele>
        <time>2025-09-07T23:30:21.122Z</time>
      </trkpt>
      <trkpt lat="48.719578" lon="2.068781">
        <ele>106.450425</ele>
        <time>2025-09-07T23:30:24.384Z</time>
      </trkpt>
      <trkpt lat="48.719469" lon="2.068485">
        <ele>104.125246</ele>
        <time>2025-09-07T23:30:29.845Z</time>
      </trkpt>
      <trkpt lat="48.719488" lon="2.067919">
        <ele>100.476662</ele>
        <time>2025-09-07T23:30:39.063Z</time>
      </trkpt>
      <trkpt lat="48.719525" lon="2.067731">
        <ele>99.213625</ele>
        <time>2025-09-07T23:30:42.267Z</time>
      </trkpt>
      <trkpt lat="48.719512" lon="2.067589">
        <ele>98.290680</ele>
        <time>2025-09-07T23:30:44.623Z</time>
      </trkpt>
      <trkpt lat="48.719445" lon="2.067229">
        <ele>95.882572</ele>
        <time>2025-09-07T23:30:50.856Z</time>
      </trkpt>
      <trkpt lat="48.719315" lon="2.067023">
        <ele>94.047330</ele>
        <time>2025-09-07T23:30:55.700Z</time>
      </trkpt>
      <trkpt lat="48.719454" lon="2.066782">
        <ele>91.986485</ele>
        <time>2025-09-07T23:31:01.308Z</time>
      </trkpt>
      <trkpt lat="48.719404" lon="2.066453">
        <ele>89.812933</ele>
        <time>2025-09-07T23:31:07.397Z</time>
      </trkpt>
      <trkpt lat="48.719411" lon="2.066217">
        <ele>88.292043</ele>
        <time>2025-09-07T23:31:11.844Z</time>
      </trkpt>
      <trkpt lat="48.719709" lon="2.066082">
        <ele>87.468088</ele>
        <time>2025-09-07T23:31:21.168Z</time>
      </trkpt>
      <trkpt lat="48.720129" lon="2.066027">
        <ele>86.715114</ele>
        <time>2025-09-07T23:31:35.453Z</time>
      </trkpt>
      <trkpt lat="48.720488" lon="2.065926">
        <ele>86.062938</ele>
        <time>2025-09-07T23:31:48.501Z</time>
      </trkpt>
      <trkpt lat="48.720789" lon="2.065705">
        <ele>85.465558</ele>
        <time>2025-09-07T23:32:00.888Z</time>
      </trkpt>
      <trkpt lat="48.720968" lon="2.065527">
        <ele>85.083177</ele>
        <time>2025-09-07T23:32:08.529Z</time>
      </trkpt>
      <trkpt lat="48.721082" lon="2.065334">
        <ele>84.777918</ele>
        <time>2025-09-07T23:32:14.511Z</time>
      </trkpt>
      <trkpt lat="48.721257" lon="2.064811">
        <ele>84.584543</ele>
        <time>2025-09-07T23:32:27.605Z</time>
      </trkpt>
      <trkpt lat="48.721437" lon="2.064369">
        <ele>84.431229</ele>
        <time>2025-09-07T23:32:38.926Z</time>
      </trkpt>
      <trkpt lat="48.721711" lon="2.063943">
        <ele>84.255622</ele>
        <time>2025-09-07T23:32:52.170Z</time>
      </trkpt>
      <trkpt lat="48.721804" lon="2.063758">
        <ele>84.186972</ele>
        <time>2025-09-07T23:32:57.494Z</time>
      </trkpt>
      <trkpt lat="48.721816" lon="2.063630">
        <ele>84.148813</ele>
        <time>2025-09-07T23:33:00.533Z</time>
      </trkpt>
      <trkpt lat="48.721613" lon="2.063255">
        <ele>84.005636</ele>
        <time>2025-09-07T23:33:12.596Z</time>
      </trkpt>
      <trkpt lat="48.721556" lon="2.063155">
        <ele>83.966629</ele>
        <time>2025-09-07T23:33:16.246Z</time>
      </trkpt>
      <trkpt lat="48.721053" lon="2.062277">
        <ele>87.187450</ele>
        <time>2025-09-07T23:33:54.080Z</time>
      </trkpt>
      <trkpt lat="48.720462" lon="2.060684">
        <ele>93.414606</ele>
        <time>2025-09-07T23:35:13.777Z</time>
      </trkpt>
      <trkpt lat="48.720283" lon="2.060069">
        <ele>98.201923</ele>
        <time>2025-09-07T23:35:49.189Z</time>
      </trkpt>
      <trkpt lat="48.719757" lon="2.058064">
        <ele>113.592153</ele>
        <time>2025-09-07T23:37:53.453Z</time>
      </trkpt>
      <trkpt lat="48.719696" lon="2.057893">
        <ele>114.991664</ele>
        <time>2025-09-07T23:38:05.671Z</time>
      </trkpt>
      <trkpt lat="48.719609" lon="2.057473">
        <ele>118.160897</ele>
        <time>2025-09-07T23:38:35.669Z</time>
      </trkpt>
      <trkpt lat="48.719638" lon="2.057294">
        <ele>119.487855</ele>
        <time>2025-09-07T23:38:47.821Z</time>
      </trkpt>
      <trkpt lat="48.719575" lon="2.057107">
        <ele>120.999493</ele>
        <time>2025-09-07T23:39:01.189Z</time>
      </trkpt>
      <trkpt lat="48.719274" lon="2.056970">
        <ele>124.428965</ele>
        <time>2025-09-07T23:39:30.809Z</time>
      </trkpt>
      <trkpt lat="48.719096" lon="2.056912">
        <ele>126.415718</ele>
        <time>2025-09-07T23:39:46.796Z</time>
      </trkpt>
      <trkpt lat="48.718910" lon="2.056747">
        <ele>128.767458</ele>
        <time>2025-09-07T23:40:04.812Z</time>
      </trkpt>
      <trkpt lat="48.718770" lon="2.056623">
        <ele>130.536882</ele>
        <time>2025-09-07T23:40:17.341Z</time>
      </trkpt>
      <trkpt lat="48.718671" lon="2.056306">
        <ele>132.468153</ele>
        <time>2025-09-07T23:40:34.079Z</time>
      </trkpt>
      <trkpt lat="48.718635" lon="2.055965">
        <ele>134.212574</ele>
        <time>2025-09-07T23:40:49.784Z</time>
      </trkpt>
      <trkpt lat="48.718491" lon="2.055732">
        <ele>135.825271</ele>
        <time>2025-09-07T23:41:03.654Z</time>
      </trkpt>
      <trkpt lat="48.718404" lon="2.055302">
        <ele>138.097198</ele>
        <time>2025-09-07T23:41:24.430Z</time>
      </trkpt>
      <trkpt lat="48.718360" lon="2.054793">
        <ele>140.690320</ele>
        <time>2025-09-07T23:41:50.015Z</time>
      </trkpt>
      <trkpt lat="48.718317" lon="2.054504">
        <ele>142.186830</ele>
        <time>2025-09-07T23:42:05.550Z</time>
      </trkpt>
      <trkpt lat="48.718297" lon="2.054021">
        <ele>144.631446</ele>
        <time>2025-09-07T23:42:31.610Z</time>
      </trkpt>
      <trkpt lat="48.718271" lon="2.053489">
        <ele>146.986892</ele>
        <time>2025-09-07T23:43:00.899Z</time>
      </trkpt>
      <trkpt lat="48.718007" lon="2.052405">
        <ele>152.026295</ele>
        <time>2025-09-07T23:43:57.677Z</time>
      </trkpt>
      <trkpt lat="48.716809" lon="2.052586">
        <ele>158.509135</ele>
        <time>2025-09-07T23:45:10.340Z</time>
      </trkpt>
      <trkpt lat="48.716296" lon="2.052849">
        <ele>160.464672</ele>
        <time>2025-09-07T23:45:39.723Z</time>
      </trkpt>
      <trkpt lat="48.715567" lon="2.053419">
        <ele>163.320123</ele>
        <time>2025-09-07T23:46:23.247Z</time>
      </trkpt>
      <trkpt lat="48.714946" lon="2.053498">
        <ele>164.366123</ele>
        <time>2025-09-07T23:46:53.276Z</time>
      </trkpt>
      <trkpt lat="48.714249" lon="2.053385">
        <ele>165.542696</ele>
        <time>2025-09-07T23:47:23.780Z</time>
      </trkpt>
      <trkpt lat="48.713279" lon="2.053053">
        <ele>166.444270</ele>
        <time>2025-09-07T23:48:05.246Z</time>
      </trkpt>
      <trkpt lat="48.712978" lon="2.052849">
        <ele>166.557650</ele>
        <time>2025-09-07T23:48:13.568Z</time>
      </trkpt>
      <trkpt lat="48.712741" lon="2.052511">
        <ele>166.669555</ele>
        <time>2025-09-07T23:48:21.375Z</time>
      </trkpt>
      <trkpt lat="48.712479" lon="2.051513">
        <ele>166.670295</ele>
        <time>2025-09-07T23:48:36.818Z</time>
      </trkpt>
      <trkpt lat="48.712302" lon="2.050762">
        <ele>165.940336</ele>
        <time>2025-09-07T23:48:47.337Z</time>
      </trkpt>
      <trkpt lat="48.711809" lon="2.048973">
        <ele>163.978633</ele>
        <time>2025-09-07T23:49:11.285Z</time>
      </trkpt>
      <trkpt lat="48.711706" lon="2.047352">
        <ele>161.122209</ele>
        <time>2025-09-07T23:49:29.961Z</time>
      </trkpt>
      <trkpt lat="48.711686" lon="2.047112">
        <ele>160.697899</ele>
        <time>2025-09-07T23:49:32.710Z</time>
      </trkpt>
      <trkpt lat="48.711644" lon="2.046958">
        <ele>160.405615</ele>
        <time>2025-09-07T23:49:34.608Z</time>
      </trkpt>
      <trkpt lat="48.711564" lon="2.046667">
        <ele>159.852665</ele>
        <time>2025-09-07T23:49:38.218Z</time>
      </trkpt>
      <trkpt lat="48.711555" lon="2.046291">
        <ele>159.292294</ele>
        <time>2025-09-07T23:49:42.540Z</time>
      </trkpt>
      <trkpt lat="48.711583" lon="2.045541">
        <ele>158.306030</ele>
        <time>2025-09-07T23:49:51.288Z</time>
      </trkpt>
      <trkpt lat="48.711587" lon="2.045484">
        <ele>158.230771</ele>
        <time>2025-09-07T23:49:51.961Z</time>
      </trkpt>
      <trkpt lat="48.711654" lon="2.043307">
        <ele>154.488856</ele>
        <time>2025-09-07T23:50:19.348Z</time>
      </trkpt>
      <trkpt lat="48.711537" lon="2.042985">
        <ele>153.342645</ele>
        <time>2025-09-07T23:50:23.847Z</time>
      </trkpt>
      <trkpt lat="48.711550" lon="2.042816">
        <ele>152.812107</ele>
        <time>2025-09-07T23:50:25.903Z</time>
      </trkpt>
      <trkpt lat="48.711511" lon="2.042377">
        <ele>151.430883</ele>
        <time>2025-09-07T23:50:31.017Z</time>
      </trkpt>
      <trkpt lat="48.711427" lon="2.042079">
        <ele>150.420434</ele>
        <time>2025-09-07T23:50:34.443Z</time>
      </trkpt>
      <trkpt lat="48.711310" lon="2.041701">
        <ele>149.118532</ele>
        <time>2025-09-07T23:50:38.590Z</time>
      </trkpt>
      <trkpt lat="48.711305" lon="2.041484">
        <ele>148.441475</ele>
        <time>2025-09-07T23:50:40.714Z</time>
      </trkpt>
      <trkpt lat="48.711152" lon="2.041442">
        <ele>147.706699</ele>
        <time>2025-09-07T23:50:43.027Z</time>
      </trkpt>
      <trkpt lat="48.711092" lon="2.041444">
        <ele>147.265639</ele>
        <time>2025-09-07T23:50:43.911Z</time>
      </trkpt>
      <trkpt lat="48.710848" lon="2.041323">
        <ele>143.861252</ele>
        <time>2025-09-07T23:50:47.997Z</time>
      </trkpt>
      <trkpt lat="48.710487" lon="2.041100">
        <ele>138.691795</ele>
        <time>2025-09-07T23:50:53.967Z</time>
      </trkpt>
      <trkpt lat="48.710434" lon="2.041145">
        <ele>137.886201</ele>
        <time>2025-09-07T23:50:54.895Z</time>
      </trkpt>
      <trkpt lat="48.710121" lon="2.041433">
        <ele>133.030519</ele>
        <time>2025-09-07T23:51:20.529Z</time>
      </trkpt>
      <trkpt lat="48.710017" lon="2.041556">
        <ele>131.281156</ele>
        <time>2025-09-07T23:51:29.842Z</time>
      </trkpt>
      <trkpt lat="48.709776" lon="2.041591">
        <ele>128.070731</ele>
        <time>2025-09-07T23:51:46.798Z</time>
      </trkpt>
      <trkpt lat="48.709667" lon="2.041674">
        <ele>126.453127</ele>
        <time>2025-09-07T23:51:55.386Z</time>
      </trkpt>
      <trkpt lat="48.709613" lon="2.041793">
        <ele>125.189392</ele>
        <time>2025-09-07T23:52:02.054Z</time>
      </trkpt>
      <trkpt lat="48.709537" lon="2.042198">
        <ele>121.974182</ele>
        <time>2025-09-07T23:52:21.489Z</time>
      </trkpt>
      <trkpt lat="48.709537" lon="2.042198">
        <ele>121.974182</ele>
        <time>2025-09-07T23:52:21.500Z</time>
      </trkpt>
      <trkpt lat="48.709506" lon="2.042238">
        <ele>121.551863</ele>
        <time>2025-09-07T23:52:24.363Z</time>
      </trkpt>
      <trkpt lat="48.709484" lon="2.042204">
        <ele>121.225930</ele>
        <time>2025-09-07T23:52:26.564Z</time>
      </trkpt>
      <trkpt lat="48.709465" lon="2.041942">
        <ele>119.421833</ele>
        <time>2025-09-07T23:52:38.748Z</time>
      </trkpt>
      <trkpt lat="48.709474" lon="2.041656">
        <ele>117.462036</ele>
        <time>2025-09-07T23:52:51.921Z</time>
      </trkpt>
      <trkpt lat="48.709451" lon="2.041622">
        <ele>117.128759</ele>
        <time>2025-09-07T23:52:54.206Z</time>
      </trkpt>
      <trkpt lat="48.709423" lon="2.041634">
        <ele>116.826935</ele>
        <time>2025-09-07T23:52:56.210Z</time>
      </trkpt>
      <trkpt lat="48.709308" lon="2.041889">
        <ele>114.712866</ele>
        <time>2025-09-07T23:53:10.435Z</time>
      </trkpt>
      <trkpt lat="48.709227" lon="2.042320">
        <ele>111.645497</ele>
        <time>2025-09-07T23:53:31.073Z</time>
      </trkpt>
      <trkpt lat="48.709175" lon="2.042299">
        <ele>111.087296</ele>
        <time>2025-09-07T23:53:34.831Z</time>
      </trkpt>
      <trkpt lat="48.709095" lon="2.042058">
        <ele>109.240765</ele>
        <time>2025-09-07T23:53:47.276Z</time>
      </trkpt>
      <trkpt lat="48.709051" lon="2.041735">
        <ele>106.983307</ele>
        <time>2025-09-07T23:53:50.506Z</time>
      </trkpt>
      <trkpt lat="48.709028" lon="2.040934">
        <ele>102.805869</ele>
        <time>2025-09-07T23:53:58.357Z</time>
      </trkpt>
      <trkpt lat="48.709006" lon="2.040827">
        <ele>102.325367</ele>
        <time>2025-09-07T23:53:59.460Z</time>
      </trkpt>
      <trkpt lat="48.708923" lon="2.040736">
        <ele>101.659766</ele>
        <time>2025-09-07T23:54:00.968Z</time>
      </trkpt>
      <trkpt lat="48.709032" lon="2.040334">
        <ele>99.796414</ele>
        <time>2025-09-07T23:54:06.801Z</time>
      </trkpt>
      <trkpt lat="48.709033" lon="2.040233">
        <ele>99.363340</ele>
        <time>2025-09-07T23:54:08.172Z</time>
      </trkpt>
      <trkpt lat="48.708992" lon="2.040199">
        <ele>99.059680</ele>
        <time>2025-09-07T23:54:09.109Z</time>
      </trkpt>
      <trkpt lat="48.708825" lon="2.040213">
        <ele>97.972993</ele>
        <time>2025-09-07T23:54:12.562Z</time>
      </trkpt>
      <trkpt lat="48.708612" lon="2.040078">
        <ele>96.472933</ele>
        <time>2025-09-07T23:54:17.489Z</time>
      </trkpt>
      <trkpt lat="48.708665" lon="2.039907">
        <ele>95.662944</ele>
        <time>2025-09-07T23:54:19.454Z</time>
      </trkpt>
      <trkpt lat="48.708681" lon="2.039674">
        <ele>94.658584</ele>
        <time>2025-09-07T23:54:21.949Z</time>
      </trkpt>
      <trkpt lat="48.708669" lon="2.038916">
        <ele>92.208415</ele>
        <time>2025-09-07T23:54:30.027Z</time>
      </trkpt>
      <trkpt lat="48.708809" lon="2.038646">
        <ele>91.353698</ele>
        <time>2025-09-07T23:54:33.740Z</time>
      </trkpt>
      <trkpt lat="48.708847" lon="2.038598">
        <ele>91.167096</ele>
        <time>2025-09-07T23:54:34.559Z</time>
      </trkpt>
      <trkpt lat="48.709396" lon="2.037959">
        <ele>88.555926</ele>
        <time>2025-09-07T23:54:46.282Z</time>
      </trkpt>
      <trkpt lat="48.709365" lon="2.037968">
        <ele>88.436867</ele>
        <time>2025-09-07T23:54:46.810Z</time>
      </trkpt>
      <trkpt lat="48.709305" lon="2.037914">
        <ele>88.173641</ele>
        <time>2025-09-07T23:54:47.988Z</time>
      </trkpt>
      <trkpt lat="48.708982" lon="2.037005">
        <ele>85.971411</ele>
        <time>2025-09-07T23:54:59.498Z</time>
      </trkpt>
      <trkpt lat="48.708915" lon="2.036906">
        <ele>85.758204</ele>
        <time>2025-09-07T23:55:01.054Z</time>
      </trkpt>
      <trkpt lat="48.708744" lon="2.036821">
        <ele>85.348175</ele>
        <time>2025-09-07T23:55:04.117Z</time>
      </trkpt>
      <trkpt lat="48.708627" lon="2.036865">
        <ele>85.073518</ele>
        <time>2025-09-07T23:55:06.148Z</time>
      </trkpt>
      <trkpt lat="48.708276" lon="2.037101">
        <ele>84.198621</ele>
        <time>2025-09-07T23:55:12.895Z</time>
      </trkpt>
      <trkpt lat="48.707975" lon="2.037229">
        <ele>83.486335</ele>
        <time>2025-09-07T23:55:18.699Z</time>
      </trkpt>
      <trkpt lat="48.707806" lon="2.037253">
        <ele>83.099600</ele>
        <time>2025-09-07T23:55:22.013Z</time>
      </trkpt>
      <trkpt lat="48.707476" lon="2.037314">
        <ele>82.459915</ele>
        <time>2025-09-07T23:55:28.764Z</time>
      </trkpt>
      <trkpt lat="48.707425" lon="2.037354">
        <ele>82.496752</ele>
        <time>2025-09-07T23:55:29.943Z</time>
      </trkpt>
      <trkpt lat="48.707361" lon="2.037434">
        <ele>82.549971</ele>
        <time>2025-09-07T23:55:31.655Z</time>
      </trkpt>
      <trkpt lat="48.707271" lon="2.037234">
        <ele>82.652442</ele>
        <time>2025-09-07T23:55:35.028Z</time>
      </trkpt>
      <trkpt lat="48.706852" lon="2.036702">
        <ele>83.003090</ele>
        <time>2025-09-07T23:55:46.956Z</time>
      </trkpt>
      <trkpt lat="48.706644" lon="2.036357">
        <ele>83.200904</ele>
        <time>2025-09-07T23:55:54.845Z</time>
      </trkpt>
      <trkpt lat="48.706522" lon="2.035867">
        <ele>83.422599</ele>
        <time>2025-09-07T23:56:04.991Z</time>
      </trkpt>
      <trkpt lat="48.706473" lon="2.035508">
        <ele>83.577784</ele>
        <time>2025-09-07T23:56:12.633Z</time>
      </trkpt>
      <trkpt lat="48.706338" lon="2.034057">
        <ele>87.339755</ele>
        <time>2025-09-07T23:56:49.898Z</time>
      </trkpt>
      <trkpt lat="48.706468" lon="2.034007">
        <ele>87.868689</ele>
        <time>2025-09-07T23:56:55.968Z</time>
      </trkpt>
      <trkpt lat="48.707112" lon="2.033478">
        <ele>90.790479</ele>
        <time>2025-09-07T23:57:31.019Z</time>
      </trkpt>
      <trkpt lat="48.707112" lon="2.033478">
        <ele>90.790479</ele>
        <time>2025-09-07T23:57:31.028Z</time>
      </trkpt>
      <trkpt lat="48.707767" lon="2.033019">
        <ele>94.861457</ele>
        <time>2025-09-07T23:57:49.712Z</time>
      </trkpt>
      <trkpt lat="48.707890" lon="2.032931">
        <ele>95.628776</ele>
        <time>2025-09-07T23:57:53.234Z</time>
      </trkpt>
      <trkpt lat="48.708174" lon="2.032772">
        <ele>97.336733</ele>
        <time>2025-09-07T23:58:01.074Z</time>
      </trkpt>
      <trkpt lat="48.707777" lon="2.031967">
        <ele>101.278697</ele>
        <time>2025-09-07T23:58:18.242Z</time>
      </trkpt>
      <trkpt lat="48.707381" lon="2.031162">
        <ele>108.016806</ele>
        <time>2025-09-07T23:58:35.411Z</time>
      </trkpt>
      <trkpt lat="48.707381" lon="2.031162">
        <ele>108.016806</ele>
        <time>2025-09-07T23:58:35.451Z</time>
      </trkpt>
      <trkpt lat="48.707574" lon="2.030848">
        <ele>110.896498</ele>
        <time>2025-09-07T23:58:55.574Z</time>
      </trkpt>
      <trkpt lat="48.707724" lon="2.030503">
        <ele>113.669097</ele>
        <time>2025-09-07T23:59:16.808Z</time>
      </trkpt>
      <trkpt lat="48.707951" lon="2.029609">
        <ele>120.556562</ele>
        <time>2025-09-08T00:00:14.796Z</time>
      </trkpt>
      <trkpt lat="48.707897" lon="2.029216">
        <ele>124.514746</ele>
        <time>2025-09-08T00:00:43.383Z</time>
      </trkpt>
      <trkpt lat="48.707466" lon="2.027986">
        <ele>138.246673</ele>
        <time>2025-09-08T00:02:22.102Z</time>
      </trkpt>
      <trkpt lat="48.707291" lon="2.027239">
        <ele>146.025681</ele>
        <time>2025-09-08T00:03:09.995Z</time>
      </trkpt>
      <trkpt lat="48.707259" lon="2.026486">
        <ele>149.430917</ele>
        <time>2025-09-08T00:03:46.517Z</time>
      </trkpt>
      <trkpt lat="48.707216" lon="2.026267">
        <ele>150.462057</ele>
        <time>2025-09-08T00:03:55.782Z</time>
      </trkpt>
      <trkpt lat="48.707116" lon="2.025676">
        <ele>153.215452</ele>
        <time>2025-09-08T00:04:18.256Z</time>
      </trkpt>
      <trkpt lat="48.706955" lon="2.025106">
        <ele>156.013532</ele>
        <time>2025-09-08T00:04:37.010Z</time>
      </trkpt>
      <trkpt lat="48.706881" lon="2.024700">
        <ele>157.914375</ele>
        <time>2025-09-08T00:04:48.018Z</time>
      </trkpt>
      <trkpt lat="48.706851" lon="2.024269">
        <ele>158.750717</ele>
        <time>2025-09-08T00:04:58.754Z</time>
      </trkpt>
      <trkpt lat="48.706988" lon="2.022566">
        <ele>160.991517</ele>
        <time>2025-09-08T00:05:37.447Z</time>
      </trkpt>
      <trkpt lat="48.707080" lon="2.021756">
        <ele>161.916756</ele>
        <time>2025-09-08T00:05:54.691Z</time>
      </trkpt>
      <trkpt lat="48.707039" lon="2.020656">
        <ele>162.341346</ele>
        <time>2025-09-08T00:06:16.543Z</time>
      </trkpt>
      <trkpt lat="48.707028" lon="2.019478">
        <ele>162.795366</ele>
        <time>2025-09-08T00:06:38.682Z</time>
      </trkpt>
      <trkpt lat="48.707365" lon="2.017601">
        <ele>159.044331</ele>
        <time>2025-09-08T00:07:06.326Z</time>
      </trkpt>
      <trkpt lat="48.705926" lon="2.016885">
        <ele>149.576782</ele>
        <time>2025-09-08T00:07:47.565Z</time>
      </trkpt>
      <trkpt lat="48.705763" lon="2.016628">
        <ele>147.550828</ele>
        <time>2025-09-08T00:07:53.636Z</time>
      </trkpt>
      <trkpt lat="48.705706" lon="2.016285">
        <ele>145.540457</ele>
        <time>2025-09-08T00:07:59.673Z</time>
      </trkpt>
      <trkpt lat="48.705756" lon="2.015652">
        <ele>141.916993</ele>
        <time>2025-09-08T00:08:10.543Z</time>
      </trkpt>
      <trkpt lat="48.705699" lon="2.015491">
        <ele>140.834467</ele>
        <time>2025-09-08T00:08:13.632Z</time>
      </trkpt>
      <trkpt lat="48.705621" lon="2.015480">
        <ele>140.009955</ele>
        <time>2025-09-08T00:08:14.882Z</time>
      </trkpt>
      <trkpt lat="48.705480" lon="2.015716">
        <ele>137.798739</ele>
        <time>2025-09-08T00:08:18.248Z</time>
      </trkpt>
      <trkpt lat="48.705267" lon="2.016424">
        <ele>132.394137</ele>
        <time>2025-09-08T00:08:26.418Z</time>
      </trkpt>
      <trkpt lat="48.705140" lon="2.017057">
        <ele>127.798665</ele>
        <time>2025-09-08T00:08:33.279Z</time>
      </trkpt>
      <trkpt lat="48.704835" lon="2.017432">
        <ele>123.664670</ele>
        <time>2025-09-08T00:08:39.528Z</time>
      </trkpt>
      <trkpt lat="48.704481" lon="2.018141">
        <ele>118.340896</ele>
        <time>2025-09-08T00:08:48.916Z</time>
      </trkpt>
      <trkpt lat="48.704396" lon="2.018913">
        <ele>113.898643</ele>
        <time>2025-09-08T00:08:57.205Z</time>
      </trkpt>
      <trkpt lat="48.704326" lon="2.019342">
        <ele>111.390415</ele>
        <time>2025-09-08T00:09:02.006Z</time>
      </trkpt>
      <trkpt lat="48.703927" lon="2.019841">
        <ele>106.941030</ele>
        <time>2025-09-08T00:09:10.899Z</time>
      </trkpt>
      <trkpt lat="48.703763" lon="2.019917">
        <ele>105.876514</ele>
        <time>2025-09-08T00:09:13.932Z</time>
      </trkpt>
      <trkpt lat="48.703707" lon="2.018516">
        <ele>100.610303</ele>
        <time>2025-09-08T00:09:28.318Z</time>
      </trkpt>
      <trkpt lat="48.703608" lon="2.017677">
        <ele>97.412434</ele>
        <time>2025-09-08T00:09:37.168Z</time>
      </trkpt>
      <trkpt lat="48.703500" lon="2.017196">
        <ele>95.913826</ele>
        <time>2025-09-08T00:09:42.403Z</time>
      </trkpt>
      <trkpt lat="48.703464" lon="2.017009">
        <ele>95.498258</ele>
        <time>2025-09-08T00:09:44.402Z</time>
      </trkpt>
      <trkpt lat="48.703432" lon="2.016666">
        <ele>94.759234</ele>
        <time>2025-09-08T00:09:47.938Z</time>
      </trkpt>
      <trkpt lat="48.703467" lon="2.015598">
        <ele>92.477981</ele>
        <time>2025-09-08T00:09:59.214Z</time>
      </trkpt>
      <trkpt lat="48.703457" lon="2.014446">
        <ele>90.911495</ele>
        <time>2025-09-08T00:10:16.726Z</time>
      </trkpt>
      <trkpt lat="48.703483" lon="2.014162">
        <ele>91.183840</ele>
        <time>2025-09-08T00:10:22.701Z</time>
      </trkpt>
      <trkpt lat="48.703629" lon="2.013732">
        <ele>91.643168</ele>
        <time>2025-09-08T00:10:33.432Z</time>
      </trkpt>
      <trkpt lat="48.703837" lon="2.013285">
        <ele>92.162685</ele>
        <time>2025-09-08T00:10:45.973Z</time>
      </trkpt>
      <trkpt lat="48.703898" lon="2.013017">
        <ele>92.431961</ele>
        <time>2025-09-08T00:10:52.593Z</time>
      </trkpt>
      <trkpt lat="48.703948" lon="2.012559">
        <ele>92.872908</ele>
        <time>2025-09-08T00:11:03.597Z</time>
      </trkpt>
      <trkpt lat="48.704115" lon="2.009418">
        <ele>93.403961</ele>
        <time>2025-09-08T00:11:49.325Z</time>
      </trkpt>
      <trkpt lat="48.704116" lon="2.009418">
        <ele>93.404184</ele>
        <time>2025-09-08T00:11:49.327Z</time>
      </trkpt>
      <trkpt lat="48.704205" lon="2.008869">
        <ele>93.487352</ele>
        <time>2025-09-08T00:11:57.448Z</time>
      </trkpt>
      <trkpt lat="48.704066" lon="2.008849">
        <ele>93.518478</ele>
        <time>2025-09-08T00:12:01.581Z</time>
      </trkpt>
      <trkpt lat="48.703732" lon="2.008814">
        <ele>93.593112</ele>
        <time>2025-09-08T00:12:11.510Z</time>
      </trkpt>
      <trkpt lat="48.704066" lon="2.008849">
        <ele>93.667747</ele>
        <time>2025-09-08T00:12:21.897Z</time>
      </trkpt>
      <trkpt lat="48.704205" lon="2.008869">
        <ele>93.698873</ele>
        <time>2025-09-08T00:12:26.189Z</time>
      </trkpt>
      <trkpt lat="48.705837" lon="2.000573">
        <ele>96.705082</ele>
        <time>2025-09-08T00:14:50.434Z</time>
      </trkpt>
      <trkpt lat="48.706020" lon="1.999871">
        <ele>96.562670</ele>
        <time>2025-09-08T00:15:01.003Z</time>
      </trkpt>
      <trkpt lat="48.707184" lon="1.995843">
        <ele>95.155654</ele>
        <time>2025-09-08T00:16:00.500Z</time>
      </trkpt>
      <trkpt lat="48.707209" lon="1.995668">
        <ele>95.102641</ele>
        <time>2025-09-08T00:16:03.112Z</time>
      </trkpt>
      <trkpt lat="48.708293" lon="1.995127">
        <ele>96.030251</ele>
        <time>2025-09-08T00:16:32.204Z</time>
      </trkpt>
      <trkpt lat="48.708550" lon="1.994829">
        <ele>96.381090</ele>
        <time>2025-09-08T00:16:41.534Z</time>
      </trkpt>
      <trkpt lat="48.708860" lon="1.994471">
        <ele>96.803648</ele>
        <time>2025-09-08T00:16:52.965Z</time>
      </trkpt>
      <trkpt lat="48.709269" lon="1.994232">
        <ele>98.719256</ele>
        <time>2025-09-08T00:17:07.584Z</time>
      </trkpt>
      <trkpt lat="48.709783" lon="1.993823">
        <ele>102.209554</ele>
        <time>2025-09-08T00:17:38.492Z</time>
      </trkpt>
      <trkpt lat="48.709975" lon="1.993501">
        <ele>103.931267</ele>
        <time>2025-09-08T00:17:55.687Z</time>
      </trkpt>
      <trkpt lat="48.710375" lon="1.993567">
        <ele>106.350307</ele>
        <time>2025-09-08T00:18:24.539Z</time>
      </trkpt>
      <trkpt lat="48.710404" lon="1.993566">
        <ele>106.524702</ele>
        <time>2025-09-08T00:18:26.716Z</time>
      </trkpt>
      <trkpt lat="48.710783" lon="1.993555">
        <ele>109.275728</ele>
        <time>2025-09-08T00:18:56.601Z</time>
      </trkpt>
      <trkpt lat="48.710509" lon="1.993907">
        <ele>112.426776</ele>
        <time>2025-09-08T00:19:22.081Z</time>
      </trkpt>
      <trkpt lat="48.710458" lon="1.994050">
        <ele>113.367708</ele>
        <time>2025-09-08T00:19:30.486Z</time>
      </trkpt>
      <trkpt lat="48.710362" lon="1.994685">
        <ele>117.138690</ele>
        <time>2025-09-08T00:20:01.902Z</time>
      </trkpt>
      <trkpt lat="48.710267" lon="1.994865">
        <ele>118.472918</ele>
        <time>2025-09-08T00:20:12.395Z</time>
      </trkpt>
      <trkpt lat="48.710254" lon="1.994882">
        <ele>118.623546</ele>
        <time>2025-09-08T00:20:13.603Z</time>
      </trkpt>
      <trkpt lat="48.710040" lon="1.995153">
        <ele>121.069984</ele>
        <time>2025-09-08T00:20:31.197Z</time>
      </trkpt>
      <trkpt lat="48.709942" lon="1.995360">
        <ele>122.544724</ele>
        <time>2025-09-08T00:20:41.578Z</time>
      </trkpt>
      <trkpt lat="48.709909" lon="1.995604">
        <ele>123.786965</ele>
        <time>2025-09-08T00:20:50.943Z</time>
      </trkpt>
      <trkpt lat="48.709921" lon="1.996028">
        <ele>125.110395</ele>
        <time>2025-09-08T00:21:06.745Z</time>
      </trkpt>
      <trkpt lat="48.709879" lon="1.996255">
        <ele>125.845578</ele>
        <time>2025-09-08T00:21:15.434Z</time>
      </trkpt>
      <trkpt lat="48.709716" lon="1.996444">
        <ele>126.815500</ele>
        <time>2025-09-08T00:21:26.963Z</time>
      </trkpt>
      <trkpt lat="48.709589" lon="1.996519">
        <ele>127.459639</ele>
        <time>2025-09-08T00:21:34.016Z</time>
      </trkpt>
      <trkpt lat="48.709327" lon="1.996689">
        <ele>128.806522</ele>
        <time>2025-09-08T00:21:47.069Z</time>
      </trkpt>
      <trkpt lat="48.709251" lon="1.996767">
        <ele>129.240300</ele>
        <time>2025-09-08T00:21:50.787Z</time>
      </trkpt>
      <trkpt lat="48.709187" lon="1.996900">
        <ele>129.753623</ele>
        <time>2025-09-08T00:21:54.930Z</time>
      </trkpt>
      <trkpt lat="48.709130" lon="1.997271">
        <ele>130.941522</ele>
        <time>2025-09-08T00:22:02.951Z</time>
      </trkpt>
      <trkpt lat="48.709090" lon="1.997778">
        <ele>132.478952</ele>
        <time>2025-09-08T00:22:10.918Z</time>
      </trkpt>
      <trkpt lat="48.709053" lon="1.997919">
        <ele>132.898014</ele>
        <time>2025-09-08T00:22:13.581Z</time>
      </trkpt>
      <trkpt lat="48.708832" lon="1.998471">
        <ele>134.681129</ele>
        <time>2025-09-08T00:22:30.060Z</time>
      </trkpt>
      <trkpt lat="48.708723" lon="1.998556">
        <ele>135.194168</ele>
        <time>2025-09-08T00:22:35.328Z</time>
      </trkpt>
      <trkpt lat="48.708500" lon="1.998639">
        <ele>136.155198</ele>
        <time>2025-09-08T00:22:45.441Z</time>
      </trkpt>
      <trkpt lat="48.708425" lon="1.998721">
        <ele>136.542252</ele>
        <time>2025-09-08T00:22:49.630Z</time>
      </trkpt>
      <trkpt lat="48.708370" lon="1.998873">
        <ele>137.021007</ele>
        <time>2025-09-08T00:22:54.835Z</time>
      </trkpt>
      <trkpt lat="48.708220" lon="1.999708">
        <ele>139.410999</ele>
        <time>2025-09-08T00:23:21.122Z</time>
      </trkpt>
      <trkpt lat="48.708173" lon="1.999867">
        <ele>140.239544</ele>
        <time>2025-09-08T00:23:27.386Z</time>
      </trkpt>
      <trkpt lat="48.707897" lon="2.000443">
        <ele>144.404400</ele>
        <time>2025-09-08T00:23:56.791Z</time>
      </trkpt>
      <trkpt lat="48.707761" lon="2.000936">
        <ele>147.530796</ele>
        <time>2025-09-08T00:24:22.320Z</time>
      </trkpt>
      <trkpt lat="48.707754" lon="2.001102">
        <ele>148.504029</ele>
        <time>2025-09-08T00:24:30.702Z</time>
      </trkpt>
      <trkpt lat="48.707790" lon="2.001287">
        <ele>149.632530</ele>
        <time>2025-09-08T00:24:40.391Z</time>
      </trkpt>
      <trkpt lat="48.707914" lon="2.001426">
        <ele>151.000070</ele>
        <time>2025-09-08T00:24:52.197Z</time>
      </trkpt>
      <trkpt lat="48.708439" lon="2.001505">
        <ele>155.610474</ele>
        <time>2025-09-08T00:25:30.192Z</time>
      </trkpt>
      <trkpt lat="48.709063" lon="2.001551">
        <ele>158.642704</ele>
        <time>2025-09-08T00:26:10.628Z</time>
      </trkpt>
      <trkpt lat="48.709475" lon="2.001604">
        <ele>160.649580</ele>
        <time>2025-09-08T00:26:30.317Z</time>
      </trkpt>
      <trkpt lat="48.709348" lon="2.002257">
        <ele>162.829945</ele>
        <time>2025-09-08T00:26:45.470Z</time>
      </trkpt>
      <trkpt lat="48.709232" lon="2.002631">
        <ele>164.153509</ele>
        <time>2025-09-08T00:26:52.168Z</time>
      </trkpt>
      <trkpt lat="48.708861" lon="2.003795">
        <ele>164.720857</ele>
        <time>2025-09-08T00:27:11.544Z</time>
      </trkpt>
      <trkpt lat="48.708832" lon="2.004291">
        <ele>164.903443</ele>
        <time>2025-09-08T00:27:19.916Z</time>
      </trkpt>
      <trkpt lat="48.708909" lon="2.004927">
        <ele>165.140544</ele>
        <time>2025-09-08T00:27:31.755Z</time>
      </trkpt>
      <trkpt lat="48.709062" lon="2.005654">
        <ele>165.370235</ele>
        <time>2025-09-08T00:27:46.723Z</time>
      </trkpt>
      <trkpt lat="48.709260" lon="2.006265">
        <ele>165.542600</ele>
        <time>2025-09-08T00:27:59.200Z</time>
      </trkpt>
      <trkpt lat="48.709547" lon="2.006745">
        <ele>165.706618</ele>
        <time>2025-09-08T00:28:09.724Z</time>
      </trkpt>
      <trkpt lat="48.710043" lon="2.007272">
        <ele>165.939069</ele>
        <time>2025-09-08T00:28:23.307Z</time>
      </trkpt>
      <trkpt lat="48.710459" lon="2.007621">
        <ele>165.752095</ele>
        <time>2025-09-08T00:28:33.275Z</time>
      </trkpt>
      <trkpt lat="48.710626" lon="2.007642">
        <ele>165.679036</ele>
        <time>2025-09-08T00:28:36.796Z</time>
      </trkpt>
      <trkpt lat="48.711701" lon="2.008528">
        <ele>165.131027</ele>
        <time>2025-09-08T00:29:20.761Z</time>
      </trkpt>
      <trkpt lat="48.712045" lon="2.008337">
        <ele>164.848658</ele>
        <time>2025-09-08T00:29:33.683Z</time>
      </trkpt>
      <trkpt lat="48.713466" lon="2.007553">
        <ele>163.667649</ele>
        <time>2025-09-08T00:30:26.228Z</time>
      </trkpt>
      <trkpt lat="48.714128" lon="2.008892">
        <ele>162.678209</ele>
        <time>2025-09-08T00:31:05.527Z</time>
      </trkpt>
      <trkpt lat="48.715320" lon="2.010235">
        <ele>160.546413</ele>
        <time>2025-09-08T00:31:55.488Z</time>
      </trkpt>
      <trkpt lat="48.715905" lon="2.010649">
        <ele>159.402165</ele>
        <time>2025-09-08T00:32:16.246Z</time>
      </trkpt>
      <trkpt lat="48.716478" lon="2.010861">
        <ele>158.254285</ele>
        <time>2025-09-08T00:32:35.279Z</time>
      </trkpt>
      <trkpt lat="48.716646" lon="2.011049">
        <ele>157.823123</ele>
        <time>2025-09-08T00:32:42.003Z</time>
      </trkpt>
      <trkpt lat="48.716835" lon="2.011550">
        <ele>157.036966</ele>
        <time>2025-09-08T00:32:54.266Z</time>
      </trkpt>
      <trkpt lat="48.717012" lon="2.012301">
        <ele>155.950627</ele>
        <time>2025-09-08T00:33:04.258Z</time>
      </trkpt>
      <trkpt lat="48.717643" lon="2.013263">
        <ele>154.971024</ele>
        <time>2025-09-08T00:33:21.702Z</time>
      </trkpt>
      <trkpt lat="48.718016" lon="2.012743">
        <ele>154.706490</ele>
        <time>2025-09-08T00:33:32.572Z</time>
      </trkpt>
      <trkpt lat="48.718102" lon="2.012736">
        <ele>154.661535</ele>
        <time>2025-09-08T00:33:34.479Z</time>
      </trkpt>
      <trkpt lat="48.718123" lon="2.012564">
        <ele>154.601294</ele>
        <time>2025-09-08T00:33:37.142Z</time>
      </trkpt>
      <trkpt lat="48.718228" lon="2.011934">
        <ele>154.377515</ele>
        <time>2025-09-08T00:33:47.781Z</time>
      </trkpt>
      <trkpt lat="48.718414" lon="2.010968">
        <ele>154.967418</ele>
        <time>2025-09-08T00:34:07.050Z</time>
      </trkpt>
      <trkpt lat="48.718547" lon="2.010360">
        <ele>155.447126</ele>
        <time>2025-09-08T00:34:19.935Z</time>
      </trkpt>
      <trkpt lat="48.718789" lon="2.009165">
        <ele>156.364945</ele>
        <time>2025-09-08T00:34:43.019Z</time>
      </trkpt>
      <trkpt lat="48.718913" lon="2.008273">
        <ele>156.248727</ele>
        <time>2025-09-08T00:34:57.569Z</time>
      </trkpt>
      <trkpt lat="48.720480" lon="2.008777">
        <ele>156.286510</ele>
        <time>2025-09-08T00:35:53.882Z</time>
      </trkpt>
      <trkpt lat="48.720565" lon="2.008767">
        <ele>156.340798</ele>
        <time>2025-09-08T00:35:56.935Z</time>
      </trkpt>
      <trkpt lat="48.721235" lon="2.008874">
        <ele>156.769794</ele>
        <time>2025-09-08T00:36:22.557Z</time>
      </trkpt>
      <trkpt lat="48.721472" lon="2.008944">
        <ele>156.923547</ele>
        <time>2025-09-08T00:36:32.809Z</time>
      </trkpt>
      <trkpt lat="48.723363" lon="2.009632">
        <ele>161.130791</ele>
        <time>2025-09-08T00:38:10.716Z</time>
      </trkpt>
      <trkpt lat="48.724034" lon="2.009888">
        <ele>162.536413</ele>
        <time>2025-09-08T00:38:34.856Z</time>
      </trkpt>
      <trkpt lat="48.724071" lon="2.009785">
        <ele>162.673760</ele>
        <time>2025-09-08T00:38:37.399Z</time>
      </trkpt>
      <trkpt lat="48.724899" lon="2.010586">
        <ele>164.417460</ele>
        <time>2025-09-08T00:39:22.452Z</time>
      </trkpt>
      <trkpt lat="48.726017" lon="2.011563">
        <ele>165.106810</ele>
        <time>2025-09-08T00:40:14.944Z</time>
      </trkpt>
      <trkpt lat="48.727492" lon="2.013008">
        <ele>164.158173</ele>
        <time>2025-09-08T00:41:16.867Z</time>
      </trkpt>
      <trkpt lat="48.727966" lon="2.013627">
        <ele>163.448098</ele>
        <time>2025-09-08T00:41:38.243Z</time>
      </trkpt>
      <trkpt lat="48.728518" lon="2.015750">
        <ele>158.617092</ele>
        <time>2025-09-08T00:42:26.135Z</time>
      </trkpt>
      <trkpt lat="48.728757" lon="2.016182">
        <ele>157.301262</ele>
        <time>2025-09-08T00:42:36.765Z</time>
      </trkpt>
      <trkpt lat="48.728995" lon="2.016455">
        <ele>155.311139</ele>
        <time>2025-09-08T00:42:41.305Z</time>
      </trkpt>
      <trkpt lat="48.729147" lon="2.016562">
        <ele>153.803568</ele>
        <time>2025-09-08T00:42:43.791Z</time>
      </trkpt>
      <trkpt lat="48.729280" lon="2.016642">
        <ele>152.516402</ele>
        <time>2025-09-08T00:42:45.899Z</time>
      </trkpt>
      <trkpt lat="48.729644" lon="2.016742">
        <ele>149.188621</ele>
        <time>2025-09-08T00:42:51.217Z</time>
      </trkpt>
      <trkpt lat="48.729785" lon="2.016820">
        <ele>147.838417</ele>
        <time>2025-09-08T00:42:53.346Z</time>
      </trkpt>
      <trkpt lat="48.730174" lon="2.017134">
        <ele>143.873971</ele>
        <time>2025-09-08T00:42:59.551Z</time>
      </trkpt>
      <trkpt lat="48.730564" lon="2.017248">
        <ele>140.319311</ele>
        <time>2025-09-08T00:43:05.135Z</time>
      </trkpt>
      <trkpt lat="48.730708" lon="2.017324">
        <ele>139.015537</ele>
        <time>2025-09-08T00:43:07.291Z</time>
      </trkpt>
      <trkpt lat="48.731137" lon="2.017667">
        <ele>134.868450</ele>
        <time>2025-09-08T00:43:14.173Z</time>
      </trkpt>
      <trkpt lat="48.731355" lon="2.017807">
        <ele>132.844067</ele>
        <time>2025-09-08T00:43:17.563Z</time>
      </trkpt>
      <trkpt lat="48.731464" lon="2.017922">
        <ele>131.708576</ele>
        <time>2025-09-08T00:43:19.502Z</time>
      </trkpt>
      <trkpt lat="48.731862" lon="2.018456">
        <ele>127.164134</ele>
        <time>2025-09-08T00:43:27.448Z</time>
      </trkpt>
      <trkpt lat="48.732174" lon="2.018815">
        <ele>124.207384</ele>
        <time>2025-09-08T00:43:33.381Z</time>
      </trkpt>
      <trkpt lat="48.732225" lon="2.018639">
        <ele>123.411380</ele>
        <time>2025-09-08T00:43:35.417Z</time>
      </trkpt>
      <trkpt lat="48.732291" lon="2.018413">
        <ele>122.387944</ele>
        <time>2025-09-08T00:43:38.032Z</time>
      </trkpt>
      <trkpt lat="48.732376" lon="2.018197">
        <ele>121.346452</ele>
        <time>2025-09-08T00:43:40.705Z</time>
      </trkpt>
      <trkpt lat="48.732523" lon="2.018321">
        <ele>120.290382</ele>
        <time>2025-09-08T00:43:43.415Z</time>
      </trkpt>
      <trkpt lat="48.733225" lon="2.019558">
        <ele>113.632712</ele>
        <time>2025-09-08T00:44:00.716Z</time>
      </trkpt>
      <trkpt lat="48.733225" lon="2.019558">
        <ele>113.632712</ele>
        <time>2025-09-08T00:44:00.722Z</time>
      </trkpt>
      <trkpt lat="48.733398" lon="2.020865">
        <ele>109.289607</ele>
        <time>2025-09-08T00:44:23.492Z</time>
      </trkpt>
      <trkpt lat="48.733727" lon="2.022045">
        <ele>105.115805</ele>
        <time>2025-09-08T00:44:45.359Z</time>
      </trkpt>
      <trkpt lat="48.733727" lon="2.022045">
        <ele>105.115805</ele>
        <time>2025-09-08T00:44:45.403Z</time>
      </trkpt>
      <trkpt lat="48.734065" lon="2.022408">
        <ele>105.225228</ele>
        <time>2025-09-08T00:44:53.639Z</time>
      </trkpt>
      <trkpt lat="48.734103" lon="2.022456">
        <ele>105.238404</ele>
        <time>2025-09-08T00:44:54.507Z</time>
      </trkpt>
      <trkpt lat="48.734455" lon="2.022887">
        <ele>105.358942</ele>
        <time>2025-09-08T00:45:05.522Z</time>
      </trkpt>
      <trkpt lat="48.734692" lon="2.022924">
        <ele>105.422415</ele>
        <time>2025-09-08T00:45:15.157Z</time>
      </trkpt>
      <trkpt lat="48.735262" lon="2.022943">
        <ele>105.574305</ele>
        <time>2025-09-08T00:45:44.136Z</time>
      </trkpt>
      <trkpt lat="48.735717" lon="2.022888">
        <ele>106.567782</ele>
        <time>2025-09-08T00:46:07.308Z</time>
      </trkpt>
      <trkpt lat="48.736452" lon="2.022902">
        <ele>108.440739</ele>
        <time>2025-09-08T00:46:43.995Z</time>
      </trkpt>
      <trkpt lat="48.737519" lon="2.022582">
        <ele>110.851638</ele>
        <time>2025-09-08T00:47:38.187Z</time>
      </trkpt>
      <trkpt lat="48.738214" lon="2.022503">
        <ele>112.008927</ele>
        <time>2025-09-08T00:48:08.976Z</time>
      </trkpt>
      <trkpt lat="48.739325" lon="2.022681">
        <ele>115.963746</ele>
        <time>2025-09-08T00:48:55.357Z</time>
      </trkpt>
      <trkpt lat="48.739922" lon="2.022963">
        <ele>120.115481</ele>
        <time>2025-09-08T00:49:33.861Z</time>
      </trkpt>
      <trkpt lat="48.739936" lon="2.023254">
        <ele>121.393066</ele>
        <time>2025-09-08T00:49:49.124Z</time>
      </trkpt>
      <trkpt lat="48.739864" lon="2.023787">
        <ele>123.775367</ele>
        <time>2025-09-08T00:50:21.702Z</time>
      </trkpt>
      <trkpt lat="48.739756" lon="2.024186">
        <ele>126.142987</ele>
        <time>2025-09-08T00:50:50.943Z</time>
      </trkpt>
      <trkpt lat="48.739600" lon="2.024607">
        <ele>130.073575</ele>
        <time>2025-09-08T00:51:26.121Z</time>
      </trkpt>
      <trkpt lat="48.739456" lon="2.025159">
        <ele>134.905324</ele>
        <time>2025-09-08T00:52:09.087Z</time>
      </trkpt>
      <trkpt lat="48.739432" lon="2.025335">
        <ele>136.368182</ele>
        <time>2025-09-08T00:52:21.549Z</time>
      </trkpt>
      <trkpt lat="48.739444" lon="2.025529">
        <ele>137.954178</ele>
        <time>2025-09-08T00:52:34.892Z</time>
      </trkpt>
      <trkpt lat="48.739556" lon="2.025848">
        <ele>140.895717</ele>
        <time>2025-09-08T00:52:58.853Z</time>
      </trkpt>
      <trkpt lat="48.739557" lon="2.025848">
        <ele>140.908059</ele>
        <time>2025-09-08T00:52:58.898Z</time>
      </trkpt>
      <trkpt lat="48.739756" lon="2.026253">
        <ele>145.018933</ele>
        <time>2025-09-08T00:53:30.227Z</time>
      </trkpt>
      <trkpt lat="48.740016" lon="2.026531">
        <ele>148.227553</ele>
        <time>2025-09-08T00:53:58.354Z</time>
      </trkpt>
      <trkpt lat="48.740766" lon="2.027090">
        <ele>154.027079</ele>
        <time>2025-09-08T00:55:03.456Z</time>
      </trkpt>
      <trkpt lat="48.741146" lon="2.027529">
        <ele>157.342288</ele>
        <time>2025-09-08T00:55:34.906Z</time>
      </trkpt>
      <trkpt lat="48.741687" lon="2.028164">
        <ele>160.388181</ele>
        <time>2025-09-08T00:56:14.058Z</time>
      </trkpt>
      <trkpt lat="48.742297" lon="2.029116">
        <ele>161.973127</ele>
        <time>2025-09-08T00:56:51.872Z</time>
      </trkpt>
      <trkpt lat="48.741641" lon="2.030148">
        <ele>163.401847</ele>
        <time>2025-09-08T00:57:16.536Z</time>
      </trkpt>
      <trkpt lat="48.741455" lon="2.030509">
        <ele>163.707347</ele>
        <time>2025-09-08T00:57:24.609Z</time>
      </trkpt>
      <trkpt lat="48.741299" lon="2.030943">
        <ele>164.036964</ele>
        <time>2025-09-08T00:57:33.406Z</time>
      </trkpt>
      <trkpt lat="48.740871" lon="2.032334">
        <ele>165.014490</ele>
        <time>2025-09-08T00:58:01.822Z</time>
      </trkpt>
      <trkpt lat="48.740702" lon="2.032935">
        <ele>165.348588</ele>
        <time>2025-09-08T00:58:13.973Z</time>
      </trkpt>
      <trkpt lat="48.740508" lon="2.033756">
        <ele>165.794550</ele>
        <time>2025-09-08T00:58:29.647Z</time>
      </trkpt>
      <trkpt lat="48.740294" lon="2.034848">
        <ele>166.179135</ele>
        <time>2025-09-08T00:58:47.637Z</time>
      </trkpt>
      <trkpt lat="48.740021" lon="2.035401">
        <ele>165.946941</ele>
        <time>2025-09-08T00:58:57.395Z</time>
      </trkpt>
      <trkpt lat="48.739981" lon="2.035464">
        <ele>165.917546</ele>
        <time>2025-09-08T00:58:58.587Z</time>
      </trkpt>
      <trkpt lat="48.739788" lon="2.035964">
        <ele>165.722806</ele>
        <time>2025-09-08T00:59:06.445Z</time>
      </trkpt>
      <trkpt lat="48.739540" lon="2.036507">
        <ele>165.500787</ele>
        <time>2025-09-08T00:59:15.178Z</time>
      </trkpt>
      <trkpt lat="48.739007" lon="2.037165">
        <ele>165.101547</ele>
        <time>2025-09-08T00:59:29.018Z</time>
      </trkpt>
      <trkpt lat="48.738912" lon="2.037007">
        <ele>165.011212</ele>
        <time>2025-09-08T00:59:31.835Z</time>
      </trkpt>
      <trkpt lat="48.738701" lon="2.036747">
        <ele>164.837030</ele>
        <time>2025-09-08T00:59:37.315Z</time>
      </trkpt>
      <trkpt lat="48.738577" lon="2.036725">
        <ele>164.757048</ele>
        <time>2025-09-08T00:59:39.876Z</time>
      </trkpt>
      <trkpt lat="48.738425" lon="2.036776">
        <ele>164.657315</ele>
        <time>2025-09-08T00:59:43.066Z</time>
      </trkpt>
      <trkpt lat="48.737904" lon="2.037322">
        <ele>164.251577</ele>
        <time>2025-09-08T00:59:56.240Z</time>
      </trkpt>
      <trkpt lat="48.738117" lon="2.037805">
        <ele>164.227990</ele>
        <time>2025-09-08T01:00:04.494Z</time>
      </trkpt>
      <trkpt lat="48.738371" lon="2.038490">
        <ele>164.299662</ele>
        <time>2025-09-08T01:00:16.408Z</time>
      </trkpt>
      <trkpt lat="48.738883" lon="2.039509">
        <ele>164.416497</ele>
        <time>2025-09-08T01:00:36.724Z</time>
      </trkpt>
      <trkpt lat="48.739260" lon="2.040267">
        <ele>164.531725</ele>
        <time>2025-09-08T01:00:51.871Z</time>
      </trkpt>
      <trkpt lat="48.739973" lon="2.042090">
        <ele>164.765434</ele>
        <time>2025-09-08T01:01:24.262Z</time>
      </trkpt>
      <trkpt lat="48.740308" lon="2.042664">
        <ele>164.569003</ele>
        <time>2025-09-08T01:01:35.118Z</time>
      </trkpt>
      <trkpt lat="48.740420" lon="2.042614">
        <ele>164.523633</ele>
        <time>2025-09-08T01:01:37.573Z</time>
      </trkpt>
      <trkpt lat="48.740453" lon="2.042567">
        <ele>164.506040</ele>
        <time>2025-09-08T01:01:38.520Z</time>
      </trkpt>
      <trkpt lat="48.740707" lon="2.042613">
        <ele>164.406634</ele>
        <time>2025-09-08T01:01:43.885Z</time>
      </trkpt>
      <trkpt lat="48.741169" lon="2.042823">
        <ele>164.219210</ele>
        <time>2025-09-08T01:01:53.800Z</time>
      </trkpt>
      <trkpt lat="48.742956" lon="2.044326">
        <ele>163.018336</ele>
        <time>2025-09-08T01:02:35.939Z</time>
      </trkpt>
      <trkpt lat="48.743163" lon="2.044567">
        <ele>162.852919</ele>
        <time>2025-09-08T01:02:41.443Z</time>
      </trkpt>
      <trkpt lat="48.743341" lon="2.044903">
        <ele>162.671716</ele>
        <time>2025-09-08T01:02:47.406Z</time>
      </trkpt>
      <trkpt lat="48.743560" lon="2.045491">
        <ele>162.387800</ele>
        <time>2025-09-08T01:02:56.727Z</time>
      </trkpt>
      <trkpt lat="48.744317" lon="2.047167">
        <ele>161.301302</ele>
        <time>2025-09-08T01:03:24.036Z</time>
      </trkpt>
      <trkpt lat="48.744898" lon="2.048671">
        <ele>159.984974</ele>
        <time>2025-09-08T01:03:46.820Z</time>
      </trkpt>
      <trkpt lat="48.745075" lon="2.048983">
        <ele>159.404939</ele>
        <time>2025-09-08T01:03:51.938Z</time>
      </trkpt>
      <trkpt lat="48.745471" lon="2.049513">
        <ele>157.022907</ele>
        <time>2025-09-08T01:04:01.582Z</time>
      </trkpt>
      <trkpt lat="48.746383" lon="2.050900">
        <ele>150.832179</ele>
        <time>2025-09-08T01:04:21.820Z</time>
      </trkpt>
      <trkpt lat="48.746535" lon="2.050977">
        <ele>149.530038</ele>
        <time>2025-09-08T01:04:24.144Z</time>
      </trkpt>
      <trkpt lat="48.746745" lon="2.051020">
        <ele>147.808223</ele>
        <time>2025-09-08T01:04:27.169Z</time>
      </trkpt>
      <trkpt lat="48.747305" lon="2.050968">
        <ele>143.249484</ele>
        <time>2025-09-08T01:04:35.135Z</time>
      </trkpt>
      <trkpt lat="48.747481" lon="2.050874">
        <ele>141.733326</ele>
        <time>2025-09-08T01:04:37.757Z</time>
      </trkpt>
      <trkpt lat="48.747639" lon="2.050728">
        <ele>140.229981</ele>
        <time>2025-09-08T01:04:40.371Z</time>
      </trkpt>
      <trkpt lat="48.747769" lon="2.050530">
        <ele>138.732945</ele>
        <time>2025-09-08T01:04:43.021Z</time>
      </trkpt>
      <trkpt lat="48.748320" lon="2.049498">
        <ele>136.061346</ele>
        <time>2025-09-08T01:04:57.188Z</time>
      </trkpt>
      <trkpt lat="48.748353" lon="2.049447">
        <ele>135.992288</ele>
        <time>2025-09-08T01:04:58.098Z</time>
      </trkpt>
      <trkpt lat="48.748493" lon="2.049187">
        <ele>135.667864</ele>
        <time>2025-09-08T01:05:02.692Z</time>
      </trkpt>
      <trkpt lat="48.748598" lon="2.049080">
        <ele>135.482446</ele>
        <time>2025-09-08T01:05:05.501Z</time>
      </trkpt>
      <trkpt lat="48.748740" lon="2.049098">
        <ele>135.273584</ele>
        <time>2025-09-08T01:05:08.929Z</time>
      </trkpt>
      <trkpt lat="48.749077" lon="2.049387">
        <ele>134.706131</ele>
        <time>2025-09-08T01:05:19.931Z</time>
      </trkpt>
      <trkpt lat="48.749177" lon="2.049489">
        <ele>134.529491</ele>
        <time>2025-09-08T01:05:23.954Z</time>
      </trkpt>
      <trkpt lat="48.749275" lon="2.049672">
        <ele>134.417908</ele>
        <time>2025-09-08T01:05:30.019Z</time>
      </trkpt>
      <trkpt lat="48.749478" lon="2.050235">
        <ele>134.510284</ele>
        <time>2025-09-08T01:05:46.140Z</time>
      </trkpt>
      <trkpt lat="48.749772" lon="2.050864">
        <ele>134.621277</ele>
        <time>2025-09-08T01:05:58.360Z</time>
      </trkpt>
      <trkpt lat="48.749874" lon="2.050994">
        <ele>134.650367</ele>
        <time>2025-09-08T01:06:01.024Z</time>
      </trkpt>
      <trkpt lat="48.749955" lon="2.051090">
        <ele>134.672811</ele>
        <time>2025-09-08T01:06:03.031Z</time>
      </trkpt>
      <trkpt lat="48.749966" lon="2.051530">
        <ele>134.736198</ele>
        <time>2025-09-08T01:06:12.702Z</time>
      </trkpt>
      <trkpt lat="48.749850" lon="2.051703">
        <ele>134.771718</ele>
        <time>2025-09-08T01:06:18.139Z</time>
      </trkpt>
      <trkpt lat="48.749608" lon="2.051816">
        <ele>134.698640</ele>
        <time>2025-09-08T01:06:26.608Z</time>
      </trkpt>
      <trkpt lat="48.749349" lon="2.052050">
        <ele>134.495927</ele>
        <time>2025-09-08T01:06:36.775Z</time>
      </trkpt>
      <trkpt lat="48.749221" lon="2.052248">
        <ele>134.372989</ele>
        <time>2025-09-08T01:06:42.660Z</time>
      </trkpt>
      <trkpt lat="48.749157" lon="2.052505">
        <ele>134.251190</ele>
        <time>2025-09-08T01:06:48.460Z</time>
      </trkpt>
      <trkpt lat="48.748871" lon="2.054082">
        <ele>133.444030</ele>
        <time>2025-09-08T01:07:29.371Z</time>
      </trkpt>
      <trkpt lat="48.748902" lon="2.054409">
        <ele>133.097563</ele>
        <time>2025-09-08T01:07:38.499Z</time>
      </trkpt>
      <trkpt lat="48.749035" lon="2.054939">
        <ele>132.502834</ele>
        <time>2025-09-08T01:07:52.139Z</time>
      </trkpt>
      <trkpt lat="48.749047" lon="2.055257">
        <ele>132.168788</ele>
        <time>2025-09-08T01:07:59.244Z</time>
      </trkpt>
      <trkpt lat="48.749062" lon="2.055606">
        <ele>131.802000</ele>
        <time>2025-09-08T01:08:06.739Z</time>
      </trkpt>
      <trkpt lat="48.749031" lon="2.055810">
        <ele>131.582448</ele>
        <time>2025-09-08T01:08:11.103Z</time>
      </trkpt>
      <trkpt lat="48.748884" lon="2.056358">
        <ele>130.961995</ele>
        <time>2025-09-08T01:08:23.039Z</time>
      </trkpt>
      <trkpt lat="48.748571" lon="2.057188">
        <ele>129.712165</ele>
        <time>2025-09-08T01:08:42.092Z</time>
      </trkpt>
      <trkpt lat="48.748490" lon="2.057810">
        <ele>128.832797</ele>
        <time>2025-09-08T01:08:55.179Z</time>
      </trkpt>
      <trkpt lat="48.748453" lon="2.058291">
        <ele>128.161133</ele>
        <time>2025-09-08T01:09:05.516Z</time>
      </trkpt>
      <trkpt lat="48.748342" lon="2.058579">
        <ele>127.698446</ele>
        <time>2025-09-08T01:09:12.907Z</time>
      </trkpt>
      <trkpt lat="48.748037" lon="2.059210">
        <ele>126.876702</ele>
        <time>2025-09-08T01:09:31.367Z</time>
      </trkpt>
      <trkpt lat="48.747964" lon="2.059378">
        <ele>126.821395</ele>
        <time>2025-09-08T01:09:36.468Z</time>
      </trkpt>
      <trkpt lat="48.747876" lon="2.059702">
        <ele>126.725071</ele>
        <time>2025-09-08T01:09:45.496Z</time>
      </trkpt>
      <trkpt lat="48.747572" lon="2.060267">
        <ele>126.524612</ele>
        <time>2025-09-08T01:10:03.228Z</time>
      </trkpt>
      <trkpt lat="48.747498" lon="2.060449">
        <ele>126.465835</ele>
        <time>2025-09-08T01:10:08.271Z</time>
      </trkpt>
      <trkpt lat="48.747388" lon="2.060822">
        <ele>126.353513</ele>
        <time>2025-09-08T01:10:17.799Z</time>
      </trkpt>
      <trkpt lat="48.747371" lon="2.060928">
        <ele>126.323525</ele>
        <time>2025-09-08T01:10:20.354Z</time>
      </trkpt>
      <trkpt lat="48.747384" lon="2.061086">
        <ele>126.279755</ele>
        <time>2025-09-08T01:10:24.104Z</time>
      </trkpt>
      <trkpt lat="48.747389" lon="2.061185">
        <ele>126.252461</ele>
        <time>2025-09-08T01:10:26.434Z</time>
      </trkpt>
      <trkpt lat="48.747346" lon="2.061390">
        <ele>126.193326</ele>
        <time>2025-09-08T01:10:31.419Z</time>
      </trkpt>
      <trkpt lat="48.747294" lon="2.061499">
        <ele>126.211549</ele>
        <time>2025-09-08T01:10:34.515Z</time>
      </trkpt>
      <trkpt lat="48.747281" lon="2.061626">
        <ele>126.230963</ele>
        <time>2025-09-08T01:10:37.447Z</time>
      </trkpt>
      <trkpt lat="48.747205" lon="2.061796">
        <ele>126.261990</ele>
        <time>2025-09-08T01:10:42.161Z</time>
      </trkpt>
      <trkpt lat="48.747144" lon="2.062289">
        <ele>126.337762</ele>
        <time>2025-09-08T01:10:53.496Z</time>
      </trkpt>
      <trkpt lat="48.747016" lon="2.062448">
        <ele>126.375667</ele>
        <time>2025-09-08T01:10:59.068Z</time>
      </trkpt>
      <trkpt lat="48.746821" lon="2.062908">
        <ele>126.458277</ele>
        <time>2025-09-08T01:11:11.313Z</time>
      </trkpt>
      <trkpt lat="48.746770" lon="2.063095">
        <ele>126.488846</ele>
        <time>2025-09-08T01:11:16.166Z</time>
      </trkpt>
      <trkpt lat="48.746717" lon="2.063194">
        <ele>126.508110</ele>
        <time>2025-09-08T01:11:19.442Z</time>
      </trkpt>
      <trkpt lat="48.746647" lon="2.063199">
        <ele>126.524164</ele>
        <time>2025-09-08T01:11:22.215Z</time>
      </trkpt>
      <trkpt lat="48.746575" lon="2.063282">
        <ele>126.544883</ele>
        <time>2025-09-08T01:11:26.064Z</time>
      </trkpt>
      <trkpt lat="48.746303" lon="2.063400">
        <ele>126.797083</ele>
        <time>2025-09-08T01:11:39.799Z</time>
      </trkpt>
      <trkpt lat="48.746274" lon="2.063407">
        <ele>127.026244</ele>
        <time>2025-09-08T01:11:41.429Z</time>
      </trkpt>
      <trkpt lat="48.746148" lon="2.063388">
        <ele>128.014380</ele>
        <time>2025-09-08T01:11:48.558Z</time>
      </trkpt>
      <trkpt lat="48.746060" lon="2.063294">
        <ele>128.854372</ele>
        <time>2025-09-08T01:11:55.033Z</time>
      </trkpt>
      <trkpt lat="48.745975" lon="2.063110">
        <ele>130.010446</ele>
        <time>2025-09-08T01:12:04.652Z</time>
      </trkpt>
      <trkpt lat="48.745760" lon="2.062694">
        <ele>132.730307</ele>
        <time>2025-09-08T01:12:30.109Z</time>
      </trkpt>
      <trkpt lat="48.745188" lon="2.061996">
        <ele>138.459790</ele>
        <time>2025-09-08T01:13:34.486Z</time>
      </trkpt>
      <trkpt lat="48.745097" lon="2.061713">
        <ele>140.080017</ele>
        <time>2025-09-08T01:13:54.109Z</time>
      </trkpt>
      <trkpt lat="48.745025" lon="2.060834">
        <ele>143.951337</ele>
        <time>2025-09-08T01:14:46.729Z</time>
      </trkpt>
      <trkpt lat="48.744868" lon="2.060783">
        <ele>144.989091</ele>
        <time>2025-09-08T01:14:58.180Z</time>
      </trkpt>
      <trkpt lat="48.744746" lon="2.060788">
        <ele>145.777899</ele>
        <time>2025-09-08T01:15:06.418Z</time>
      </trkpt>
      <trkpt lat="48.744572" lon="2.060895">
        <ele>146.991455</ele>
        <time>2025-09-08T01:15:17.657Z</time>
      </trkpt>
      <trkpt lat="48.744139" lon="2.060696">
        <ele>149.915753</ele>
        <time>2025-09-08T01:15:39.861Z</time>
      </trkpt>
      <trkpt lat="48.743911" lon="2.060685">
        <ele>151.390127</ele>
        <time>2025-09-08T01:15:48.524Z</time>
      </trkpt>
      <trkpt lat="48.743811" lon="2.060803">
        <ele>152.209073</ele>
        <time>2025-09-08T01:15:52.374Z</time>
      </trkpt>
      <trkpt lat="48.743861" lon="2.060972">
        <ele>151.620419</ele>
        <time>2025-09-08T01:15:55.364Z</time>
      </trkpt>
      <trkpt lat="48.743856" lon="2.061212">
        <ele>150.719685</ele>
        <time>2025-09-08T01:15:58.583Z</time>
      </trkpt>
      <trkpt lat="48.743853" lon="2.061388">
        <ele>150.059256</ele>
        <time>2025-09-08T01:16:00.708Z</time>
      </trkpt>
      <trkpt lat="48.743851" lon="2.061503">
        <ele>149.627720</ele>
        <time>2025-09-08T01:16:02.036Z</time>
      </trkpt>
      <trkpt lat="48.743813" lon="2.061692">
        <ele>148.886523</ele>
        <time>2025-09-08T01:16:04.230Z</time>
      </trkpt>
      <trkpt lat="48.743698" lon="2.061956">
        <ele>147.699644</ele>
        <time>2025-09-08T01:16:07.536Z</time>
      </trkpt>
      <trkpt lat="48.743686" lon="2.062094">
        <ele>147.177498</ele>
        <time>2025-09-08T01:16:10.106Z</time>
      </trkpt>
      <trkpt lat="48.744003" lon="2.062494">
        <ele>144.831604</ele>
        <time>2025-09-08T01:16:21.079Z</time>
      </trkpt>
      <trkpt lat="48.744161" lon="2.062794">
        <ele>143.391381</ele>
        <time>2025-09-08T01:16:27.630Z</time>
      </trkpt>
      <trkpt lat="48.744267" lon="2.063099">
        <ele>142.098103</ele>
        <time>2025-09-08T01:16:33.417Z</time>
      </trkpt>
      <trkpt lat="48.744530" lon="2.063651">
        <ele>137.802934</ele>
        <time>2025-09-08T01:16:44.653Z</time>
      </trkpt>
      <trkpt lat="48.744530" lon="2.063651">
        <ele>137.802934</ele>
        <time>2025-09-08T01:16:44.656Z</time>
      </trkpt>
      <trkpt lat="48.744666" lon="2.063880">
        <ele>135.838888</ele>
        <time>2025-09-08T01:16:49.720Z</time>
      </trkpt>
      <trkpt lat="48.745474" lon="2.064612">
        <ele>126.742630</ele>
        <time>2025-09-08T01:17:13.852Z</time>
      </trkpt>
      <trkpt lat="48.745609" lon="2.064774">
        <ele>125.078858</ele>
        <time>2025-09-08T01:17:18.513Z</time>
      </trkpt>
      <trkpt lat="48.745650" lon="2.064864">
        <ele>124.658833</ele>
        <time>2025-09-08T01:17:20.507Z</time>
      </trkpt>
      <trkpt lat="48.745803" lon="2.065044">
        <ele>124.714975</ele>
        <time>2025-09-08T01:17:25.985Z</time>
      </trkpt>
      <trkpt lat="48.745853" lon="2.065095">
        <ele>124.732445</ele>
        <time>2025-09-08T01:17:26.948Z</time>
      </trkpt>
      <trkpt lat="48.745895" lon="2.065138">
        <ele>124.747137</ele>
        <time>2025-09-08T01:17:28.432Z</time>
      </trkpt>
      <trkpt lat="48.746081" lon="2.065296">
        <ele>124.808947</ele>
        <time>2025-09-08T01:17:34.877Z</time>
      </trkpt>
      <trkpt lat="48.746035" lon="2.065409">
        <ele>124.834335</ele>
        <time>2025-09-08T01:17:37.615Z</time>
      </trkpt>
      <trkpt lat="48.745928" lon="2.065805">
        <ele>124.916151</ele>
        <time>2025-09-08T01:17:47.404Z</time>
      </trkpt>
      <trkpt lat="48.745857" lon="2.065940">
        <ele>124.949163</ele>
        <time>2025-09-08T01:17:52.286Z</time>
      </trkpt>
      <trkpt lat="48.745590" lon="2.066290">
        <ele>125.051485</ele>
        <time>2025-09-08T01:18:11.009Z</time>
      </trkpt>
      <trkpt lat="48.745590" lon="2.066290">
        <ele>125.051485</ele>
        <time>2025-09-08T01:18:11.040Z</time>
      </trkpt>
      <trkpt lat="48.745438" lon="2.066538">
        <ele>125.116215</ele>
        <time>2025-09-08T01:18:25.327Z</time>
      </trkpt>
      <trkpt lat="48.745363" lon="2.066825">
        <ele>125.280050</ele>
        <time>2025-09-08T01:18:39.386Z</time>
      </trkpt>
      <trkpt lat="48.745678" lon="2.067426">
        <ele>130.558921</ele>
        <time>2025-09-08T01:19:20.186Z</time>
      </trkpt>
      <trkpt lat="48.746077" lon="2.067646">
        <ele>134.985985</ele>
        <time>2025-09-08T01:19:59.341Z</time>
      </trkpt>
      <trkpt lat="48.746259" lon="2.068184">
        <ele>139.143636</ele>
        <time>2025-09-08T01:20:40.202Z</time>
      </trkpt>
      <trkpt lat="48.746375" lon="2.068433">
        <ele>141.239918</ele>
        <time>2025-09-08T01:21:00.396Z</time>
      </trkpt>
      <trkpt lat="48.746387" lon="2.068614">
        <ele>142.490726</ele>
        <time>2025-09-08T01:21:12.381Z</time>
      </trkpt>
      <trkpt lat="48.746896" lon="2.069044">
        <ele>147.616369</ele>
        <time>2025-09-08T01:22:07.649Z</time>
      </trkpt>
      <trkpt lat="48.747552" lon="2.069601">
        <ele>153.850524</ele>
        <time>2025-09-08T01:23:09.971Z</time>
      </trkpt>
      <trkpt lat="48.747797" lon="2.069808">
        <ele>156.176088</ele>
        <time>2025-09-08T01:23:29.374Z</time>
      </trkpt>
      <trkpt lat="48.748240" lon="2.070227">
        <ele>159.268810</ele>
        <time>2025-09-08T01:23:53.729Z</time>
      </trkpt>
      <trkpt lat="48.749181" lon="2.071317">
        <ele>161.786906</ele>
        <time>2025-09-08T01:24:34.628Z</time>
      </trkpt>
      <trkpt lat="48.750177" lon="2.068834">
        <ele>163.298121</ele>
        <time>2025-09-08T01:25:19.690Z</time>
      </trkpt>
      <trkpt lat="48.750261" lon="2.068596">
        <ele>163.372851</ele>
        <time>2025-09-08T01:25:24.183Z</time>
      </trkpt>
      <trkpt lat="48.750487" lon="2.067666">
        <ele>163.705398</ele>
        <time>2025-09-08T01:25:41.355Z</time>
      </trkpt>
      <trkpt lat="48.750527" lon="2.067742">
        <ele>163.739287</ele>
        <time>2025-09-08T01:25:43.061Z</time>
      </trkpt>
      <trkpt lat="48.750672" lon="2.067876">
        <ele>163.829032</ele>
        <time>2025-09-08T01:25:47.618Z</time>
      </trkpt>
      <trkpt lat="48.750876" lon="2.067911">
        <ele>163.937544</ele>
        <time>2025-09-08T01:25:53.132Z</time>
      </trkpt>
      <trkpt lat="48.750949" lon="2.067824">
        <ele>163.986615</ele>
        <time>2025-09-08T01:25:55.572Z</time>
      </trkpt>
      <trkpt lat="48.751112" lon="2.067649">
        <ele>164.092168</ele>
        <time>2025-09-08T01:26:00.683Z</time>
      </trkpt>
      <trkpt lat="48.751212" lon="2.067644">
        <ele>164.145052</ele>
        <time>2025-09-08T01:26:03.167Z</time>
      </trkpt>
      <trkpt lat="48.751492" lon="2.067807">
        <ele>164.303572</ele>
        <time>2025-09-08T01:26:10.383Z</time>
      </trkpt>
      <trkpt lat="48.753764" lon="2.069593">
        <ele>163.994368</ele>
        <time>2025-09-08T01:27:05.575Z</time>
      </trkpt>
      <trkpt lat="48.755189" lon="2.070717">
        <ele>163.842838</ele>
        <time>2025-09-08T01:27:41.233Z</time>
      </trkpt>
      <trkpt lat="48.755598" lon="2.071006">
        <ele>163.797368</ele>
        <time>2025-09-08T01:27:51.004Z</time>
      </trkpt>
      <trkpt lat="48.755572" lon="2.071186">
        <ele>163.785125</ele>
        <time>2025-09-08T01:27:53.624Z</time>
      </trkpt>
      <trkpt lat="48.755646" lon="2.071246">
        <ele>163.776669</ele>
        <time>2025-09-08T01:27:55.434Z</time>
      </trkpt>
      <trkpt lat="48.755679" lon="2.071445">
        <ele>163.763036</ele>
        <time>2025-09-08T01:27:58.360Z</time>
      </trkpt>
      <trkpt lat="48.755739" lon="2.071579">
        <ele>163.752275</ele>
        <time>2025-09-08T01:28:00.681Z</time>
      </trkpt>
      <trkpt lat="48.755876" lon="2.071727">
        <ele>163.735325</ele>
        <time>2025-09-08T01:28:04.339Z</time>
      </trkpt>
      <trkpt lat="48.755952" lon="2.071761">
        <ele>163.727340</ele>
        <time>2025-09-08T01:28:06.028Z</time>
      </trkpt>
      <trkpt lat="48.756015" lon="2.071781">
        <ele>163.720853</ele>
        <time>2025-09-08T01:28:07.449Z</time>
      </trkpt>
      <trkpt lat="48.756296" lon="2.071676">
        <ele>163.737045</ele>
        <time>2025-09-08T01:28:13.740Z</time>
      </trkpt>
      <trkpt lat="48.757138" lon="2.072276">
        <ele>163.950445</ele>
        <time>2025-09-08T01:28:35.261Z</time>
      </trkpt>
      <trkpt lat="48.757942" lon="2.072914">
        <ele>164.171297</ele>
        <time>2025-09-08T01:28:57.651Z</time>
      </trkpt>
      <trkpt lat="48.758618" lon="2.073405">
        <ele>164.397222</ele>
        <time>2025-09-08T01:29:15.735Z</time>
      </trkpt>
      <trkpt lat="48.759226" lon="2.073707">
        <ele>164.590070</ele>
        <time>2025-09-08T01:29:30.692Z</time>
      </trkpt>
      <trkpt lat="48.759263" lon="2.073673">
        <ele>164.603110</ele>
        <time>2025-09-08T01:29:31.672Z</time>
      </trkpt>
      <trkpt lat="48.759314" lon="2.073641">
        <ele>164.619747</ele>
        <time>2025-09-08T01:29:32.937Z</time>
      </trkpt>
      <trkpt lat="48.759394" lon="2.073643">
        <ele>164.643865</ele>
        <time>2025-09-08T01:29:34.762Z</time>
      </trkpt>
      <trkpt lat="48.759465" lon="2.073700">
        <ele>164.659535</ele>
        <time>2025-09-08T01:29:36.566Z</time>
      </trkpt>
      <trkpt lat="48.759496" lon="2.073739">
        <ele>164.658334</ele>
        <time>2025-09-08T01:29:37.494Z</time>
      </trkpt>
      <trkpt lat="48.759565" lon="2.073699">
        <ele>164.656132</ele>
        <time>2025-09-08T01:29:39.135Z</time>
      </trkpt>
      <trkpt lat="48.760077" lon="2.073629">
        <ele>164.640806</ele>
        <time>2025-09-08T01:29:50.541Z</time>
      </trkpt>
      <trkpt lat="48.761525" lon="2.072885">
        <ele>164.445012</ele>
        <time>2025-09-08T01:30:24.267Z</time>
      </trkpt>
      <trkpt lat="48.761739" lon="2.073025">
        <ele>164.346937</ele>
        <time>2025-09-08T01:30:29.263Z</time>
      </trkpt>
      <trkpt lat="48.761939" lon="2.073034">
        <ele>164.262735</ele>
        <time>2025-09-08T01:30:33.511Z</time>
      </trkpt>
      <trkpt lat="48.762126" lon="2.073459">
        <ele>164.120987</ele>
        <time>2025-09-08T01:30:40.575Z</time>
      </trkpt>
      <trkpt lat="48.762401" lon="2.073734">
        <ele>163.982379</ele>
        <time>2025-09-08T01:30:47.386Z</time>
      </trkpt>
      <trkpt lat="48.762610" lon="2.074063">
        <ele>163.855631</ele>
        <time>2025-09-08T01:30:53.544Z</time>
      </trkpt>
      <trkpt lat="48.763434" lon="2.075680">
        <ele>162.887426</ele>
        <time>2025-09-08T01:31:20.817Z</time>
      </trkpt>
      <trkpt lat="48.765320" lon="2.079263">
        <ele>161.233549</ele>
        <time>2025-09-08T01:32:23.598Z</time>
      </trkpt>
      <trkpt lat="48.765667" lon="2.079951">
        <ele>161.011310</ele>
        <time>2025-09-08T01:32:35.915Z</time>
      </trkpt>
      <trkpt lat="48.765687" lon="2.080063">
        <ele>160.981542</ele>
        <time>2025-09-08T01:32:37.647Z</time>
      </trkpt>
      <trkpt lat="48.765632" lon="2.080607">
        <ele>160.840355</ele>
        <time>2025-09-08T01:32:45.739Z</time>
      </trkpt>
      <trkpt lat="48.765682" lon="2.080709">
        <ele>160.817030</ele>
        <time>2025-09-08T01:32:47.629Z</time>
      </trkpt>
      <trkpt lat="48.765700" lon="2.080745">
        <ele>160.810574</ele>
        <time>2025-09-08T01:32:48.301Z</time>
      </trkpt>
      <trkpt lat="48.765774" lon="2.080877">
        <ele>160.785817</ele>
        <time>2025-09-08T01:32:50.863Z</time>
      </trkpt>
      <trkpt lat="48.766103" lon="2.080865">
        <ele>160.714486</ele>
        <time>2025-09-08T01:32:58.260Z</time>
      </trkpt>
      <trkpt lat="48.766310" lon="2.080747">
        <ele>160.666556</ele>
        <time>2025-09-08T01:33:03.211Z</time>
      </trkpt>
      <trkpt lat="48.766397" lon="2.080697">
        <ele>160.646391</ele>
        <time>2025-09-08T01:33:05.273Z</time>
      </trkpt>
      <trkpt lat="48.770238" lon="2.082400">
        <ele>160.036526</ele>
        <time>2025-09-08T01:35:31.235Z</time>
      </trkpt>
      <trkpt lat="48.770286" lon="2.082422">
        <ele>160.036024</ele>
        <time>2025-09-08T01:35:33.151Z</time>
      </trkpt>
      <trkpt lat="48.770452" lon="2.082518">
        <ele>160.034246</ele>
        <time>2025-09-08T01:35:39.929Z</time>
      </trkpt>
      <trkpt lat="48.770508" lon="2.082559">
        <ele>160.033624</ele>
        <time>2025-09-08T01:35:42.280Z</time>
      </trkpt>
      <trkpt lat="48.770593" lon="2.082642">
        <ele>160.032613</ele>
        <time>2025-09-08T01:35:44.798Z</time>
      </trkpt>
      <trkpt lat="48.770699" lon="2.082903">
        <ele>160.064542</ele>
        <time>2025-09-08T01:35:49.868Z</time>
      </trkpt>
      <trkpt lat="48.770710" lon="2.082982">
        <ele>160.109263</ele>
        <time>2025-09-08T01:35:51.242Z</time>
      </trkpt>
      <trkpt lat="48.770769" lon="2.083029">
        <ele>160.165263</ele>
        <time>2025-09-08T01:35:52.944Z</time>
      </trkpt>
      <trkpt lat="48.770883" lon="2.083079">
        <ele>160.264988</ele>
        <time>2025-09-08T01:35:56.034Z</time>
      </trkpt>
      <trkpt lat="48.770939" lon="2.083111">
        <ele>160.315275</ele>
        <time>2025-09-08T01:35:57.594Z</time>
      </trkpt>
      <trkpt lat="48.771165" lon="2.082951">
        <ele>160.524856</ele>
        <time>2025-09-08T01:36:04.315Z</time>
      </trkpt>
      <trkpt lat="48.771227" lon="2.082877">
        <ele>160.591147</ele>
        <time>2025-09-08T01:36:06.461Z</time>
      </trkpt>
      <trkpt lat="48.771300" lon="2.082852">
        <ele>160.654038</ele>
        <time>2025-09-08T01:36:08.532Z</time>
      </trkpt>
      <trkpt lat="48.772001" lon="2.083138">
        <ele>161.264062</ele>
        <time>2025-09-08T01:36:28.365Z</time>
      </trkpt>
      <trkpt lat="48.772295" lon="2.083299">
        <ele>161.526729</ele>
        <time>2025-09-08T01:36:37.118Z</time>
      </trkpt>
      <trkpt lat="48.772501" lon="2.083454">
        <ele>161.687040</ele>
        <time>2025-09-08T01:36:43.548Z</time>
      </trkpt>
      <trkpt lat="48.772854" lon="2.083836">
        <ele>161.983806</ele>
        <time>2025-09-08T01:36:55.448Z</time>
      </trkpt>
      <trkpt lat="48.773016" lon="2.084084">
        <ele>162.141317</ele>
        <time>2025-09-08T01:37:01.596Z</time>
      </trkpt>
      <trkpt lat="48.773231" lon="2.084550">
        <ele>162.397914</ele>
        <time>2025-09-08T01:37:11.185Z</time>
      </trkpt>
      <trkpt lat="48.773332" lon="2.084844">
        <ele>162.547469</ele>
        <time>2025-09-08T01:37:16.538Z</time>
      </trkpt>
      <trkpt lat="48.773523" lon="2.085584">
        <ele>162.741817</ele>
        <time>2025-09-08T01:37:28.639Z</time>
      </trkpt>
      <trkpt lat="48.774320" lon="2.089438">
        <ele>161.855376</ele>
        <time>2025-09-08T01:38:25.955Z</time>
      </trkpt>
      <trkpt lat="48.774603" lon="2.090442">
        <ele>161.431451</ele>
        <time>2025-09-08T01:38:40.597Z</time>
      </trkpt>
      <trkpt lat="48.774632" lon="2.090431">
        <ele>161.396103</ele>
        <time>2025-09-08T01:38:42.689Z</time>
      </trkpt>
      <trkpt lat="48.774665" lon="2.090422">
        <ele>161.298397</ele>
        <time>2025-09-08T01:38:44.971Z</time>
      </trkpt>
      <trkpt lat="48.774697" lon="2.090632">
        <ele>160.884464</ele>
        <time>2025-09-08T01:38:54.860Z</time>
      </trkpt>
      <trkpt lat="48.774761" lon="2.090521">
        <ele>160.601226</ele>
        <time>2025-09-08T01:38:56.706Z</time>
      </trkpt>
      <trkpt lat="48.774840" lon="2.090709">
        <ele>160.173033</ele>
        <time>2025-09-08T01:38:59.445Z</time>
      </trkpt>
      <trkpt lat="48.775207" lon="2.091598">
        <ele>158.158461</ele>
        <time>2025-09-08T01:39:11.637Z</time>
      </trkpt>
      <trkpt lat="48.775237" lon="2.091675">
        <ele>157.986679</ele>
        <time>2025-09-08T01:39:12.646Z</time>
      </trkpt>
      <trkpt lat="48.775303" lon="2.091833">
        <ele>157.627432</ele>
        <time>2025-09-08T01:39:14.758Z</time>
      </trkpt>
      <trkpt lat="48.775381" lon="2.092124">
        <ele>157.024135</ele>
        <time>2025-09-08T01:39:18.226Z</time>
      </trkpt>
      <trkpt lat="48.775523" lon="2.093013">
        <ele>153.966858</ele>
        <time>2025-09-08T01:39:27.855Z</time>
      </trkpt>
      <trkpt lat="48.775665" lon="2.093431">
        <ele>151.772279</ele>
        <time>2025-09-08T01:39:32.615Z</time>
      </trkpt>
      <trkpt lat="48.775859" lon="2.093746">
        <ele>149.760288</ele>
        <time>2025-09-08T01:39:36.913Z</time>
      </trkpt>
      <trkpt lat="48.776501" lon="2.094649">
        <ele>143.561496</ele>
        <time>2025-09-08T01:39:49.701Z</time>
      </trkpt>
      <trkpt lat="48.776766" lon="2.094925">
        <ele>140.929236</ele>
        <time>2025-09-08T01:39:54.252Z</time>
      </trkpt>
      <trkpt lat="48.777356" lon="2.095378">
        <ele>135.472807</ele>
        <time>2025-09-08T01:40:03.682Z</time>
      </trkpt>
      <trkpt lat="48.777581" lon="2.095599">
        <ele>133.261099</ele>
        <time>2025-09-08T01:40:07.549Z</time>
      </trkpt>
      <trkpt lat="48.778004" lon="2.096025">
        <ele>129.071735</ele>
        <time>2025-09-08T01:40:15.461Z</time>
      </trkpt>
      <trkpt lat="48.778267" lon="2.096218">
        <ele>128.005604</ele>
        <time>2025-09-08T01:40:20.301Z</time>
      </trkpt>
      <trkpt lat="48.778298" lon="2.096277">
        <ele>127.880142</ele>
        <time>2025-09-08T01:40:21.157Z</time>
      </trkpt>
      <trkpt lat="48.778298" lon="2.096417">
        <ele>127.647370</ele>
        <time>2025-09-08T01:40:22.784Z</time>
      </trkpt>
      <trkpt lat="48.778265" lon="2.096497">
        <ele>127.490447</ele>
        <time>2025-09-08T01:40:23.899Z</time>
      </trkpt>
      <trkpt lat="48.778150" lon="2.096619">
        <ele>127.136418</ele>
        <time>2025-09-08T01:40:26.495Z</time>
      </trkpt>
      <trkpt lat="48.778007" lon="2.096699">
        <ele>126.751878</ele>
        <time>2025-09-08T01:40:29.336Z</time>
      </trkpt>
      <trkpt lat="48.777836" lon="2.096796">
        <ele>126.291270</ele>
        <time>2025-09-08T01:40:32.902Z</time>
      </trkpt>
      <trkpt lat="48.777799" lon="2.096819">
        <ele>126.190386</ele>
        <time>2025-09-08T01:40:33.687Z</time>
      </trkpt>
      <trkpt lat="48.777700" lon="2.096878">
        <ele>125.922028</ele>
        <time>2025-09-08T01:40:35.805Z</time>
      </trkpt>
      <trkpt lat="48.777388" lon="2.097082">
        <ele>125.064857</ele>
        <time>2025-09-08T01:40:42.587Z</time>
      </trkpt>
      <trkpt lat="48.777300" lon="2.097132">
        <ele>124.827771</ele>
        <time>2025-09-08T01:40:44.440Z</time>
      </trkpt>
      <trkpt lat="48.776890" lon="2.097360">
        <ele>123.711344</ele>
        <time>2025-09-08T01:40:53.165Z</time>
      </trkpt>
      <trkpt lat="48.776709" lon="2.097548">
        <ele>123.133570</ele>
        <time>2025-09-08T01:40:57.370Z</time>
      </trkpt>
      <trkpt lat="48.776326" lon="2.098249">
        <ele>121.552875</ele>
        <time>2025-09-08T01:41:08.303Z</time>
      </trkpt>
      <trkpt lat="48.775712" lon="2.099602">
        <ele>118.810428</ele>
        <time>2025-09-08T01:41:26.236Z</time>
      </trkpt>
      <trkpt lat="48.775643" lon="2.099732">
        <ele>118.571683</ele>
        <time>2025-09-08T01:41:29.621Z</time>
      </trkpt>
      <trkpt lat="48.775963" lon="2.100204">
        <ele>117.603125</ele>
        <time>2025-09-08T01:41:43.549Z</time>
      </trkpt>
      <trkpt lat="48.776054" lon="2.100342">
        <ele>117.323901</ele>
        <time>2025-09-08T01:41:47.630Z</time>
      </trkpt>
      <trkpt lat="48.776158" lon="2.100548">
        <ele>116.952742</ele>
        <time>2025-09-08T01:41:53.115Z</time>
      </trkpt>
      <trkpt lat="48.776205" lon="2.100695">
        <ele>116.719053</ele>
        <time>2025-09-08T01:41:56.614Z</time>
      </trkpt>
      <trkpt lat="48.776230" lon="2.101079">
        <ele>116.167154</ele>
        <time>2025-09-08T01:42:04.964Z</time>
      </trkpt>
      <trkpt lat="48.776161" lon="2.102078">
        <ele>115.419698</ele>
        <time>2025-09-08T01:42:28.948Z</time>
      </trkpt>
      <trkpt lat="48.776189" lon="2.102487">
        <ele>115.421127</ele>
        <time>2025-09-08T01:42:40.286Z</time>
      </trkpt>
      <trkpt lat="48.776258" lon="2.103000">
        <ele>115.422946</ele>
        <time>2025-09-08T01:42:54.555Z</time>
      </trkpt>
      <trkpt lat="48.776272" lon="2.103311">
        <ele>115.424029</ele>
        <time>2025-09-08T01:43:02.813Z</time>
      </trkpt>
      <trkpt lat="48.776251" lon="2.103687">
        <ele>115.425340</ele>
        <time>2025-09-08T01:43:12.502Z</time>
      </trkpt>
      <trkpt lat="48.776154" lon="2.104561">
        <ele>115.156405</ele>
        <time>2025-09-08T01:43:33.522Z</time>
      </trkpt>
      <trkpt lat="48.776059" lon="2.105057">
        <ele>114.620946</ele>
        <time>2025-09-08T01:43:44.974Z</time>
      </trkpt>
      <trkpt lat="48.775975" lon="2.105375">
        <ele>114.265792</ele>
        <time>2025-09-08T01:43:52.350Z</time>
      </trkpt>
      <trkpt lat="48.775821" lon="2.105727">
        <ele>113.827795</ele>
        <time>2025-09-08T01:44:01.311Z</time>
      </trkpt>
      <trkpt lat="48.775440" lon="2.106471">
        <ele>112.851025</ele>
        <time>2025-09-08T01:44:21.198Z</time>
      </trkpt>
      <trkpt lat="48.775367" lon="2.106667">
        <ele>112.617633</ele>
        <time>2025-09-08T01:44:26.030Z</time>
      </trkpt>
      <trkpt lat="48.775361" lon="2.106998">
        <ele>112.525149</ele>
        <time>2025-09-08T01:44:33.317Z</time>
      </trkpt>
      <trkpt lat="48.775658" lon="2.107919">
        <ele>112.285565</ele>
        <time>2025-09-08T01:44:57.235Z</time>
      </trkpt>
      <trkpt lat="48.775789" lon="2.108146">
        <ele>112.215062</ele>
        <time>2025-09-08T01:45:04.916Z</time>
      </trkpt>
      <trkpt lat="48.775881" lon="2.108340">
        <ele>112.159215</ele>
        <time>2025-09-08T01:45:11.162Z</time>
      </trkpt>
      <trkpt lat="48.776167" lon="2.109244">
        <ele>111.919109</ele>
        <time>2025-09-08T01:45:37.416Z</time>
      </trkpt>
      <trkpt lat="48.776462" lon="2.109939">
        <ele>111.694384</ele>
        <time>2025-09-08T01:45:57.689Z</time>
      </trkpt>
      <trkpt lat="48.776681" lon="2.110447">
        <ele>111.529368</ele>
        <time>2025-09-08T01:46:11.802Z</time>
      </trkpt>
      <trkpt lat="48.776877" lon="2.110987">
        <ele>111.361784</ele>
        <time>2025-09-08T01:46:25.861Z</time>
      </trkpt>
      <trkpt lat="48.776961" lon="2.111312">
        <ele>111.266885</ele>
        <time>2025-09-08T01:46:33.797Z</time>
      </trkpt>
      <trkpt lat="48.777080" lon="2.112136">
        <ele>111.021614</ele>
        <time>2025-09-08T01:46:53.233Z</time>
      </trkpt>
      <trkpt lat="48.777098" lon="2.112373">
        <ele>110.951039</ele>
        <time>2025-09-08T01:46:58.960Z</time>
      </trkpt>
      <trkpt lat="48.777109" lon="2.112807">
        <ele>110.822555</ele>
        <time>2025-09-08T01:47:09.272Z</time>
      </trkpt>
      <trkpt lat="48.777039" lon="2.113300">
        <ele>110.673366</ele>
        <time>2025-09-08T01:47:21.166Z</time>
      </trkpt>
      <trkpt lat="48.777027" lon="2.113541">
        <ele>110.601868</ele>
        <time>2025-09-08T01:47:26.908Z</time>
      </trkpt>
      <trkpt lat="48.777062" lon="2.113771">
        <ele>110.532037</ele>
        <time>2025-09-08T01:47:32.644Z</time>
      </trkpt>
      <trkpt lat="48.777070" lon="2.113908">
        <ele>110.491350</ele>
        <time>2025-09-08T01:47:36.063Z</time>
      </trkpt>
      <trkpt lat="48.777037" lon="2.114040">
        <ele>110.449585</ele>
        <time>2025-09-08T01:47:39.495Z</time>
      </trkpt>
      <trkpt lat="48.776949" lon="2.114254">
        <ele>110.369597</ele>
        <time>2025-09-08T01:47:45.613Z</time>
      </trkpt>
      <trkpt lat="48.776873" lon="2.114562">
        <ele>110.257823</ele>
        <time>2025-09-08T01:47:53.518Z</time>
      </trkpt>
      <trkpt lat="48.776864" lon="2.114833">
        <ele>110.165604</ele>
        <time>2025-09-08T01:48:00.006Z</time>
      </trkpt>
      <trkpt lat="48.776894" lon="2.115092">
        <ele>110.076231</ele>
        <time>2025-09-08T01:48:06.199Z</time>
      </trkpt>
      <trkpt lat="48.776953" lon="2.115327">
        <ele>109.990764</ele>
        <time>2025-09-08T01:48:12.033Z</time>
      </trkpt>
      <trkpt lat="48.777320" lon="2.116437">
        <ele>109.568703</ele>
        <time>2025-09-08T01:48:40.635Z</time>
      </trkpt>
      <trkpt lat="48.777386" lon="2.117007">
        <ele>109.433270</ele>
        <time>2025-09-08T01:48:54.288Z</time>
      </trkpt>
      <trkpt lat="48.777455" lon="2.117613">
        <ele>109.339185</ele>
        <time>2025-09-08T01:49:08.922Z</time>
      </trkpt>
      <trkpt lat="48.777536" lon="2.117809">
        <ele>109.303791</ele>
        <time>2025-09-08T01:49:14.474Z</time>
      </trkpt>
      <trkpt lat="48.777604" lon="2.118059">
        <ele>109.262414</ele>
        <time>2025-09-08T01:49:20.929Z</time>
      </trkpt>
      <trkpt lat="48.777626" lon="2.118261">
        <ele>109.231091</ele>
        <time>2025-09-08T01:49:25.815Z</time>
      </trkpt>
      <trkpt lat="48.777659" lon="2.118938">
        <ele>109.127236</ele>
        <time>2025-09-08T01:49:42.293Z</time>
      </trkpt>
      <trkpt lat="48.777683" lon="2.119074">
        <ele>109.105696</ele>
        <time>2025-09-08T01:49:45.771Z</time>
      </trkpt>
      <trkpt lat="48.777679" lon="2.119359">
        <ele>109.072558</ele>
        <time>2025-09-08T01:49:52.748Z</time>
      </trkpt>
      <trkpt lat="48.777613" lon="2.119803">
        <ele>109.196670</ele>
        <time>2025-09-08T01:50:04.125Z</time>
      </trkpt>
      <trkpt lat="48.777635" lon="2.120520">
        <ele>109.392393</ele>
        <time>2025-09-08T01:50:21.953Z</time>
      </trkpt>
      <trkpt lat="48.777683" lon="2.121373">
        <ele>109.625835</ele>
        <time>2025-09-08T01:50:44.371Z</time>
      </trkpt>
      <trkpt lat="48.777656" lon="2.121943">
        <ele>109.781664</ele>
        <time>2025-09-08T01:50:59.829Z</time>
      </trkpt>
      <trkpt lat="48.777430" lon="2.122653">
        <ele>109.660825</ele>
        <time>2025-09-08T01:51:13.926Z</time>
      </trkpt>
      <trkpt lat="48.777182" lon="2.123292">
        <ele>109.499017</ele>
        <time>2025-09-08T01:51:25.466Z</time>
      </trkpt>
      <trkpt lat="48.777127" lon="2.123457">
        <ele>109.458672</ele>
        <time>2025-09-08T01:51:28.261Z</time>
      </trkpt>
      <trkpt lat="48.777022" lon="2.123870">
        <ele>109.362085</ele>
        <time>2025-09-08T01:51:34.544Z</time>
      </trkpt>
      <trkpt lat="48.776915" lon="2.124130">
        <ele>109.295201</ele>
        <time>2025-09-08T01:51:38.545Z</time>
      </trkpt>
      <trkpt lat="48.776659" lon="2.124507">
        <ele>109.059084</ele>
        <time>2025-09-08T01:51:45.335Z</time>
      </trkpt>
      <trkpt lat="48.776317" lon="2.124813">
        <ele>108.513841</ele>
        <time>2025-09-08T01:51:52.851Z</time>
      </trkpt>
      <trkpt lat="48.775921" lon="2.125047">
        <ele>107.930224</ele>
        <time>2025-09-08T01:52:00.871Z</time>
      </trkpt>
      <trkpt lat="48.775872" lon="2.125105">
        <ele>107.844880</ele>
        <time>2025-09-08T01:52:02.072Z</time>
      </trkpt>
      <trkpt lat="48.775823" lon="2.125163">
        <ele>107.759535</ele>
        <time>2025-09-08T01:52:03.282Z</time>
      </trkpt>
      <trkpt lat="48.775769" lon="2.125361">
        <ele>107.565599</ele>
        <time>2025-09-08T01:52:06.053Z</time>
      </trkpt>
      <trkpt lat="48.775799" lon="2.125841">
        <ele>107.129235</ele>
        <time>2025-09-08T01:52:12.564Z</time>
      </trkpt>
      <trkpt lat="48.775851" lon="2.126179">
        <ele>106.815109</ele>
        <time>2025-09-08T01:52:17.608Z</time>
      </trkpt>
      <trkpt lat="48.775961" lon="2.126552">
        <ele>106.958405</ele>
        <time>2025-09-08T01:52:24.628Z</time>
      </trkpt>
      <trkpt lat="48.775971" lon="2.126708">
        <ele>107.059849</ele>
        <time>2025-09-08T01:52:27.666Z</time>
      </trkpt>
      <trkpt lat="48.775931" lon="2.126961">
        <ele>107.228245</ele>
        <time>2025-09-08T01:52:32.850Z</time>
      </trkpt>
      <trkpt lat="48.775894" lon="2.127021">
        <ele>107.281430</ele>
        <time>2025-09-08T01:52:34.422Z</time>
      </trkpt>
      <trkpt lat="48.776048" lon="2.127327">
        <ele>107.530630</ele>
        <time>2025-09-08T01:52:41.742Z</time>
      </trkpt>
      <trkpt lat="48.776218" lon="2.127606">
        <ele>107.776566</ele>
        <time>2025-09-08T01:52:48.556Z</time>
      </trkpt>
      <trkpt lat="48.776374" lon="2.127801">
        <ele>107.975068</ele>
        <time>2025-09-08T01:52:54.053Z</time>
      </trkpt>
      <trkpt lat="48.776708" lon="2.127963">
        <ele>108.319449</ele>
        <time>2025-09-08T01:53:03.771Z</time>
      </trkpt>
      <trkpt lat="48.776642" lon="2.128901">
        <ele>109.872041</ele>
        <time>2025-09-08T01:53:23.220Z</time>
      </trkpt>
      <trkpt lat="48.776608" lon="2.129646">
        <ele>111.441971</ele>
        <time>2025-09-08T01:53:39.613Z</time>
      </trkpt>
      <trkpt lat="48.777986" lon="2.129558">
        <ele>116.933715</ele>
        <time>2025-09-08T01:54:42.336Z</time>
      </trkpt>
      <trkpt lat="48.778234" lon="2.129671">
        <ele>118.325946</ele>
        <time>2025-09-08T01:54:56.137Z</time>
      </trkpt>
      <trkpt lat="48.778312" lon="2.129735">
        <ele>118.802706</ele>
        <time>2025-09-08T01:55:00.752Z</time>
      </trkpt>
      <trkpt lat="48.778830" lon="2.130487">
        <ele>122.657049</ele>
        <time>2025-09-08T01:55:37.872Z</time>
      </trkpt>
      <trkpt lat="48.778923" lon="2.130586">
        <ele>123.267841</ele>
        <time>2025-09-08T01:55:43.792Z</time>
      </trkpt>
      <trkpt lat="48.779249" lon="2.130819">
        <ele>124.935993</ele>
        <time>2025-09-08T01:56:01.323Z</time>
      </trkpt>
      <trkpt lat="48.780324" lon="2.131596">
        <ele>129.997051</ele>
        <time>2025-09-08T01:56:52.544Z</time>
      </trkpt>
      <trkpt lat="48.780746" lon="2.131533">
        <ele>131.751974</ele>
        <time>2025-09-08T01:57:09.634Z</time>
      </trkpt>
      <trkpt lat="48.781719" lon="2.132068">
        <ele>135.262081</ele>
        <time>2025-09-08T01:57:48.724Z</time>
      </trkpt>
      <trkpt lat="48.782765" lon="2.132303">
        <ele>139.113966</ele>
        <time>2025-09-08T01:58:30.504Z</time>
      </trkpt>
      <trkpt lat="48.784340" lon="2.132610">
        <ele>145.572451</ele>
        <time>2025-09-08T01:59:41.603Z</time>
      </trkpt>
      <trkpt lat="48.785260" lon="2.132805">
        <ele>148.518610</ele>
        <time>2025-09-08T02:00:18.408Z</time>
      </trkpt>
      <trkpt lat="48.785652" lon="2.132854">
        <ele>149.766073</ele>
        <time>2025-09-08T02:00:32.039Z</time>
      </trkpt>
      <trkpt lat="48.785874" lon="2.132823">
        <ele>150.473135</ele>
        <time>2025-09-08T02:00:39.482Z</time>
      </trkpt>
      <trkpt lat="48.786179" lon="2.132890">
        <ele>151.381913</ele>
        <time>2025-09-08T02:00:49.618Z</time>
      </trkpt>
      <trkpt lat="48.786287" lon="2.132932">
        <ele>151.695845</ele>
        <time>2025-09-08T02:00:53.413Z</time>
      </trkpt>
      <trkpt lat="48.786351" lon="2.132942">
        <ele>151.877010</ele>
        <time>2025-09-08T02:00:55.607Z</time>
      </trkpt>
      <trkpt lat="48.786687" lon="2.132996">
        <ele>152.828412</ele>
        <time>2025-09-08T02:01:07.154Z</time>
      </trkpt>
      <trkpt lat="48.786947" lon="2.133176">
        <ele>153.633089</ele>
        <time>2025-09-08T02:01:17.328Z</time>
      </trkpt>
      <trkpt lat="48.787044" lon="2.133178">
        <ele>153.906248</ele>
        <time>2025-09-08T02:01:20.930Z</time>
      </trkpt>
      <trkpt lat="48.787123" lon="2.133120">
        <ele>154.153356</ele>
        <time>2025-09-08T02:01:24.257Z</time>
      </trkpt>
      <trkpt lat="48.787458" lon="2.133202">
        <ele>155.108842</ele>
        <time>2025-09-08T02:01:37.302Z</time>
      </trkpt>
      <trkpt lat="48.787602" lon="2.133245">
        <ele>155.522092</ele>
        <time>2025-09-08T02:01:43.118Z</time>
      </trkpt>
      <trkpt lat="48.787679" lon="2.133268">
        <ele>155.743068</ele>
        <time>2025-09-08T02:01:46.199Z</time>
      </trkpt>
      <trkpt lat="48.787787" lon="2.133467">
        <ele>156.348913</ele>
        <time>2025-09-08T02:01:53.137Z</time>
      </trkpt>
      <trkpt lat="48.787797" lon="2.133477">
        <ele>156.396156</ele>
        <time>2025-09-08T02:01:53.618Z</time>
      </trkpt>
      <trkpt lat="48.788417" lon="2.133794">
        <ele>158.977127</ele>
        <time>2025-09-08T02:02:21.407Z</time>
      </trkpt>
      <trkpt lat="48.788681" lon="2.133996">
        <ele>160.143470</ele>
        <time>2025-09-08T02:02:34.160Z</time>
      </trkpt>
      <trkpt lat="48.788728" lon="2.134032">
        <ele>160.351158</ele>
        <time>2025-09-08T02:02:36.431Z</time>
      </trkpt>
      <trkpt lat="48.788697" lon="2.134211">
        <ele>160.832209</ele>
        <time>2025-09-08T02:02:43.551Z</time>
      </trkpt>
      <trkpt lat="48.788762" lon="2.134381">
        <ele>161.343080</ele>
        <time>2025-09-08T02:02:51.058Z</time>
      </trkpt>
      <trkpt lat="48.788793" lon="2.134780">
        <ele>162.387322</ele>
        <time>2025-09-08T02:03:06.059Z</time>
      </trkpt>
      <trkpt lat="48.788833" lon="2.134929">
        <ele>162.805508</ele>
        <time>2025-09-08T02:03:12.046Z</time>
      </trkpt>
      <trkpt lat="48.789454" lon="2.135984">
        <ele>166.111551</ele>
        <time>2025-09-08T02:04:04.905Z</time>
      </trkpt>
      <trkpt lat="48.789475" lon="2.136115">
        <ele>166.424646</ele>
        <time>2025-09-08T02:04:09.979Z</time>
      </trkpt>
      <trkpt lat="48.789389" lon="2.136335">
        <ele>167.018710</ele>
        <time>2025-09-08T02:04:19.435Z</time>
      </trkpt>
      <trkpt lat="48.789075" lon="2.136698">
        <ele>168.409987</ele>
        <time>2025-09-08T02:04:41.005Z</time>
      </trkpt>
      <trkpt lat="48.788878" lon="2.136983">
        <ele>169.339511</ele>
        <time>2025-09-08T02:04:55.073Z</time>
      </trkpt>
      <trkpt lat="48.788768" lon="2.137289">
        <ele>169.352291</ele>
        <time>2025-09-08T02:05:06.297Z</time>
      </trkpt>
      <trkpt lat="48.788557" lon="2.137725">
        <ele>169.372124</ele>
        <time>2025-09-08T02:05:22.292Z</time>
      </trkpt>
      <trkpt lat="48.788505" lon="2.137940">
        <ele>169.380520</ele>
        <time>2025-09-08T02:05:28.442Z</time>
      </trkpt>
      <trkpt lat="48.788505" lon="2.137940">
        <ele>169.380520</ele>
        <time>2025-09-08T02:05:28.445Z</time>
      </trkpt>
      <trkpt lat="48.788619" lon="2.138406">
        <ele>169.398744</ele>
        <time>2025-09-08T02:05:40.836Z</time>
      </trkpt>
      <trkpt lat="48.788636" lon="2.138572">
        <ele>169.404902</ele>
        <time>2025-09-08T02:05:44.815Z</time>
      </trkpt>
      <trkpt lat="48.788581" lon="2.138761">
        <ele>169.412477</ele>
        <time>2025-09-08T02:05:49.549Z</time>
      </trkpt>
      <trkpt lat="48.788473" lon="2.139000">
        <ele>169.423102</ele>
        <time>2025-09-08T02:05:55.964Z</time>
      </trkpt>
      <trkpt lat="48.788514" lon="2.139053">
        <ele>169.426098</ele>
        <time>2025-09-08T02:05:57.714Z</time>
      </trkpt>
      <trkpt lat="48.788772" lon="2.139155">
        <ele>169.345245</ele>
        <time>2025-09-08T02:06:06.212Z</time>
      </trkpt>
      <trkpt lat="48.788854" lon="2.139273">
        <ele>169.020110</ele>
        <time>2025-09-08T02:06:09.744Z</time>
      </trkpt>
      <trkpt lat="48.788753" lon="2.139783">
        <ele>168.010542</ele>
        <time>2025-09-08T02:06:20.369Z</time>
      </trkpt>
      <trkpt lat="48.788745" lon="2.140088">
        <ele>167.431879</ele>
        <time>2025-09-08T02:06:26.327Z</time>
      </trkpt>
      <trkpt lat="48.788822" lon="2.140312">
        <ele>166.952905</ele>
        <time>2025-09-08T02:06:31.327Z</time>
      </trkpt>
      <trkpt lat="48.789223" lon="2.141024">
        <ele>165.177168</ele>
        <time>2025-09-08T02:06:50.325Z</time>
      </trkpt>
      <trkpt lat="48.789275" lon="2.141153">
        <ele>164.890475</ele>
        <time>2025-09-08T02:06:53.485Z</time>
      </trkpt>
      <trkpt lat="48.789322" lon="2.141421">
        <ele>164.364727</ele>
        <time>2025-09-08T02:06:59.329Z</time>
      </trkpt>
      <trkpt lat="48.789334" lon="2.141641">
        <ele>163.972301</ele>
        <time>2025-09-08T02:07:04.138Z</time>
      </trkpt>
      <trkpt lat="48.789311" lon="2.143805">
        <ele>160.206277</ele>
        <time>2025-09-08T02:07:52.368Z</time>
      </trkpt>
      <trkpt lat="48.790213" lon="2.145612">
        <ele>150.911998</ele>
        <time>2025-09-08T02:08:33.360Z</time>
      </trkpt>
      <trkpt lat="48.790465" lon="2.146264">
        <ele>147.432833</ele>
        <time>2025-09-08T02:08:46.380Z</time>
      </trkpt>
      <trkpt lat="48.790634" lon="2.146721">
        <ele>145.084405</ele>
        <time>2025-09-08T02:08:55.644Z</time>
      </trkpt>
      <trkpt lat="48.790874" lon="2.147144">
        <ele>142.599927</ele>
        <time>2025-09-08T02:09:01.791Z</time>
      </trkpt>
      <trkpt lat="48.790677" lon="2.147330">
        <ele>141.032670</ele>
        <time>2025-09-08T02:09:05.223Z</time>
      </trkpt>
      <trkpt lat="48.790237" lon="2.147774">
        <ele>137.463403</ele>
        <time>2025-09-08T02:09:13.150Z</time>
      </trkpt>
      <trkpt lat="48.790277" lon="2.147851">
        <ele>137.026992</ele>
        <time>2025-09-08T02:09:14.121Z</time>
      </trkpt>
      <trkpt lat="48.790307" lon="2.147904">
        <ele>136.716009</ele>
        <time>2025-09-08T02:09:14.836Z</time>
      </trkpt>
      <trkpt lat="48.790387" lon="2.148044">
        <ele>135.891213</ele>
        <time>2025-09-08T02:09:16.735Z</time>
      </trkpt>
      <trkpt lat="48.790815" lon="2.148780">
        <ele>133.186017</ele>
        <time>2025-09-08T02:09:27.460Z</time>
      </trkpt>
      <trkpt lat="48.790863" lon="2.148861">
        <ele>132.947492</ele>
        <time>2025-09-08T02:09:28.667Z</time>
      </trkpt>
      <trkpt lat="48.790910" lon="2.148942">
        <ele>132.711177</ele>
        <time>2025-09-08T02:09:29.854Z</time>
      </trkpt>
      <trkpt lat="48.791333" lon="2.149668">
        <ele>130.589271</ele>
        <time>2025-09-08T02:09:40.937Z</time>
      </trkpt>
      <trkpt lat="48.791672" lon="2.150255">
        <ele>128.880248</ele>
        <time>2025-09-08T02:09:50.216Z</time>
      </trkpt>
      <trkpt lat="48.791803" lon="2.150482">
        <ele>128.258362</ele>
        <time>2025-09-08T02:09:53.799Z</time>
      </trkpt>
      <trkpt lat="48.791951" lon="2.150735">
        <ele>127.565498</ele>
        <time>2025-09-08T02:09:57.664Z</time>
      </trkpt>
      <trkpt lat="48.792287" lon="2.151309">
        <ele>125.993093</ele>
        <time>2025-09-08T02:10:06.186Z</time>
      </trkpt>
      <trkpt lat="48.792467" lon="2.151628">
        <ele>125.132990</ele>
        <time>2025-09-08T02:10:10.811Z</time>
      </trkpt>
      <trkpt lat="48.792512" lon="2.151708">
        <ele>124.917575</ele>
        <time>2025-09-08T02:10:11.964Z</time>
      </trkpt>
      <trkpt lat="48.792720" lon="2.152059">
        <ele>123.950802</ele>
        <time>2025-09-08T02:10:17.224Z</time>
      </trkpt>
      <trkpt lat="48.793114" lon="2.152721">
        <ele>122.362066</ele>
        <time>2025-09-08T02:10:27.433Z</time>
      </trkpt>
      <trkpt lat="48.793579" lon="2.153513">
        <ele>120.657872</ele>
        <time>2025-09-08T02:10:39.988Z</time>
      </trkpt>
      <trkpt lat="48.794057" lon="2.154328">
        <ele>118.905014</ele>
        <time>2025-09-08T02:10:53.193Z</time>
      </trkpt>
      <trkpt lat="48.794397" lon="2.154890">
        <ele>117.837945</ele>
        <time>2025-09-08T02:11:02.132Z</time>
      </trkpt>
      <trkpt lat="48.794741" lon="2.155477">
        <ele>116.747942</ele>
        <time>2025-09-08T02:11:11.325Z</time>
      </trkpt>
      <trkpt lat="48.795034" lon="2.155977">
        <ele>115.819514</ele>
        <time>2025-09-08T02:11:19.292Z</time>
      </trkpt>
      <trkpt lat="48.795386" lon="2.155522">
        <ele>115.050047</ele>
        <time>2025-09-08T02:11:27.906Z</time>
      </trkpt>
      <trkpt lat="48.795612" lon="2.155235">
        <ele>115.035221</ele>
        <time>2025-09-08T02:11:33.584Z</time>
      </trkpt>
      <trkpt lat="48.795743" lon="2.155055">
        <ele>115.026330</ele>
        <time>2025-09-08T02:11:37.214Z</time>
      </trkpt>
      <trkpt lat="48.796089" lon="2.154603">
        <ele>115.003362</ele>
        <time>2025-09-08T02:11:47.745Z</time>
      </trkpt>
      <trkpt lat="48.796211" lon="2.154513">
        <ele>114.996536</ele>
        <time>2025-09-08T02:11:51.149Z</time>
      </trkpt>
      <trkpt lat="48.796412" lon="2.154383">
        <ele>114.985543</ele>
        <time>2025-09-08T02:11:56.563Z</time>
      </trkpt>
      <trkpt lat="48.796974" lon="2.154024">
        <ele>115.213611</ele>
        <time>2025-09-08T02:12:13.239Z</time>
      </trkpt>
      <trkpt lat="48.797140" lon="2.153926">
        <ele>115.444215</ele>
        <time>2025-09-08T02:12:18.510Z</time>
      </trkpt>
      <trkpt lat="48.797242" lon="2.153866">
        <ele>115.585844</ele>
        <time>2025-09-08T02:12:21.971Z</time>
      </trkpt>
      <trkpt lat="48.797452" lon="2.153743">
        <ele>115.877271</ele>
        <time>2025-09-08T02:12:29.271Z</time>
      </trkpt>
      <trkpt lat="48.797738" lon="2.153607">
        <ele>116.265303</ele>
        <time>2025-09-08T02:12:38.738Z</time>
      </trkpt>
      <trkpt lat="48.798017" lon="2.153526">
        <ele>116.633077</ele>
        <time>2025-09-08T02:12:47.056Z</time>
      </trkpt>
      <trkpt lat="48.798076" lon="2.153514">
        <ele>116.710149</ele>
        <time>2025-09-08T02:12:48.750Z</time>
      </trkpt>
      <trkpt lat="48.798172" lon="2.153569">
        <ele>116.842999</ele>
        <time>2025-09-08T02:12:51.496Z</time>
      </trkpt>
      <trkpt lat="48.798346" lon="2.153719">
        <ele>117.102069</ele>
        <time>2025-09-08T02:12:56.947Z</time>
      </trkpt>
      <trkpt lat="48.798350" lon="2.153822">
        <ele>117.190065</ele>
        <time>2025-09-08T02:12:58.758Z</time>
      </trkpt>
      <trkpt lat="48.798357" lon="2.153982">
        <ele>117.292278</ele>
        <time>2025-09-08T02:13:01.642Z</time>
      </trkpt>
      <trkpt lat="48.798387" lon="2.155377">
        <ele>117.256393</ele>
        <time>2025-09-08T02:13:23.908Z</time>
      </trkpt>
      <trkpt lat="48.798440" lon="2.157834">
        <ele>116.445684</ele>
        <time>2025-09-08T02:13:57.179Z</time>
      </trkpt>
      <trkpt lat="48.798461" lon="2.158049">
        <ele>116.300375</ele>
        <time>2025-09-08T02:14:00.113Z</time>
      </trkpt>
      <trkpt lat="48.798619" lon="2.158530">
        <ele>115.941040</ele>
        <time>2025-09-08T02:14:07.462Z</time>
      </trkpt>
      <trkpt lat="48.798787" lon="2.158845">
        <ele>115.670076</ele>
        <time>2025-09-08T02:14:12.823Z</time>
      </trkpt>
      <trkpt lat="48.798908" lon="2.159029">
        <ele>115.496256</ele>
        <time>2025-09-08T02:14:16.042Z</time>
      </trkpt>
      <trkpt lat="48.798974" lon="2.158948">
        <ele>115.410120</ele>
        <time>2025-09-08T02:14:21.983Z</time>
      </trkpt>
      <trkpt lat="48.798911" lon="2.158826">
        <ele>115.205711</ele>
        <time>2025-09-08T02:14:23.881Z</time>
      </trkpt>
      <trkpt lat="48.798928" lon="2.158809">
        <ele>115.162198</ele>
        <time>2025-09-08T02:14:24.253Z</time>
      </trkpt>
      <trkpt lat="48.798969" lon="2.158792">
        <ele>115.071349</ele>
        <time>2025-09-08T02:14:25.047Z</time>
      </trkpt>
      <trkpt lat="48.798991" lon="2.158790">
        <ele>115.024239</ele>
        <time>2025-09-08T02:14:25.454Z</time>
      </trkpt>
      <trkpt lat="48.799440" lon="2.159208">
        <ele>113.898402</ele>
        <time>2025-09-08T02:14:35.226Z</time>
      </trkpt>
      <trkpt lat="48.800666" lon="2.160405">
        <ele>110.700583</ele>
        <time>2025-09-08T02:15:01.297Z</time>
      </trkpt>
      <trkpt lat="48.801457" lon="2.161175">
        <ele>108.478143</ele>
        <time>2025-09-08T02:15:17.866Z</time>
      </trkpt>
      <trkpt lat="48.801609" lon="2.161324">
        <ele>108.050204</ele>
        <time>2025-09-08T02:15:21.085Z</time>
      </trkpt>
      <trkpt lat="48.801904" lon="2.161625">
        <ele>107.251947</ele>
        <time>2025-09-08T02:15:27.580Z</time>
      </trkpt>
      <trkpt lat="48.802213" lon="2.161945">
        <ele>106.787899</ele>
        <time>2025-09-08T02:15:34.555Z</time>
      </trkpt>
      <trkpt lat="48.802234" lon="2.161967">
        <ele>106.756245</ele>
        <time>2025-09-08T02:15:35.045Z</time>
      </trkpt>
      <trkpt lat="48.802756" lon="2.162503">
        <ele>105.974425</ele>
        <time>2025-09-08T02:15:47.140Z</time>
      </trkpt>
      <trkpt lat="48.803010" lon="2.162765">
        <ele>105.593456</ele>
        <time>2025-09-08T02:15:53.111Z</time>
      </trkpt>
      <trkpt lat="48.803354" lon="2.163107">
        <ele>105.083318</ele>
        <time>2025-09-08T02:16:01.477Z</time>
      </trkpt>
      <trkpt lat="48.803964" lon="2.163746">
        <ele>106.502235</ele>
        <time>2025-09-08T02:16:18.785Z</time>
      </trkpt>
      <trkpt lat="48.804151" lon="2.163943">
        <ele>106.950763</ele>
        <time>2025-09-08T02:16:25.469Z</time>
      </trkpt>
      <trkpt lat="48.804467" lon="2.164269">
        <ele>107.703635</ele>
        <time>2025-09-08T02:16:38.829Z</time>
      </trkpt>
      <trkpt lat="48.805078" lon="2.164888">
        <ele>110.234848</ele>
        <time>2025-09-08T02:17:12.506Z</time>
      </trkpt>
      <trkpt lat="48.805130" lon="2.164941">
        <ele>110.606247</ele>
        <time>2025-09-08T02:17:15.437Z</time>
      </trkpt>
      <trkpt lat="48.805157" lon="2.164948">
        <ele>110.768677</ele>
        <time>2025-09-08T02:17:16.774Z</time>
      </trkpt>
      <trkpt lat="48.805248" lon="2.164826">
        <ele>111.488574</ele>
        <time>2025-09-08T02:17:22.481Z</time>
      </trkpt>
      <trkpt lat="48.805371" lon="2.164815">
        <ele>112.219237</ele>
        <time>2025-09-08T02:17:28.423Z</time>
      </trkpt>
      <trkpt lat="48.805514" lon="2.164818">
        <ele>113.067318</ele>
        <time>2025-09-08T02:17:35.638Z</time>
      </trkpt>
      <trkpt lat="48.805569" lon="2.164818">
        <ele>113.393472</ele>
        <time>2025-09-08T02:17:38.560Z</time>
      </trkpt>
      <trkpt lat="48.805625" lon="2.164818">
        <ele>113.725556</ele>
        <time>2025-09-08T02:17:41.504Z</time>
      </trkpt>
      <trkpt lat="48.805666" lon="2.164965">
        <ele>114.349044</ele>
        <time>2025-09-08T02:17:47.033Z</time>
      </trkpt>
      <trkpt lat="48.805695" lon="2.165075">
        <ele>114.811805</ele>
        <time>2025-09-08T02:17:51.089Z</time>
      </trkpt>
      <trkpt lat="48.805761" lon="2.165321">
        <ele>115.849248</ele>
        <time>2025-09-08T02:18:00.603Z</time>
      </trkpt>
      <trkpt lat="48.805777" lon="2.165375">
        <ele>116.080512</ele>
        <time>2025-09-08T02:18:02.910Z</time>
      </trkpt>
      <trkpt lat="48.805878" lon="2.165484">
        <ele>116.815330</ele>
        <time>2025-09-08T02:18:09.769Z</time>
      </trkpt>
      <trkpt lat="48.805995" lon="2.165529">
        <ele>117.531062</ele>
        <time>2025-09-08T02:18:16.731Z</time>
      </trkpt>
      <trkpt lat="48.807448" lon="2.165760">
        <ele>127.239925</ele>
        <time>2025-09-08T02:19:42.229Z</time>
      </trkpt>
      <trkpt lat="48.807569" lon="2.165648">
        <ele>128.207286</ele>
        <time>2025-09-08T02:19:50.745Z</time>
      </trkpt>
      <trkpt lat="48.809401" lon="2.164697">
        <ele>139.634960</ele>
        <time>2025-09-08T02:21:30.283Z</time>
      </trkpt>
      <trkpt lat="48.809513" lon="2.164635">
        <ele>140.301215</ele>
        <time>2025-09-08T02:21:37.842Z</time>
      </trkpt>
      <trkpt lat="48.809464" lon="2.164355">
        <ele>141.367561</ele>
        <time>2025-09-08T02:21:49.712Z</time>
      </trkpt>
      <trkpt lat="48.810238" lon="2.164261">
        <ele>145.189449</ele>
        <time>2025-09-08T02:22:35.817Z</time>
      </trkpt>
      <trkpt lat="48.810384" lon="2.164271">
        <ele>145.903084</ele>
        <time>2025-09-08T02:22:44.001Z</time>
      </trkpt>
      <trkpt lat="48.810432" lon="2.164194">
        <ele>146.244030</ele>
        <time>2025-09-08T02:22:48.048Z</time>
      </trkpt>
      <trkpt lat="48.810591" lon="2.163884">
        <ele>147.507560</ele>
        <time>2025-09-08T02:23:03.683Z</time>
      </trkpt>
      <trkpt lat="48.810810" lon="2.163561">
        <ele>148.998317</ele>
        <time>2025-09-08T02:23:22.100Z</time>
      </trkpt>
      <trkpt lat="48.811073" lon="2.162974">
        <ele>151.525530</ele>
        <time>2025-09-08T02:23:52.826Z</time>
      </trkpt>
      <trkpt lat="48.811284" lon="2.162656">
        <ele>153.375293</ele>
        <time>2025-09-08T02:24:13.090Z</time>
      </trkpt>
      <trkpt lat="48.811370" lon="2.162423">
        <ele>154.469771</ele>
        <time>2025-09-08T02:24:22.880Z</time>
      </trkpt>
      <trkpt lat="48.811425" lon="2.162338">
        <ele>154.958062</ele>
        <time>2025-09-08T02:24:27.419Z</time>
      </trkpt>
      <trkpt lat="48.811604" lon="2.162253">
        <ele>156.125035</ele>
        <time>2025-09-08T02:24:40.833Z</time>
      </trkpt>
      <trkpt lat="48.812087" lon="2.162128">
        <ele>159.173720</ele>
        <time>2025-09-08T02:25:16.120Z</time>
      </trkpt>
      <trkpt lat="48.812154" lon="2.162059">
        <ele>159.677441</ele>
        <time>2025-09-08T02:25:20.759Z</time>
      </trkpt>
      <trkpt lat="48.812194" lon="2.161986">
        <ele>160.066568</ele>
        <time>2025-09-08T02:25:24.271Z</time>
      </trkpt>
      <trkpt lat="48.812347" lon="2.161706">
        <ele>161.557418</ele>
        <time>2025-09-08T02:25:36.898Z</time>
      </trkpt>
      <trkpt lat="48.812499" lon="2.161432">
        <ele>162.373743</ele>
        <time>2025-09-08T02:25:49.755Z</time>
      </trkpt>
      <trkpt lat="48.812534" lon="2.161272">
        <ele>162.752532</ele>
        <time>2025-09-08T02:25:55.357Z</time>
      </trkpt>
      <trkpt lat="48.812753" lon="2.161400">
        <ele>163.553135</ele>
        <time>2025-09-08T02:26:06.376Z</time>
      </trkpt>
      <trkpt lat="48.812933" lon="2.160910">
        <ele>164.813723</ele>
        <time>2025-09-08T02:26:19.713Z</time>
      </trkpt>
      <trkpt lat="48.813193" lon="2.160343">
        <ele>166.366017</ele>
        <time>2025-09-08T02:26:34.723Z</time>
      </trkpt>
      <trkpt lat="48.813667" lon="2.159539">
        <ele>168.233958</ele>
        <time>2025-09-08T02:26:58.343Z</time>
      </trkpt>
      <trkpt lat="48.813873" lon="2.158847">
        <ele>169.053805</ele>
        <time>2025-09-08T02:27:14.350Z</time>
      </trkpt>
      <trkpt lat="48.813898" lon="2.158754">
        <ele>169.162248</ele>
        <time>2025-09-08T02:27:16.431Z</time>
      </trkpt>
      <trkpt lat="48.814538" lon="2.157538">
        <ele>170.775042</ele>
        <time>2025-09-08T02:27:46.376Z</time>
      </trkpt>
      <trkpt lat="48.814599" lon="2.157405">
        <ele>170.882257</ele>
        <time>2025-09-08T02:27:49.047Z</time>
      </trkpt>
      <trkpt lat="48.814633" lon="2.157339">
        <ele>170.937688</ele>
        <time>2025-09-08T02:27:50.389Z</time>
      </trkpt>
      <trkpt lat="48.814678" lon="2.157245">
        <ele>171.014563</ele>
        <time>2025-09-08T02:27:52.276Z</time>
      </trkpt>
      <trkpt lat="48.814824" lon="2.156897">
        <ele>171.287512</ele>
        <time>2025-09-08T02:27:59.157Z</time>
      </trkpt>
      <trkpt lat="48.815444" lon="2.155620">
        <ele>172.337007</ele>
        <time>2025-09-08T02:28:27.428Z</time>
      </trkpt>
      <trkpt lat="48.815810" lon="2.154950">
        <ele>172.727654</ele>
        <time>2025-09-08T02:28:43.802Z</time>
      </trkpt>
      <trkpt lat="48.816073" lon="2.154395">
        <ele>172.988779</ele>
        <time>2025-09-08T02:28:55.985Z</time>
      </trkpt>
      <trkpt lat="48.816124" lon="2.154148">
        <ele>173.087634</ele>
        <time>2025-09-08T02:29:00.193Z</time>
      </trkpt>
      <trkpt lat="48.816073" lon="2.153459">
        <ele>173.352410</ele>
        <time>2025-09-08T02:29:10.351Z</time>
      </trkpt>
      <trkpt lat="48.816118" lon="2.153184">
        <ele>173.460623</ele>
        <time>2025-09-08T02:29:14.347Z</time>
      </trkpt>
      <trkpt lat="48.816766" lon="2.152015">
        <ele>174.125613</ele>
        <time>2025-09-08T02:29:37.889Z</time>
      </trkpt>
      <trkpt lat="48.816966" lon="2.151636">
        <ele>174.339788</ele>
        <time>2025-09-08T02:29:46.055Z</time>
      </trkpt>
      <trkpt lat="48.817102" lon="2.151479">
        <ele>174.454192</ele>
        <time>2025-09-08T02:29:51.007Z</time>
      </trkpt>
      <trkpt lat="48.817527" lon="2.151293">
        <ele>174.750662</ele>
        <time>2025-09-08T02:30:04.074Z</time>
      </trkpt>
      <trkpt lat="48.817656" lon="2.151202">
        <ele>174.846827</ele>
        <time>2025-09-08T02:30:08.494Z</time>
      </trkpt>
      <trkpt lat="48.818012" lon="2.150759">
        <ele>175.157993</ele>
        <time>2025-09-08T02:30:21.871Z</time>
      </trkpt>
      <trkpt lat="48.818313" lon="2.150744">
        <ele>175.361606</ele>
        <time>2025-09-08T02:30:30.044Z</time>
      </trkpt>
      <trkpt lat="48.818809" lon="2.150683">
        <ele>175.698046</ele>
        <time>2025-09-08T02:30:43.477Z</time>
      </trkpt>
      <trkpt lat="48.818903" lon="2.150678">
        <ele>175.761637</ele>
        <time>2025-09-08T02:30:45.698Z</time>
      </trkpt>
      <trkpt lat="48.818977" lon="2.150742">
        <ele>175.819211</ele>
        <time>2025-09-08T02:30:47.497Z</time>
      </trkpt>
      <trkpt lat="48.819120" lon="2.150686">
        <ele>175.919055</ele>
        <time>2025-09-08T02:30:50.530Z</time>
      </trkpt>
      <trkpt lat="48.819156" lon="2.150560">
        <ele>175.789597</ele>
        <time>2025-09-08T02:30:52.366Z</time>
      </trkpt>
      <trkpt lat="48.819180" lon="2.150372">
        <ele>175.486024</ele>
        <time>2025-09-08T02:30:54.842Z</time>
      </trkpt>
      <trkpt lat="48.819192" lon="2.150258">
        <ele>175.303014</ele>
        <time>2025-09-08T02:30:56.307Z</time>
      </trkpt>
      <trkpt lat="48.819098" lon="2.150106">
        <ele>174.972445</ele>
        <time>2025-09-08T02:30:58.947Z</time>
      </trkpt>
      <trkpt lat="48.819106" lon="2.149985">
        <ele>174.779668</ele>
        <time>2025-09-08T02:31:00.458Z</time>
      </trkpt>
      <trkpt lat="48.819149" lon="2.149995">
        <ele>174.674936</ele>
        <time>2025-09-08T02:31:03.493Z</time>
      </trkpt>
      <trkpt lat="48.819339" lon="2.149963">
        <ele>174.214697</ele>
        <time>2025-09-08T02:31:07.451Z</time>
      </trkpt>
      <trkpt lat="48.819466" lon="2.150021">
        <ele>173.895412</ele>
        <time>2025-09-08T02:31:10.165Z</time>
      </trkpt>
      <trkpt lat="48.819745" lon="2.150438">
        <ele>172.952991</ele>
        <time>2025-09-08T02:31:18.011Z</time>
      </trkpt>
      <trkpt lat="48.820330" lon="2.150765">
        <ele>171.406886</ele>
        <time>2025-09-08T02:31:29.634Z</time>
      </trkpt>
      <trkpt lat="48.821127" lon="2.150832">
        <ele>168.926303</ele>
        <time>2025-09-08T02:31:44.240Z</time>
      </trkpt>
      <trkpt lat="48.821298" lon="2.150864">
        <ele>168.390877</ele>
        <time>2025-09-08T02:31:47.496Z</time>
      </trkpt>
      <trkpt lat="48.821805" lon="2.150796">
        <ele>166.809171</ele>
        <time>2025-09-08T02:31:57.505Z</time>
      </trkpt>
      <trkpt lat="48.822945" lon="2.150307">
        <ele>166.771880</ele>
        <time>2025-09-08T02:32:25.541Z</time>
      </trkpt>
      <trkpt lat="48.823073" lon="2.150292">
        <ele>166.875856</ele>
        <time>2025-09-08T02:32:29.472Z</time>
      </trkpt>
      <trkpt lat="48.823437" lon="2.150098">
        <ele>167.188283</ele>
        <time>2025-09-08T02:32:42.862Z</time>
      </trkpt>
      <trkpt lat="48.824127" lon="2.149751">
        <ele>168.132780</ele>
        <time>2025-09-08T02:33:12.173Z</time>
      </trkpt>
      <trkpt lat="48.824692" lon="2.149536">
        <ele>169.160903</ele>
        <time>2025-09-08T02:33:34.156Z</time>
      </trkpt>
      <trkpt lat="48.825076" lon="2.149400">
        <ele>169.856896</ele>
        <time>2025-09-08T02:33:48.417Z</time>
      </trkpt>
      <trkpt lat="48.825947" lon="2.149045">
        <ele>169.713103</ele>
        <time>2025-09-08T02:34:10.411Z</time>
      </trkpt>
      <trkpt lat="48.827213" lon="2.148431">
        <ele>166.960809</ele>
        <time>2025-09-08T02:34:36.237Z</time>
      </trkpt>
      <trkpt lat="48.827386" lon="2.148219">
        <ele>166.660038</ele>
        <time>2025-09-08T02:34:40.542Z</time>
      </trkpt>
      <trkpt lat="48.828156" lon="2.146998">
        <ele>165.221046</ele>
        <time>2025-09-08T02:35:04.051Z</time>
      </trkpt>
      <trkpt lat="48.829261" lon="2.145093">
        <ele>165.602658</ele>
        <time>2025-09-08T02:35:50.260Z</time>
      </trkpt>
      <trkpt lat="48.830238" lon="2.143509">
        <ele>167.533120</ele>
        <time>2025-09-08T02:36:36.222Z</time>
      </trkpt>
      <trkpt lat="48.830609" lon="2.142806">
        <ele>168.557819</ele>
        <time>2025-09-08T02:36:56.097Z</time>
      </trkpt>
      <trkpt lat="48.830714" lon="2.142552">
        <ele>168.898917</ele>
        <time>2025-09-08T02:37:03.070Z</time>
      </trkpt>
      <trkpt lat="48.830896" lon="2.142323">
        <ele>169.326829</ele>
        <time>2025-09-08T02:37:19.501Z</time>
      </trkpt>
      <trkpt lat="48.830987" lon="2.142339">
        <ele>169.521432</ele>
        <time>2025-09-08T02:37:22.467Z</time>
      </trkpt>
      <trkpt lat="48.831112" lon="2.142376">
        <ele>169.791966</ele>
        <time>2025-09-08T02:37:26.641Z</time>
      </trkpt>
      <trkpt lat="48.831425" lon="2.142467">
        <ele>170.468946</ele>
        <time>2025-09-08T02:37:36.963Z</time>
      </trkpt>
      <trkpt lat="48.831505" lon="2.142495">
        <ele>170.643344</ele>
        <time>2025-09-08T02:37:39.659Z</time>
      </trkpt>
      <trkpt lat="48.831942" lon="2.142612">
        <ele>171.585980</ele>
        <time>2025-09-08T02:37:54.782Z</time>
      </trkpt>
      <trkpt lat="48.832858" lon="2.142818">
        <ele>173.212533</ele>
        <time>2025-09-08T02:38:26.024Z</time>
      </trkpt>
      <trkpt lat="48.833039" lon="2.142841">
        <ele>173.340995</ele>
        <time>2025-09-08T02:38:31.195Z</time>
      </trkpt>
      <trkpt lat="48.833572" lon="2.142881">
        <ele>173.718426</ele>
        <time>2025-09-08T02:38:44.608Z</time>
      </trkpt>
      <trkpt lat="48.833787" lon="2.142903">
        <ele>173.870832</ele>
        <time>2025-09-08T02:38:49.774Z</time>
      </trkpt>
      <trkpt lat="48.833887" lon="2.142914">
        <ele>173.941743</ele>
        <time>2025-09-08T02:38:52.148Z</time>
      </trkpt>
      <trkpt lat="48.834260" lon="2.142191">
        <ele>174.259771</ele>
        <time>2025-09-08T02:39:05.901Z</time>
      </trkpt>
      <trkpt lat="48.834486" lon="2.141892">
        <ele>174.047038</ele>
        <time>2025-09-08T02:39:12.245Z</time>
      </trkpt>
      <trkpt lat="48.835847" lon="2.140121">
        <ele>172.180551</ele>
        <time>2025-09-08T02:39:48.393Z</time>
      </trkpt>
      <trkpt lat="48.836085" lon="2.139997">
        <ele>171.598150</ele>
        <time>2025-09-08T02:39:53.089Z</time>
      </trkpt>
      <trkpt lat="48.836153" lon="2.139983">
        <ele>171.439309</ele>
        <time>2025-09-08T02:39:54.354Z</time>
      </trkpt>
      <trkpt lat="48.836286" lon="2.139956">
        <ele>171.128714</ele>
        <time>2025-09-08T02:39:56.793Z</time>
      </trkpt>
      <trkpt lat="48.836349" lon="2.139942">
        <ele>170.981334</ele>
        <time>2025-09-08T02:39:57.927Z</time>
      </trkpt>
      <trkpt lat="48.836450" lon="2.139912">
        <ele>170.743120</ele>
        <time>2025-09-08T02:39:59.780Z</time>
      </trkpt>
      <trkpt lat="48.836499" lon="2.139850">
        <ele>170.595513</ele>
        <time>2025-09-08T02:40:00.884Z</time>
      </trkpt>
      <trkpt lat="48.836514" lon="2.139761">
        <ele>170.455540</ele>
        <time>2025-09-08T02:40:01.956Z</time>
      </trkpt>
      <trkpt lat="48.836896" lon="2.139498">
        <ele>169.484757</ele>
        <time>2025-09-08T02:40:09.136Z</time>
      </trkpt>
      <trkpt lat="48.837164" lon="2.139512">
        <ele>168.859181</ele>
        <time>2025-09-08T02:40:13.644Z</time>
      </trkpt>
      <trkpt lat="48.837991" lon="2.139679">
        <ele>166.033048</ele>
        <time>2025-09-08T02:40:27.631Z</time>
      </trkpt>
      <trkpt lat="48.838891" lon="2.139861">
        <ele>162.957375</ele>
        <time>2025-09-08T02:40:42.787Z</time>
      </trkpt>
      <trkpt lat="48.838841" lon="2.140489">
        <ele>162.529134</ele>
        <time>2025-09-08T02:40:50.207Z</time>
      </trkpt>
      <trkpt lat="48.838700" lon="2.140988">
        <ele>162.281582</ele>
        <time>2025-09-08T02:40:57.801Z</time>
      </trkpt>
      <trkpt lat="48.838665" lon="2.141197">
        <ele>162.183271</ele>
        <time>2025-09-08T02:41:00.955Z</time>
      </trkpt>
      <trkpt lat="48.838633" lon="2.141406">
        <ele>162.085452</ele>
        <time>2025-09-08T02:41:04.180Z</time>
      </trkpt>
      <trkpt lat="48.838621" lon="2.141866">
        <ele>161.875590</ele>
        <time>2025-09-08T02:41:11.582Z</time>
      </trkpt>
      <trkpt lat="48.838375" lon="2.143164">
        <ele>161.639466</ele>
        <time>2025-09-08T02:41:40.368Z</time>
      </trkpt>
      <trkpt lat="48.838269" lon="2.143766">
        <ele>161.746188</ele>
        <time>2025-09-08T02:41:58.525Z</time>
      </trkpt>
      <trkpt lat="48.838204" lon="2.144861">
        <ele>161.934475</ele>
        <time>2025-09-08T02:42:24.683Z</time>
      </trkpt>
      <trkpt lat="48.838572" lon="2.145219">
        <ele>162.115332</ele>
        <time>2025-09-08T02:42:34.040Z</time>
      </trkpt>
      <trkpt lat="48.839239" lon="2.144904">
        <ele>162.572089</ele>
        <time>2025-09-08T02:42:49.858Z</time>
      </trkpt>
      <trkpt lat="48.839696" lon="2.144703">
        <ele>162.883206</ele>
        <time>2025-09-08T02:43:03.802Z</time>
      </trkpt>
      <trkpt lat="48.840341" lon="2.145358">
        <ele>164.018975</ele>
        <time>2025-09-08T02:43:44.502Z</time>
      </trkpt>
      <trkpt lat="48.840752" lon="2.145686">
        <ele>165.228715</ele>
        <time>2025-09-08T02:44:10.252Z</time>
      </trkpt>
      <trkpt lat="48.840770" lon="2.145816">
        <ele>165.456550</ele>
        <time>2025-09-08T02:44:14.864Z</time>
      </trkpt>
      <trkpt lat="48.840876" lon="2.145811">
        <ele>165.732901</ele>
        <time>2025-09-08T02:44:18.726Z</time>
      </trkpt>
      <trkpt lat="48.841796" lon="2.145715">
        <ele>168.028982</ele>
        <time>2025-09-08T02:44:47.902Z</time>
      </trkpt>
      <trkpt lat="48.842342" lon="2.145674">
        <ele>168.887224</ele>
        <time>2025-09-08T02:45:06.034Z</time>
      </trkpt>
      <trkpt lat="48.842489" lon="2.145676">
        <ele>169.118017</ele>
        <time>2025-09-08T02:45:10.835Z</time>
      </trkpt>
      <trkpt lat="48.842876" lon="2.145893">
        <ele>169.765639</ele>
        <time>2025-09-08T02:45:23.981Z</time>
      </trkpt>
      <trkpt lat="48.843216" lon="2.146135">
        <ele>170.355085</ele>
        <time>2025-09-08T02:45:35.188Z</time>
      </trkpt>
      <trkpt lat="48.843978" lon="2.146711">
        <ele>170.021820</ele>
        <time>2025-09-08T02:45:54.802Z</time>
      </trkpt>
      <trkpt lat="48.844453" lon="2.147016">
        <ele>169.480580</ele>
        <time>2025-09-08T02:46:04.583Z</time>
      </trkpt>
      <trkpt lat="48.845274" lon="2.147623">
        <ele>168.346504</ele>
        <time>2025-09-08T02:46:21.046Z</time>
      </trkpt>
      <trkpt lat="48.845834" lon="2.148031">
        <ele>167.286342</ele>
        <time>2025-09-08T02:46:32.518Z</time>
      </trkpt>
      <trkpt lat="48.845994" lon="2.148162">
        <ele>166.976086</ele>
        <time>2025-09-08T02:46:35.901Z</time>
      </trkpt>
      <trkpt lat="48.846353" lon="2.148412">
        <ele>166.301960</ele>
        <time>2025-09-08T02:46:43.351Z</time>
      </trkpt>
      <trkpt lat="48.846675" lon="2.148636">
        <ele>165.727199</ele>
        <time>2025-09-08T02:46:50.198Z</time>
      </trkpt>
      <trkpt lat="48.846905" lon="2.148810">
        <ele>165.661181</ele>
        <time>2025-09-08T02:46:55.329Z</time>
      </trkpt>
      <trkpt lat="48.846999" lon="2.148872">
        <ele>165.634850</ele>
        <time>2025-09-08T02:46:57.376Z</time>
      </trkpt>
      <trkpt lat="48.847022" lon="2.148972">
        <ele>165.616937</ele>
        <time>2025-09-08T02:46:58.798Z</time>
      </trkpt>
      <trkpt lat="48.847420" lon="2.149476">
        <ele>165.483814</ele>
        <time>2025-09-08T02:47:09.637Z</time>
      </trkpt>
      <trkpt lat="48.847606" lon="2.149769">
        <ele>165.414974</ele>
        <time>2025-09-08T02:47:16.029Z</time>
      </trkpt>
      <trkpt lat="48.847750" lon="2.150025">
        <ele>165.358028</ele>
        <time>2025-09-08T02:47:21.528Z</time>
      </trkpt>
      <trkpt lat="48.847878" lon="2.150353">
        <ele>165.293546</ele>
        <time>2025-09-08T02:47:27.816Z</time>
      </trkpt>
      <trkpt lat="48.847978" lon="2.150726">
        <ele>165.258876</ele>
        <time>2025-09-08T02:47:34.224Z</time>
      </trkpt>
      <trkpt lat="48.847997" lon="2.150980">
        <ele>165.247863</ele>
        <time>2025-09-08T02:47:38.206Z</time>
      </trkpt>
      <trkpt lat="48.848021" lon="2.151264">
        <ele>165.235529</ele>
        <time>2025-09-08T02:47:42.590Z</time>
      </trkpt>
      <trkpt lat="48.848193" lon="2.151903">
        <ele>165.205788</ele>
        <time>2025-09-08T02:47:53.264Z</time>
      </trkpt>
      <trkpt lat="48.848348" lon="2.152432">
        <ele>165.180843</ele>
        <time>2025-09-08T02:48:01.704Z</time>
      </trkpt>
      <trkpt lat="48.848600" lon="2.152710">
        <ele>165.160458</ele>
        <time>2025-09-08T02:48:08.102Z</time>
      </trkpt>
      <trkpt lat="48.848723" lon="2.152918">
        <ele>165.088805</ele>
        <time>2025-09-08T02:48:11.797Z</time>
      </trkpt>
      <trkpt lat="48.848835" lon="2.153001">
        <ele>164.963491</ele>
        <time>2025-09-08T02:48:14.289Z</time>
      </trkpt>
      <trkpt lat="48.848957" lon="2.153190">
        <ele>164.788285</ele>
        <time>2025-09-08T02:48:17.745Z</time>
      </trkpt>
      <trkpt lat="48.850900" lon="2.156188">
        <ele>161.559742</ele>
        <time>2025-09-08T02:49:12.336Z</time>
      </trkpt>
      <trkpt lat="48.850932" lon="2.156238">
        <ele>161.498297</ele>
        <time>2025-09-08T02:49:13.228Z</time>
      </trkpt>
      <trkpt lat="48.851004" lon="2.156349">
        <ele>161.360989</ele>
        <time>2025-09-08T02:49:15.188Z</time>
      </trkpt>
      <trkpt lat="48.851036" lon="2.156396">
        <ele>161.301409</ele>
        <time>2025-09-08T02:49:16.060Z</time>
      </trkpt>
      <trkpt lat="48.851054" lon="2.156423">
        <ele>161.267550</ele>
        <time>2025-09-08T02:49:16.539Z</time>
      </trkpt>
      <trkpt lat="48.851097" lon="2.156485">
        <ele>161.188195</ele>
        <time>2025-09-08T02:49:17.661Z</time>
      </trkpt>
      <trkpt lat="48.851315" lon="2.156815">
        <ele>160.315448</ele>
        <time>2025-09-08T02:49:23.511Z</time>
      </trkpt>
      <trkpt lat="48.851463" lon="2.157080">
        <ele>159.124452</ele>
        <time>2025-09-08T02:49:31.081Z</time>
      </trkpt>
      <trkpt lat="48.851882" lon="2.158066">
        <ele>155.102633</ele>
        <time>2025-09-08T02:49:54.093Z</time>
      </trkpt>
      <trkpt lat="48.852060" lon="2.158468">
        <ele>153.442360</ele>
        <time>2025-09-08T02:50:02.851Z</time>
      </trkpt>
      <trkpt lat="48.852155" lon="2.158683">
        <ele>152.554982</ele>
        <time>2025-09-08T02:50:07.422Z</time>
      </trkpt>
      <trkpt lat="48.852677" lon="2.159498">
        <ele>145.808275</ele>
        <time>2025-09-08T02:50:26.560Z</time>
      </trkpt>
      <trkpt lat="48.852921" lon="2.159831">
        <ele>142.429219</ele>
        <time>2025-09-08T02:50:34.794Z</time>
      </trkpt>
      <trkpt lat="48.852967" lon="2.160193">
        <ele>139.929568</ele>
        <time>2025-09-08T02:50:40.910Z</time>
      </trkpt>
      <trkpt lat="48.852960" lon="2.160459">
        <ele>138.124689</ele>
        <time>2025-09-08T02:50:45.348Z</time>
      </trkpt>
      <trkpt lat="48.853049" lon="2.160701">
        <ele>136.245083</ele>
        <time>2025-09-08T02:50:50.006Z</time>
      </trkpt>
      <trkpt lat="48.853287" lon="2.161178">
        <ele>132.455655</ele>
        <time>2025-09-08T02:51:00.134Z</time>
      </trkpt>
      <trkpt lat="48.853406" lon="2.161417">
        <ele>131.067003</ele>
        <time>2025-09-08T02:51:02.964Z</time>
      </trkpt>
      <trkpt lat="48.853602" lon="2.162042">
        <ele>127.859165</ele>
        <time>2025-09-08T02:51:15.016Z</time>
      </trkpt>
      <trkpt lat="48.853872" lon="2.162571">
        <ele>124.757260</ele>
        <time>2025-09-08T02:51:27.114Z</time>
      </trkpt>
      <trkpt lat="48.853944" lon="2.162818">
        <ele>123.505588</ele>
        <time>2025-09-08T02:51:32.088Z</time>
      </trkpt>
      <trkpt lat="48.854176" lon="2.163133">
        <ele>121.314985</ele>
        <time>2025-09-08T02:51:40.929Z</time>
      </trkpt>
      <trkpt lat="48.854311" lon="2.163092">
        <ele>120.359279</ele>
        <time>2025-09-08T02:51:44.964Z</time>
      </trkpt>
      <trkpt lat="48.854508" lon="2.163105">
        <ele>119.704074</ele>
        <time>2025-09-08T02:51:50.831Z</time>
      </trkpt>
      <trkpt lat="48.855322" lon="2.163550">
        <ele>116.829674</ele>
        <time>2025-09-08T02:52:17.814Z</time>
      </trkpt>
      <trkpt lat="48.855494" lon="2.163719">
        <ele>116.149124</ele>
        <time>2025-09-08T02:52:24.391Z</time>
      </trkpt>
      <trkpt lat="48.855580" lon="2.164002">
        <ele>115.467610</ele>
        <time>2025-09-08T02:52:30.875Z</time>
      </trkpt>
      <trkpt lat="48.855780" lon="2.164204">
        <ele>114.669696</ele>
        <time>2025-09-08T02:52:38.362Z</time>
      </trkpt>
      <trkpt lat="48.856265" lon="2.165114">
        <ele>111.650376</ele>
        <time>2025-09-08T02:53:01.487Z</time>
      </trkpt>
      <trkpt lat="48.856992" lon="2.165631">
        <ele>108.447743</ele>
        <time>2025-09-08T02:53:25.069Z</time>
      </trkpt>
      <trkpt lat="48.857289" lon="2.165664">
        <ele>107.259519</ele>
        <time>2025-09-08T02:53:33.911Z</time>
      </trkpt>
      <trkpt lat="48.857899" lon="2.165601">
        <ele>104.563348</ele>
        <time>2025-09-08T02:53:52.025Z</time>
      </trkpt>
      <trkpt lat="48.858118" lon="2.165771">
        <ele>103.477169</ele>
        <time>2025-09-08T02:53:59.382Z</time>
      </trkpt>
      <trkpt lat="48.858875" lon="2.165602">
        <ele>100.097619</ele>
        <time>2025-09-08T02:54:21.780Z</time>
      </trkpt>
      <trkpt lat="48.859278" lon="2.165392">
        <ele>98.190814</ele>
        <time>2025-09-08T02:54:34.078Z</time>
      </trkpt>
      <trkpt lat="48.859445" lon="2.165340">
        <ele>97.420024</ele>
        <time>2025-09-08T02:54:38.962Z</time>
      </trkpt>
      <trkpt lat="48.859537" lon="2.165212">
        <ele>96.856078</ele>
        <time>2025-09-08T02:54:42.532Z</time>
      </trkpt>
      <trkpt lat="48.859883" lon="2.164883">
        <ele>95.010694</ele>
        <time>2025-09-08T02:54:54.301Z</time>
      </trkpt>
      <trkpt lat="48.860021" lon="2.164700">
        <ele>94.182621</ele>
        <time>2025-09-08T02:54:59.644Z</time>
      </trkpt>
      <trkpt lat="48.860080" lon="2.164637">
        <ele>93.856597</ele>
        <time>2025-09-08T02:55:01.775Z</time>
      </trkpt>
      <trkpt lat="48.860084" lon="2.164633">
        <ele>93.834948</ele>
        <time>2025-09-08T02:55:01.921Z</time>
      </trkpt>
      <trkpt lat="48.860110" lon="2.164605">
        <ele>93.690869</ele>
        <time>2025-09-08T02:55:02.868Z</time>
      </trkpt>
      <trkpt lat="48.860223" lon="2.164544">
        <ele>93.148662</ele>
        <time>2025-09-08T02:55:06.414Z</time>
      </trkpt>
      <trkpt lat="48.860248" lon="2.164521">
        <ele>93.016529</ele>
        <time>2025-09-08T02:55:07.263Z</time>
      </trkpt>
      <trkpt lat="48.860299" lon="2.164457">
        <ele>92.717491</ele>
        <time>2025-09-08T02:55:09.251Z</time>
      </trkpt>
      <trkpt lat="48.860699" lon="2.164168">
        <ele>90.685968</ele>
        <time>2025-09-08T02:55:16.674Z</time>
      </trkpt>
      <trkpt lat="48.861299" lon="2.163832">
        <ele>87.598178</ele>
        <time>2025-09-08T02:55:27.242Z</time>
      </trkpt>
      <trkpt lat="48.861451" lon="2.163788">
        <ele>86.850976</ele>
        <time>2025-09-08T02:55:29.736Z</time>
      </trkpt>
      <trkpt lat="48.861916" lon="2.163654">
        <ele>84.565486</ele>
        <time>2025-09-08T02:55:37.252Z</time>
      </trkpt>
      <trkpt lat="48.862507" lon="2.163420">
        <ele>81.333124</ele>
        <time>2025-09-08T02:55:46.647Z</time>
      </trkpt>
      <trkpt lat="48.862507" lon="2.163420">
        <ele>81.333124</ele>
        <time>2025-09-08T02:55:46.649Z</time>
      </trkpt>
      <trkpt lat="48.863375" lon="2.162878">
        <ele>75.271950</ele>
        <time>2025-09-08T02:56:00.844Z</time>
      </trkpt>
      <trkpt lat="48.863901" lon="2.162590">
        <ele>71.660746</ele>
        <time>2025-09-08T02:56:09.370Z</time>
      </trkpt>
      <trkpt lat="48.863962" lon="2.162416">
        <ele>70.822084</ele>
        <time>2025-09-08T02:56:11.333Z</time>
      </trkpt>
      <trkpt lat="48.864058" lon="2.162326">
        <ele>70.049587</ele>
        <time>2025-09-08T02:56:13.276Z</time>
      </trkpt>
      <trkpt lat="48.865101" lon="2.162213">
        <ele>62.887927</ele>
        <time>2025-09-08T02:56:31.067Z</time>
      </trkpt>
      <trkpt lat="48.865929" lon="2.162098">
        <ele>57.209848</ele>
        <time>2025-09-08T02:56:45.162Z</time>
      </trkpt>
      <trkpt lat="48.866609" lon="2.162007">
        <ele>52.592849</ele>
        <time>2025-09-08T02:56:56.838Z</time>
      </trkpt>
      <trkpt lat="48.867103" lon="2.162062">
        <ele>49.242708</ele>
        <time>2025-09-08T02:57:05.279Z</time>
      </trkpt>
      <trkpt lat="48.867335" lon="2.162132">
        <ele>47.642957</ele>
        <time>2025-09-08T02:57:09.320Z</time>
      </trkpt>
      <trkpt lat="48.867816" lon="2.162482">
        <ele>44.666959</ele>
        <time>2025-09-08T02:57:18.411Z</time>
      </trkpt>
      <trkpt lat="48.868278" lon="2.162504">
        <ele>42.391699</ele>
        <time>2025-09-08T02:57:26.438Z</time>
      </trkpt>
      <trkpt lat="48.868679" lon="2.162439">
        <ele>40.406632</ele>
        <time>2025-09-08T02:57:33.696Z</time>
      </trkpt>
      <trkpt lat="48.868766" lon="2.162347">
        <ele>39.884970</ele>
        <time>2025-09-08T02:57:35.676Z</time>
      </trkpt>
      <trkpt lat="48.868795" lon="2.162308">
        <ele>39.694383</ele>
        <time>2025-09-08T02:57:36.399Z</time>
      </trkpt>
      <trkpt lat="48.868904" lon="2.162079">
        <ele>38.779146</ele>
        <time>2025-09-08T02:57:39.968Z</time>
      </trkpt>
      <trkpt lat="48.869179" lon="2.159988">
        <ele>33.707360</ele>
        <time>2025-09-08T02:58:08.185Z</time>
      </trkpt>
      <trkpt lat="48.869192" lon="2.159644">
        <ele>32.955184</ele>
        <time>2025-09-08T02:58:12.386Z</time>
      </trkpt>
      <trkpt lat="48.869166" lon="2.159213">
        <ele>32.010380</ele>
        <time>2025-09-08T02:58:17.552Z</time>
      </trkpt>
      <trkpt lat="48.869193" lon="2.159200">
        <ele>31.916390</ele>
        <time>2025-09-08T02:58:18.073Z</time>
      </trkpt>
      <trkpt lat="48.869318" lon="2.159118">
        <ele>31.463874</ele>
        <time>2025-09-08T02:58:20.547Z</time>
      </trkpt>
      <trkpt lat="48.869333" lon="2.158925">
        <ele>31.035069</ele>
        <time>2025-09-08T02:58:22.870Z</time>
      </trkpt>
      <trkpt lat="48.869412" lon="2.158698">
        <ele>30.468425</ele>
        <time>2025-09-08T02:58:25.950Z</time>
      </trkpt>
      <trkpt lat="48.869501" lon="2.158595">
        <ele>30.093226</ele>
        <time>2025-09-08T02:58:27.983Z</time>
      </trkpt>
      <trkpt lat="48.869689" lon="2.158550">
        <ele>29.454833</ele>
        <time>2025-09-08T02:58:31.429Z</time>
      </trkpt>
      <trkpt lat="48.869870" lon="2.158670">
        <ele>28.792469</ele>
        <time>2025-09-08T02:58:35.044Z</time>
      </trkpt>
      <trkpt lat="48.870059" lon="2.159034">
        <ele>27.769262</ele>
        <time>2025-09-08T02:58:40.849Z</time>
      </trkpt>
      <trkpt lat="48.870097" lon="2.159079">
        <ele>27.607689</ele>
        <time>2025-09-08T02:58:41.991Z</time>
      </trkpt>
      <trkpt lat="48.870392" lon="2.159293">
        <ele>26.511269</ele>
        <time>2025-09-08T02:58:52.237Z</time>
      </trkpt>
      <trkpt lat="48.870611" lon="2.159335">
        <ele>25.770837</ele>
        <time>2025-09-08T02:58:59.422Z</time>
      </trkpt>
      <trkpt lat="48.870816" lon="2.159290">
        <ele>25.453170</ele>
        <time>2025-09-08T02:59:06.558Z</time>
      </trkpt>
      <trkpt lat="48.870939" lon="2.159211">
        <ele>25.406356</ele>
        <time>2025-09-08T02:59:11.240Z</time>
      </trkpt>
      <trkpt lat="48.871194" lon="2.158921">
        <ele>25.294707</ele>
        <time>2025-09-08T02:59:22.390Z</time>
      </trkpt>
      <trkpt lat="48.871408" lon="2.158664">
        <ele>25.199095</ele>
        <time>2025-09-08T02:59:28.739Z</time>
      </trkpt>
      <trkpt lat="48.871714" lon="2.158350">
        <ele>25.069661</ele>
        <time>2025-09-08T02:59:37.629Z</time>
      </trkpt>
      <trkpt lat="48.871871" lon="2.158229">
        <ele>25.007948</ele>
        <time>2025-09-08T02:59:42.102Z</time>
      </trkpt>
      <trkpt lat="48.872152" lon="2.158096">
        <ele>24.904766</ele>
        <time>2025-09-08T02:59:50.105Z</time>
      </trkpt>
      <trkpt lat="48.872252" lon="2.158060">
        <ele>24.868737</ele>
        <time>2025-09-08T02:59:52.997Z</time>
      </trkpt>
      <trkpt lat="48.872481" lon="2.157930">
        <ele>25.011462</ele>
        <time>2025-09-08T03:00:00.154Z</time>
      </trkpt>
      <trkpt lat="48.872618" lon="2.157898">
        <ele>25.095733</ele>
        <time>2025-09-08T03:00:04.372Z</time>
      </trkpt>
      <trkpt lat="48.872722" lon="2.157793">
        <ele>25.171635</ele>
        <time>2025-09-08T03:00:08.170Z</time>
      </trkpt>
      <trkpt lat="48.872793" lon="2.157654">
        <ele>25.242013</ele>
        <time>2025-09-08T03:00:11.716Z</time>
      </trkpt>
      <trkpt lat="48.872865" lon="2.157428">
        <ele>25.342432</ele>
        <time>2025-09-08T03:00:16.741Z</time>
      </trkpt>
      <trkpt lat="48.872922" lon="2.157060">
        <ele>25.493617</ele>
        <time>2025-09-08T03:00:23.996Z</time>
      </trkpt>
      <trkpt lat="48.872911" lon="2.156689">
        <ele>25.642127</ele>
        <time>2025-09-08T03:00:30.831Z</time>
      </trkpt>
      <trkpt lat="48.872862" lon="2.156414">
        <ele>25.756060</ele>
        <time>2025-09-08T03:00:35.947Z</time>
      </trkpt>
      <trkpt lat="48.872856" lon="2.156193">
        <ele>25.844511</ele>
        <time>2025-09-08T03:00:39.764Z</time>
      </trkpt>
      <trkpt lat="48.872889" lon="2.156003">
        <ele>25.923095</ele>
        <time>2025-09-08T03:00:43.030Z</time>
      </trkpt>
      <trkpt lat="48.872827" lon="2.155957">
        <ele>25.956595</ele>
        <time>2025-09-08T03:00:44.773Z</time>
      </trkpt>
      <trkpt lat="48.872794" lon="2.155864">
        <ele>25.926210</ele>
        <time>2025-09-08T03:00:46.434Z</time>
      </trkpt>
      <trkpt lat="48.872805" lon="2.155760">
        <ele>25.895920</ele>
        <time>2025-09-08T03:00:48.096Z</time>
      </trkpt>
      <trkpt lat="48.872886" lon="2.155668">
        <ele>25.851718</ele>
        <time>2025-09-08T03:00:50.470Z</time>
      </trkpt>
      <trkpt lat="48.872771" lon="2.155504">
        <ele>25.782787</ele>
        <time>2025-09-08T03:00:54.151Z</time>
      </trkpt>
      <trkpt lat="48.872547" lon="2.155379">
        <ele>25.678470</ele>
        <time>2025-09-08T03:00:59.786Z</time>
      </trkpt>
      <trkpt lat="48.872384" lon="2.155283">
        <ele>25.602050</ele>
        <time>2025-09-08T03:01:04.660Z</time>
      </trkpt>
      <trkpt lat="48.871882" lon="2.154692">
        <ele>25.324479</ele>
        <time>2025-09-08T03:01:22.110Z</time>
      </trkpt>
      <trkpt lat="48.871882" lon="2.154692">
        <ele>25.324479</ele>
        <time>2025-09-08T03:01:22.121Z</time>
      </trkpt>
      <trkpt lat="48.871781" lon="2.154491">
        <ele>25.251744</ele>
        <time>2025-09-08T03:01:26.792Z</time>
      </trkpt>
      <trkpt lat="48.871744" lon="2.154393">
        <ele>25.219251</ele>
        <time>2025-09-08T03:01:28.903Z</time>
      </trkpt>
      <trkpt lat="48.871746" lon="2.154233">
        <ele>25.173181</ele>
        <time>2025-09-08T03:01:31.825Z</time>
      </trkpt>
      <trkpt lat="48.871827" lon="2.154047">
        <ele>25.102952</ele>
        <time>2025-09-08T03:01:35.904Z</time>
      </trkpt>
      <trkpt lat="48.871925" lon="2.153909">
        <ele>25.039016</ele>
        <time>2025-09-08T03:01:39.576Z</time>
      </trkpt>
      <trkpt lat="48.872073" lon="2.153763">
        <ele>24.954571</ele>
        <time>2025-09-08T03:01:44.442Z</time>
      </trkpt>
      <trkpt lat="48.872309" lon="2.153537">
        <ele>24.821071</ele>
        <time>2025-09-08T03:01:52.194Z</time>
      </trkpt>
      <trkpt lat="48.872500" lon="2.153262">
        <ele>24.695161</ele>
        <time>2025-09-08T03:01:59.540Z</time>
      </trkpt>
      <trkpt lat="48.872697" lon="2.153175">
        <ele>24.596970</ele>
        <time>2025-09-08T03:02:05.151Z</time>
      </trkpt>
      <trkpt lat="48.872831" lon="2.153289">
        <ele>24.523474</ele>
        <time>2025-09-08T03:02:08.314Z</time>
      </trkpt>
      <trkpt lat="48.874316" lon="2.154337">
        <ele>24.129114</ele>
        <time>2025-09-08T03:02:43.778Z</time>
      </trkpt>
      <trkpt lat="48.875002" lon="2.154814">
        <ele>24.081744</ele>
        <time>2025-09-08T03:03:00.371Z</time>
      </trkpt>
      <trkpt lat="48.876346" lon="2.155861">
        <ele>24.525709</ele>
        <time>2025-09-08T03:03:35.753Z</time>
      </trkpt>
      <trkpt lat="48.876842" lon="2.156208">
        <ele>24.765817</ele>
        <time>2025-09-08T03:03:50.759Z</time>
      </trkpt>
      <trkpt lat="48.876880" lon="2.156235">
        <ele>24.786284</ele>
        <time>2025-09-08T03:03:51.872Z</time>
      </trkpt>
      <trkpt lat="48.877690" lon="2.156801">
        <ele>25.221258</ele>
        <time>2025-09-08T03:04:14.853Z</time>
      </trkpt>
      <trkpt lat="48.878547" lon="2.157398">
        <ele>25.379841</ele>
        <time>2025-09-08T03:04:35.262Z</time>
      </trkpt>
      <trkpt lat="48.879396" lon="2.157903">
        <ele>25.261392</ele>
        <time>2025-09-08T03:04:54.617Z</time>
      </trkpt>
      <trkpt lat="48.879908" lon="2.158316">
        <ele>25.239463</ele>
        <time>2025-09-08T03:05:08.058Z</time>
      </trkpt>
      <trkpt lat="48.880263" lon="2.158822">
        <ele>25.320241</ele>
        <time>2025-09-08T03:05:19.637Z</time>
      </trkpt>
      <trkpt lat="48.880472" lon="2.159277">
        <ele>25.380834</ele>
        <time>2025-09-08T03:05:28.314Z</time>
      </trkpt>
      <trkpt lat="48.881012" lon="2.160901">
        <ele>25.449427</ele>
        <time>2025-09-08T03:05:55.644Z</time>
      </trkpt>
      <trkpt lat="48.880992" lon="2.161041">
        <ele>25.436569</ele>
        <time>2025-09-08T03:05:59.120Z</time>
      </trkpt>
      <trkpt lat="48.881009" lon="2.161095">
        <ele>25.431195</ele>
        <time>2025-09-08T03:05:59.973Z</time>
      </trkpt>
      <trkpt lat="48.881304" lon="2.162021">
        <ele>25.338842</ele>
        <time>2025-09-08T03:06:14.610Z</time>
      </trkpt>
      <trkpt lat="48.881348" lon="2.162175">
        <ele>25.323772</ele>
        <time>2025-09-08T03:06:16.976Z</time>
      </trkpt>
      <trkpt lat="48.881444" lon="2.162325">
        <ele>25.304985</ele>
        <time>2025-09-08T03:06:19.980Z</time>
      </trkpt>
      <trkpt lat="48.881511" lon="2.162432">
        <ele>25.291724</ele>
        <time>2025-09-08T03:06:22.105Z</time>
      </trkpt>
      <trkpt lat="48.882037" lon="2.163231">
        <ele>25.166161</ele>
        <time>2025-09-08T03:06:38.053Z</time>
      </trkpt>
      <trkpt lat="48.882289" lon="2.163537">
        <ele>25.107498</ele>
        <time>2025-09-08T03:06:45.044Z</time>
      </trkpt>
      <trkpt lat="48.882309" lon="2.163556">
        <ele>25.103208</ele>
        <time>2025-09-08T03:06:45.558Z</time>
      </trkpt>
      <trkpt lat="48.882366" lon="2.163612">
        <ele>25.090863</ele>
        <time>2025-09-08T03:06:47.050Z</time>
      </trkpt>
      <trkpt lat="48.882574" lon="2.163815">
        <ele>25.045904</ele>
        <time>2025-09-08T03:06:52.474Z</time>
      </trkpt>
      <trkpt lat="48.882802" lon="2.163975">
        <ele>25.000225</ele>
        <time>2025-09-08T03:06:57.986Z</time>
      </trkpt>
      <trkpt lat="48.883045" lon="2.164133">
        <ele>24.952150</ele>
        <time>2025-09-08T03:07:03.821Z</time>
      </trkpt>
      <trkpt lat="48.883429" lon="2.164294">
        <ele>24.875973</ele>
        <time>2025-09-08T03:07:12.470Z</time>
      </trkpt>
      <trkpt lat="48.884075" lon="2.164446">
        <ele>24.749133</ele>
        <time>2025-09-08T03:07:26.323Z</time>
      </trkpt>
      <trkpt lat="48.884224" lon="2.164477">
        <ele>24.719952</ele>
        <time>2025-09-08T03:07:29.533Z</time>
      </trkpt>
      <trkpt lat="48.884526" lon="2.164438">
        <ele>24.661142</ele>
        <time>2025-09-08T03:07:36.088Z</time>
      </trkpt>
      <trkpt lat="48.884879" lon="2.164338">
        <ele>24.591468</ele>
        <time>2025-09-08T03:07:44.148Z</time>
      </trkpt>
      <trkpt lat="48.885109" lon="2.164235">
        <ele>24.539564</ele>
        <time>2025-09-08T03:07:49.920Z</time>
      </trkpt>
      <trkpt lat="48.885445" lon="2.164085">
        <ele>24.462804</ele>
        <time>2025-09-08T03:07:57.386Z</time>
      </trkpt>
      <trkpt lat="48.885505" lon="2.164059">
        <ele>24.449128</ele>
        <time>2025-09-08T03:07:58.730Z</time>
      </trkpt>
      <trkpt lat="48.885554" lon="2.164039">
        <ele>24.438007</ele>
        <time>2025-09-08T03:07:59.876Z</time>
      </trkpt>
      <trkpt lat="48.885626" lon="2.163925">
        <ele>24.415224</ele>
        <time>2025-09-08T03:08:02.022Z</time>
      </trkpt>
      <trkpt lat="48.885805" lon="2.163874">
        <ele>24.375304</ele>
        <time>2025-09-08T03:08:05.867Z</time>
      </trkpt>
      <trkpt lat="48.885997" lon="2.163985">
        <ele>24.330278</ele>
        <time>2025-09-08T03:08:10.161Z</time>
      </trkpt>
      <trkpt lat="48.886457" lon="2.163890">
        <ele>24.228520</ele>
        <time>2025-09-08T03:08:19.825Z</time>
      </trkpt>
      <trkpt lat="48.887083" lon="2.163822">
        <ele>24.957445</ele>
        <time>2025-09-08T03:08:34.442Z</time>
      </trkpt>
      <trkpt lat="48.887382" lon="2.163805">
        <ele>25.453320</ele>
        <time>2025-09-08T03:08:43.178Z</time>
      </trkpt>
      <trkpt lat="48.887820" lon="2.163872">
        <ele>26.182873</ele>
        <time>2025-09-08T03:08:57.926Z</time>
      </trkpt>
      <trkpt lat="48.887847" lon="2.163963">
        <ele>26.291666</ele>
        <time>2025-09-08T03:09:00.264Z</time>
      </trkpt>
      <trkpt lat="48.887947" lon="2.163955">
        <ele>26.457624</ele>
        <time>2025-09-08T03:09:03.738Z</time>
      </trkpt>
      <trkpt lat="48.888220" lon="2.164065">
        <ele>26.925673</ele>
        <time>2025-09-08T03:09:13.913Z</time>
      </trkpt>
      <trkpt lat="48.888307" lon="2.164162">
        <ele>27.104452</ele>
        <time>2025-09-08T03:09:17.964Z</time>
      </trkpt>
      <trkpt lat="48.888465" lon="2.164208">
        <ele>27.281308</ele>
        <time>2025-09-08T03:09:24.159Z</time>
      </trkpt>
      <trkpt lat="48.889110" lon="2.164735">
        <ele>27.944780</ele>
        <time>2025-09-08T03:09:49.616Z</time>
      </trkpt>
      <trkpt lat="48.889351" lon="2.164981">
        <ele>28.207789</ele>
        <time>2025-09-08T03:09:55.955Z</time>
      </trkpt>
      <trkpt lat="48.889554" lon="2.165100">
        <ele>28.404929</ele>
        <time>2025-09-08T03:10:00.479Z</time>
      </trkpt>
      <trkpt lat="48.889869" lon="2.165243">
        <ele>28.702812</ele>
        <time>2025-09-08T03:10:07.109Z</time>
      </trkpt>
      <trkpt lat="48.890035" lon="2.165414">
        <ele>28.715273</ele>
        <time>2025-09-08T03:10:11.132Z</time>
      </trkpt>
      <trkpt lat="48.890062" lon="2.165451">
        <ele>28.679920</ele>
        <time>2025-09-08T03:10:11.835Z</time>
      </trkpt>
      <trkpt lat="48.890194" lon="2.165595">
        <ele>28.521902</ele>
        <time>2025-09-08T03:10:15.093Z</time>
      </trkpt>
      <trkpt lat="48.890670" lon="2.166275">
        <ele>27.886647</ele>
        <time>2025-09-08T03:10:27.608Z</time>
      </trkpt>
      <trkpt lat="48.890706" lon="2.166415">
        <ele>27.790501</ele>
        <time>2025-09-08T03:10:29.413Z</time>
      </trkpt>
      <trkpt lat="48.890699" lon="2.166534">
        <ele>27.714087</ele>
        <time>2025-09-08T03:10:30.916Z</time>
      </trkpt>
      <trkpt lat="48.890735" lon="2.166577">
        <ele>27.669560</ele>
        <time>2025-09-08T03:10:31.770Z</time>
      </trkpt>
      <trkpt lat="48.890881" lon="2.166753">
        <ele>27.488338</ele>
        <time>2025-09-08T03:10:35.469Z</time>
      </trkpt>
      <trkpt lat="48.891012" lon="2.166879">
        <ele>27.337565</ele>
        <time>2025-09-08T03:10:38.840Z</time>
      </trkpt>
      <trkpt lat="48.891173" lon="2.166869">
        <ele>27.180821</ele>
        <time>2025-09-08T03:10:42.374Z</time>
      </trkpt>
      <trkpt lat="48.891407" lon="2.167134">
        <ele>27.004295</ele>
        <time>2025-09-08T03:10:48.904Z</time>
      </trkpt>
      <trkpt lat="48.891489" lon="2.167031">
        <ele>26.971876</ele>
        <time>2025-09-08T03:10:51.300Z</time>
      </trkpt>
      <trkpt lat="48.891522" lon="2.167028">
        <ele>26.961799</ele>
        <time>2025-09-08T03:10:52.137Z</time>
      </trkpt>
      <trkpt lat="48.891543" lon="2.167032">
        <ele>26.955347</ele>
        <time>2025-09-08T03:10:52.687Z</time>
      </trkpt>
      <trkpt lat="48.891761" lon="2.167131">
        <ele>26.885995</ele>
        <time>2025-09-08T03:10:58.510Z</time>
      </trkpt>
      <trkpt lat="48.891961" lon="2.167340">
        <ele>26.812025</ele>
        <time>2025-09-08T03:11:04.514Z</time>
      </trkpt>
      <trkpt lat="48.892183" lon="2.167449">
        <ele>26.740914</ele>
        <time>2025-09-08T03:11:10.025Z</time>
      </trkpt>
      <trkpt lat="48.892462" lon="2.167548">
        <ele>26.653582</ele>
        <time>2025-09-08T03:11:16.725Z</time>
      </trkpt>
      <trkpt lat="48.892491" lon="2.167558">
        <ele>26.644518</ele>
        <time>2025-09-08T03:11:17.413Z</time>
      </trkpt>
      <trkpt lat="48.892814" lon="2.167673">
        <ele>26.543395</ele>
        <time>2025-09-08T03:11:25.382Z</time>
      </trkpt>
      <trkpt lat="48.893076" lon="2.167765">
        <ele>26.452899</ele>
        <time>2025-09-08T03:11:31.664Z</time>
      </trkpt>
      <trkpt lat="48.893570" lon="2.167973">
        <ele>26.266038</ele>
        <time>2025-09-08T03:11:43.737Z</time>
      </trkpt>
      <trkpt lat="48.894061" lon="2.168249">
        <ele>26.075211</ele>
        <time>2025-09-08T03:11:55.666Z</time>
      </trkpt>
      <trkpt lat="48.894132" lon="2.168290">
        <ele>26.047526</ele>
        <time>2025-09-08T03:11:58.431Z</time>
      </trkpt>
      <trkpt lat="48.894249" lon="2.168360">
        <ele>26.001692</ele>
        <time>2025-09-08T03:12:03.018Z</time>
      </trkpt>
      <trkpt lat="48.894412" lon="2.168519">
        <ele>25.931101</ele>
        <time>2025-09-08T03:12:10.149Z</time>
      </trkpt>
      <trkpt lat="48.894569" lon="2.168718">
        <ele>25.856598</ele>
        <time>2025-09-08T03:12:17.729Z</time>
      </trkpt>
      <trkpt lat="48.894727" lon="2.168918">
        <ele>25.864404</ele>
        <time>2025-09-08T03:12:25.607Z</time>
      </trkpt>
      <trkpt lat="48.895067" lon="2.169263">
        <ele>25.897759</ele>
        <time>2025-09-08T03:12:41.068Z</time>
      </trkpt>
      <trkpt lat="48.895525" lon="2.169843">
        <ele>25.946394</ele>
        <time>2025-09-08T03:13:03.462Z</time>
      </trkpt>
      <trkpt lat="48.896015" lon="2.170424">
        <ele>25.997275</ele>
        <time>2025-09-08T03:13:26.934Z</time>
      </trkpt>
      <trkpt lat="48.896485" lon="2.171066">
        <ele>26.057675</ele>
        <time>2025-09-08T03:13:50.131Z</time>
      </trkpt>
      <trkpt lat="48.896730" lon="2.171449">
        <ele>26.091267</ele>
        <time>2025-09-08T03:14:03.134Z</time>
      </trkpt>
      <trkpt lat="48.897700" lon="2.173119">
        <ele>26.385123</ele>
        <time>2025-09-08T03:14:59.057Z</time>
      </trkpt>
      <trkpt lat="48.899558" lon="2.176164">
        <ele>27.249151</ele>
        <time>2025-09-08T03:16:45.886Z</time>
      </trkpt>
      <trkpt lat="48.899926" lon="2.176941">
        <ele>27.058477</ele>
        <time>2025-09-08T03:17:09.061Z</time>
      </trkpt>
      <trkpt lat="48.900214" lon="2.177659">
        <ele>26.729060</ele>
        <time>2025-09-08T03:17:28.721Z</time>
      </trkpt>
      <trkpt lat="48.900607" lon="2.178668">
        <ele>26.269733</ele>
        <time>2025-09-08T03:17:55.085Z</time>
      </trkpt>
      <trkpt lat="48.900613" lon="2.178768">
        <ele>26.233375</ele>
        <time>2025-09-08T03:17:57.404Z</time>
      </trkpt>
      <trkpt lat="48.900670" lon="2.178948">
        <ele>26.178316</ele>
        <time>2025-09-08T03:18:01.948Z</time>
      </trkpt>
      <trkpt lat="48.900658" lon="2.179095">
        <ele>26.137495</ele>
        <time>2025-09-08T03:18:05.330Z</time>
      </trkpt>
      <trkpt lat="48.900691" lon="2.179120">
        <ele>26.122040</ele>
        <time>2025-09-08T03:18:06.607Z</time>
      </trkpt>
      <trkpt lat="48.900714" lon="2.179122">
        <ele>26.112383</ele>
        <time>2025-09-08T03:18:07.425Z</time>
      </trkpt>
      <trkpt lat="48.900734" lon="2.179124">
        <ele>26.103980</ele>
        <time>2025-09-08T03:18:08.145Z</time>
      </trkpt>
      <trkpt lat="48.900749" lon="2.179272">
        <ele>26.062713</ele>
        <time>2025-09-08T03:18:11.587Z</time>
      </trkpt>
      <trkpt lat="48.900841" lon="2.179480">
        <ele>25.993626</ele>
        <time>2025-09-08T03:18:17.468Z</time>
      </trkpt>
      <trkpt lat="48.900851" lon="2.179627">
        <ele>25.952900</ele>
        <time>2025-09-08T03:18:20.977Z</time>
      </trkpt>
      <trkpt lat="48.900866" lon="2.179626">
        <ele>25.946606</ele>
        <time>2025-09-08T03:18:21.511Z</time>
      </trkpt>
      <trkpt lat="48.900878" lon="2.179627">
        <ele>25.941568</ele>
        <time>2025-09-08T03:18:21.917Z</time>
      </trkpt>
      <trkpt lat="48.900878" lon="2.179653">
        <ele>25.934403</ele>
        <time>2025-09-08T03:18:22.537Z</time>
      </trkpt>
      <trkpt lat="48.900784" lon="2.179706">
        <ele>25.892377</ele>
        <time>2025-09-08T03:18:26.139Z</time>
      </trkpt>
      <trkpt lat="48.900690" lon="2.179818">
        <ele>25.842323</ele>
        <time>2025-09-08T03:18:30.405Z</time>
      </trkpt>
      <trkpt lat="48.900623" lon="2.179963">
        <ele>25.793480</ele>
        <time>2025-09-08T03:18:34.519Z</time>
      </trkpt>
      <trkpt lat="48.900608" lon="2.180042">
        <ele>25.770820</ele>
        <time>2025-09-08T03:18:36.415Z</time>
      </trkpt>
      <trkpt lat="48.900625" lon="2.180245">
        <ele>25.714426</ele>
        <time>2025-09-08T03:18:41.143Z</time>
      </trkpt>
      <trkpt lat="48.900799" lon="2.180816">
        <ele>25.540987</ele>
        <time>2025-09-08T03:18:56.330Z</time>
      </trkpt>
      <trkpt lat="48.900813" lon="2.180864">
        <ele>25.526516</ele>
        <time>2025-09-08T03:18:57.151Z</time>
      </trkpt>
      <trkpt lat="48.900825" lon="2.180903">
        <ele>25.514649</ele>
        <time>2025-09-08T03:18:57.818Z</time>
      </trkpt>
      <trkpt lat="48.900837" lon="2.180942">
        <ele>25.502783</ele>
        <time>2025-09-08T03:18:58.906Z</time>
      </trkpt>
      <trkpt lat="48.900931" lon="2.180909">
        <ele>25.510556</ele>
        <time>2025-09-08T03:19:02.730Z</time>
      </trkpt>
      <trkpt lat="48.901118" lon="2.180932">
        <ele>25.589459</ele>
        <time>2025-09-08T03:19:10.112Z</time>
      </trkpt>
      <trkpt lat="48.901300" lon="2.180825">
        <ele>25.671519</ele>
        <time>2025-09-08T03:19:17.787Z</time>
      </trkpt>
      <trkpt lat="48.901388" lon="2.180757">
        <ele>25.713030</ele>
        <time>2025-09-08T03:19:21.650Z</time>
      </trkpt>
      <trkpt lat="48.901404" lon="2.180807">
        <ele>25.728404</ele>
        <time>2025-09-08T03:19:22.846Z</time>
      </trkpt>
      <trkpt lat="48.901404" lon="2.180807">
        <ele>25.728404</ele>
        <time>2025-09-08T03:19:22.846Z</time>
      </trkpt>
      <trkpt lat="48.902122" lon="2.183000">
        <ele>26.239894</ele>
        <time>2025-09-08T03:20:14.153Z</time>
      </trkpt>
      <trkpt lat="48.902344" lon="2.183872">
        <ele>26.235189</ele>
        <time>2025-09-08T03:20:32.402Z</time>
      </trkpt>
      <trkpt lat="48.902455" lon="2.184374">
        <ele>26.232525</ele>
        <time>2025-09-08T03:20:42.329Z</time>
      </trkpt>
      <trkpt lat="48.902527" lon="2.184958">
        <ele>26.229536</ele>
        <time>2025-09-08T03:20:53.242Z</time>
      </trkpt>
      <trkpt lat="48.902773" lon="2.186226">
        <ele>26.175002</ele>
        <time>2025-09-08T03:21:18.152Z</time>
      </trkpt>
      <trkpt lat="48.902800" lon="2.186361">
        <ele>26.168816</ele>
        <time>2025-09-08T03:21:20.848Z</time>
      </trkpt>
      <trkpt lat="48.903053" lon="2.187647">
        <ele>26.109970</ele>
        <time>2025-09-08T03:21:47.059Z</time>
      </trkpt>
      <trkpt lat="48.903558" lon="2.189572">
        <ele>26.284407</ele>
        <time>2025-09-08T03:22:27.928Z</time>
      </trkpt>
      <trkpt lat="48.903912" lon="2.191069">
        <ele>26.447520</ele>
        <time>2025-09-08T03:22:59.111Z</time>
      </trkpt>
      <trkpt lat="48.904426" lon="2.193217">
        <ele>26.750153</ele>
        <time>2025-09-08T03:23:44.495Z</time>
      </trkpt>
      <trkpt lat="48.904510" lon="2.193462">
        <ele>26.805428</ele>
        <time>2025-09-08T03:23:50.008Z</time>
      </trkpt>
      <trkpt lat="48.904461" lon="2.193582">
        <ele>26.833687</ele>
        <time>2025-09-08T03:23:52.198Z</time>
      </trkpt>
      <trkpt lat="48.904269" lon="2.193886">
        <ele>26.918020</ele>
        <time>2025-09-08T03:23:58.792Z</time>
      </trkpt>
      <trkpt lat="48.904235" lon="2.193874">
        <ele>26.928642</ele>
        <time>2025-09-08T03:23:59.622Z</time>
      </trkpt>
      <trkpt lat="48.904187" lon="2.193840">
        <ele>26.944755</ele>
        <time>2025-09-08T03:24:00.884Z</time>
      </trkpt>
      <trkpt lat="48.904158" lon="2.193796">
        <ele>26.957219</ele>
        <time>2025-09-08T03:24:01.861Z</time>
      </trkpt>
      <trkpt lat="48.904107" lon="2.193800">
        <ele>26.972760</ele>
        <time>2025-09-08T03:24:03.089Z</time>
      </trkpt>
      <trkpt lat="48.904095" lon="2.193820">
        <ele>26.978177</ele>
        <time>2025-09-08T03:24:03.752Z</time>
      </trkpt>
      <trkpt lat="48.903761" lon="2.194362">
        <ele>27.126792</ele>
        <time>2025-09-08T03:24:22.934Z</time>
      </trkpt>
      <trkpt lat="48.903052" lon="2.195529">
        <ele>27.409780</ele>
        <time>2025-09-08T03:25:03.100Z</time>
      </trkpt>
      <trkpt lat="48.901797" lon="2.197598">
        <ele>27.667414</ele>
        <time>2025-09-08T03:26:13.915Z</time>
      </trkpt>
      <trkpt lat="48.901251" lon="2.198501">
        <ele>27.661765</ele>
        <time>2025-09-08T03:26:43.046Z</time>
      </trkpt>
      <trkpt lat="48.900878" lon="2.199118">
        <ele>27.921976</ele>
        <time>2025-09-08T03:27:03.119Z</time>
      </trkpt>
      <trkpt lat="48.900466" lon="2.199788">
        <ele>28.320474</ele>
        <time>2025-09-08T03:27:18.949Z</time>
      </trkpt>
      <trkpt lat="48.900334" lon="2.199997">
        <ele>28.446365</ele>
        <time>2025-09-08T03:27:24.323Z</time>
      </trkpt>
      <trkpt lat="48.900222" lon="2.200047">
        <ele>28.523490</ele>
        <time>2025-09-08T03:27:27.627Z</time>
      </trkpt>
      <trkpt lat="48.900177" lon="2.200080">
        <ele>28.556498</ele>
        <time>2025-09-08T03:27:29.057Z</time>
      </trkpt>
      <trkpt lat="48.900133" lon="2.200158">
        <ele>28.601143</ele>
        <time>2025-09-08T03:27:30.974Z</time>
      </trkpt>
      <trkpt lat="48.900120" lon="2.200181">
        <ele>28.614318</ele>
        <time>2025-09-08T03:27:31.530Z</time>
      </trkpt>
      <trkpt lat="48.900026" lon="2.200343">
        <ele>28.708175</ele>
        <time>2025-09-08T03:27:35.646Z</time>
      </trkpt>
      <trkpt lat="48.899748" lon="2.200781">
        <ele>28.944505</ele>
        <time>2025-09-08T03:27:53.084Z</time>
      </trkpt>
      <trkpt lat="48.899706" lon="2.200848">
        <ele>28.975560</ele>
        <time>2025-09-08T03:27:54.832Z</time>
      </trkpt>
      <trkpt lat="48.899620" lon="2.200967">
        <ele>29.034882</ele>
        <time>2025-09-08T03:27:58.182Z</time>
      </trkpt>
      <trkpt lat="48.899566" lon="2.201030">
        <ele>29.069607</ele>
        <time>2025-09-08T03:28:00.153Z</time>
      </trkpt>
      <trkpt lat="48.899619" lon="2.201107">
        <ele>29.107004</ele>
        <time>2025-09-08T03:28:02.213Z</time>
      </trkpt>
      <trkpt lat="48.899694" lon="2.201234">
        <ele>29.164271</ele>
        <time>2025-09-08T03:28:05.305Z</time>
      </trkpt>
      <trkpt lat="48.900085" lon="2.201902">
        <ele>29.464296</ele>
        <time>2025-09-08T03:28:28.529Z</time>
      </trkpt>
      <trkpt lat="48.900161" lon="2.202033">
        <ele>29.522904</ele>
        <time>2025-09-08T03:28:32.715Z</time>
      </trkpt>
      <trkpt lat="48.901081" lon="2.203459">
        <ele>29.857950</ele>
        <time>2025-09-08T03:30:03.987Z</time>
      </trkpt>
      <trkpt lat="48.901081" lon="2.203459">
        <ele>29.857950</ele>
        <time>2025-09-08T03:30:04.013Z</time>
      </trkpt>
      <trkpt lat="48.901978" lon="2.204798">
        <ele>30.142487</ele>
        <time>2025-09-08T03:31:31.340Z</time>
      </trkpt>
      <trkpt lat="48.902061" lon="2.204879">
        <ele>30.202849</ele>
        <time>2025-09-08T03:31:38.198Z</time>
      </trkpt>
      <trkpt lat="48.902152" lon="2.205010">
        <ele>30.279540</ele>
        <time>2025-09-08T03:31:41.044Z</time>
      </trkpt>
      <trkpt lat="48.902862" lon="2.206085">
        <ele>30.892721</ele>
        <time>2025-09-08T03:32:05.950Z</time>
      </trkpt>
      <trkpt lat="48.902865" lon="2.206106">
        <ele>30.901368</ele>
        <time>2025-09-08T03:32:06.289Z</time>
      </trkpt>
      <trkpt lat="48.902893" lon="2.206298">
        <ele>30.980502</ele>
        <time>2025-09-08T03:32:09.785Z</time>
      </trkpt>
      <trkpt lat="48.902913" lon="2.206331">
        <ele>30.998563</ele>
        <time>2025-09-08T03:32:10.532Z</time>
      </trkpt>
      <trkpt lat="48.902257" lon="2.207328">
        <ele>31.937358</ele>
        <time>2025-09-08T03:32:37.808Z</time>
      </trkpt>
      <trkpt lat="48.902067" lon="2.207704">
        <ele>32.269228</ele>
        <time>2025-09-08T03:32:47.282Z</time>
      </trkpt>
      <trkpt lat="48.901842" lon="2.208360">
        <ele>32.787008</ele>
        <time>2025-09-08T03:33:00.742Z</time>
      </trkpt>
      <trkpt lat="48.901520" lon="2.209440">
        <ele>33.082857</ele>
        <time>2025-09-08T03:33:18.048Z</time>
      </trkpt>
      <trkpt lat="48.901512" lon="2.209465">
        <ele>33.086034</ele>
        <time>2025-09-08T03:33:18.439Z</time>
      </trkpt>
      <trkpt lat="48.901401" lon="2.209814">
        <ele>33.130328</ele>
        <time>2025-09-08T03:33:23.952Z</time>
      </trkpt>
      <trkpt lat="48.901356" lon="2.209955">
        <ele>33.148235</ele>
        <time>2025-09-08T03:33:26.180Z</time>
      </trkpt>
      <trkpt lat="48.901292" lon="2.210190">
        <ele>33.177297</ele>
        <time>2025-09-08T03:33:29.877Z</time>
      </trkpt>
      <trkpt lat="48.901252" lon="2.210351">
        <ele>33.196961</ele>
        <time>2025-09-08T03:33:32.427Z</time>
      </trkpt>
      <trkpt lat="48.901234" lon="2.210422">
        <ele>33.205655</ele>
        <time>2025-09-08T03:33:33.595Z</time>
      </trkpt>
      <trkpt lat="48.901180" lon="2.210738">
        <ele>33.242958</ele>
        <time>2025-09-08T03:33:38.687Z</time>
      </trkpt>
      <trkpt lat="48.901194" lon="2.211462">
        <ele>33.507428</ele>
        <time>2025-09-08T03:33:50.255Z</time>
      </trkpt>
      <trkpt lat="48.901258" lon="2.212223">
        <ele>34.057503</ele>
        <time>2025-09-08T03:34:02.922Z</time>
      </trkpt>
      <trkpt lat="48.901247" lon="2.212356">
        <ele>34.153614</ele>
        <time>2025-09-08T03:34:05.281Z</time>
      </trkpt>
      <trkpt lat="48.901205" lon="2.212486">
        <ele>34.257471</ele>
        <time>2025-09-08T03:34:07.919Z</time>
      </trkpt>
      <trkpt lat="48.901008" lon="2.212749">
        <ele>34.543351</ele>
        <time>2025-09-08T03:34:15.445Z</time>
      </trkpt>
      <trkpt lat="48.900962" lon="2.212809">
        <ele>34.609442</ele>
        <time>2025-09-08T03:34:17.248Z</time>
      </trkpt>
      <trkpt lat="48.900899" lon="2.212888">
        <ele>34.698493</ele>
        <time>2025-09-08T03:34:19.702Z</time>
      </trkpt>
      <trkpt lat="48.900718" lon="2.213116">
        <ele>34.954809</ele>
        <time>2025-09-08T03:34:27.038Z</time>
      </trkpt>
      <trkpt lat="48.900692" lon="2.213147">
        <ele>34.990840</ele>
        <time>2025-09-08T03:34:28.024Z</time>
      </trkpt>
      <trkpt lat="48.900663" lon="2.213188">
        <ele>35.034022</ele>
        <time>2025-09-08T03:34:29.269Z</time>
      </trkpt>
      <trkpt lat="48.900382" lon="2.213530">
        <ele>35.664964</ele>
        <time>2025-09-08T03:34:40.211Z</time>
      </trkpt>
      <trkpt lat="48.900103" lon="2.213866">
        <ele>36.586561</ele>
        <time>2025-09-08T03:34:50.948Z</time>
      </trkpt>
      <trkpt lat="48.900037" lon="2.213992">
        <ele>36.860851</ele>
        <time>2025-09-08T03:34:54.282Z</time>
      </trkpt>
      <trkpt lat="48.899948" lon="2.214119">
        <ele>37.176889</ele>
        <time>2025-09-08T03:34:58.364Z</time>
      </trkpt>
      <trkpt lat="48.899799" lon="2.213958">
        <ele>37.650222</ele>
        <time>2025-09-08T03:35:05.122Z</time>
      </trkpt>
      <trkpt lat="48.899404" lon="2.213796">
        <ele>38.709747</ele>
        <time>2025-09-08T03:35:20.766Z</time>
      </trkpt>
      <trkpt lat="48.899180" lon="2.213775">
        <ele>39.290977</ele>
        <time>2025-09-08T03:35:30.047Z</time>
      </trkpt>
      <trkpt lat="48.899088" lon="2.213817">
        <ele>39.539744</ele>
        <time>2025-09-08T03:35:33.636Z</time>
      </trkpt>
      <trkpt lat="48.898914" lon="2.213798">
        <ele>39.991831</ele>
        <time>2025-09-08T03:35:40.441Z</time>
      </trkpt>
      <trkpt lat="48.898826" lon="2.214057">
        <ele>40.490011</ele>
        <time>2025-09-08T03:35:47.645Z</time>
      </trkpt>
      <trkpt lat="48.898857" lon="2.214065">
        <ele>40.571740</ele>
        <time>2025-09-08T03:35:48.720Z</time>
      </trkpt>
      <trkpt lat="48.898908" lon="2.214078">
        <ele>40.706152</ele>
        <time>2025-09-08T03:35:50.380Z</time>
      </trkpt>
      <trkpt lat="48.898763" lon="2.214580">
        <ele>41.643090</ele>
        <time>2025-09-08T03:36:04.124Z</time>
      </trkpt>
      <trkpt lat="48.898755" lon="2.214605">
        <ele>41.690601</ele>
        <time>2025-09-08T03:36:04.826Z</time>
      </trkpt>
      <trkpt lat="48.898747" lon="2.214637">
        <ele>41.749101</ele>
        <time>2025-09-08T03:36:05.620Z</time>
      </trkpt>
      <trkpt lat="48.898660" lon="2.214951">
        <ele>42.331356</ele>
        <time>2025-09-08T03:36:13.493Z</time>
      </trkpt>
      <trkpt lat="48.898585" lon="2.215213">
        <ele>42.819651</ele>
        <time>2025-09-08T03:36:20.196Z</time>
      </trkpt>
      <trkpt lat="48.898564" lon="2.215289">
        <ele>42.960522</ele>
        <time>2025-09-08T03:36:22.034Z</time>
      </trkpt>
      <trkpt lat="48.898494" lon="2.215517">
        <ele>43.390510</ele>
        <time>2025-09-08T03:36:27.390Z</time>
      </trkpt>
      <trkpt lat="48.898474" lon="2.215586">
        <ele>43.519367</ele>
        <time>2025-09-08T03:36:28.887Z</time>
      </trkpt>
      <trkpt lat="48.898414" lon="2.215798">
        <ele>43.913768</ele>
        <time>2025-09-08T03:36:34.065Z</time>
      </trkpt>
      <trkpt lat="48.898344" lon="2.216045">
        <ele>44.373379</ele>
        <time>2025-09-08T03:36:42.496Z</time>
      </trkpt>
      <trkpt lat="48.898330" lon="2.216095">
        <ele>44.466244</ele>
        <time>2025-09-08T03:36:43.652Z</time>
      </trkpt>
      <trkpt lat="48.898285" lon="2.216263">
        <ele>44.762477</ele>
        <time>2025-09-08T03:36:47.330Z</time>
      </trkpt>
      <trkpt lat="48.898180" lon="2.216637">
        <ele>45.407022</ele>
        <time>2025-09-08T03:36:55.606Z</time>
      </trkpt>
      <trkpt lat="48.898170" lon="2.216675">
        <ele>45.471894</ele>
        <time>2025-09-08T03:36:56.459Z</time>
      </trkpt>
      <trkpt lat="48.898157" lon="2.216733">
        <ele>45.569015</ele>
        <time>2025-09-08T03:36:57.734Z</time>
      </trkpt>
      <trkpt lat="48.898136" lon="2.216809">
        <ele>45.699675</ele>
        <time>2025-09-08T03:36:59.451Z</time>
      </trkpt>
      <trkpt lat="48.897923" lon="2.217580">
        <ele>47.025156</ele>
        <time>2025-09-08T03:37:17.327Z</time>
      </trkpt>
      <trkpt lat="48.897796" lon="2.218040">
        <ele>47.815900</ele>
        <time>2025-09-08T03:37:29.074Z</time>
      </trkpt>
      <trkpt lat="48.897774" lon="2.218143">
        <ele>47.987547</ele>
        <time>2025-09-08T03:37:31.799Z</time>
      </trkpt>
      <trkpt lat="48.897803" lon="2.218216">
        <ele>48.122730</ele>
        <time>2025-09-08T03:37:33.919Z</time>
      </trkpt>
      <trkpt lat="48.897789" lon="2.218267">
        <ele>48.210324</ele>
        <time>2025-09-08T03:37:35.293Z</time>
      </trkpt>
      <trkpt lat="48.897776" lon="2.218312">
        <ele>48.288228</ele>
        <time>2025-09-08T03:37:36.565Z</time>
      </trkpt>
      <trkpt lat="48.897745" lon="2.218426">
        <ele>48.483756</ele>
        <time>2025-09-08T03:37:39.707Z</time>
      </trkpt>
      <trkpt lat="48.897731" lon="2.218475">
        <ele>48.568435</ele>
        <time>2025-09-08T03:37:41.043Z</time>
      </trkpt>
      <trkpt lat="48.897530" lon="2.219098">
        <ele>49.569014</ele>
        <time>2025-09-08T03:37:58.452Z</time>
      </trkpt>
      <trkpt lat="48.897509" lon="2.219158">
        <ele>49.662394</ele>
        <time>2025-09-08T03:38:00.121Z</time>
      </trkpt>
      <trkpt lat="48.897491" lon="2.219226">
        <ele>49.763099</ele>
        <time>2025-09-08T03:38:01.854Z</time>
      </trkpt>
      <trkpt lat="48.897483" lon="2.219251">
        <ele>49.801296</ele>
        <time>2025-09-08T03:38:02.502Z</time>
      </trkpt>
      <trkpt lat="48.897474" lon="2.219279">
        <ele>49.844114</ele>
        <time>2025-09-08T03:38:03.228Z</time>
      </trkpt>
      <trkpt lat="48.897464" lon="2.219312">
        <ele>49.894033</ele>
        <time>2025-09-08T03:38:04.069Z</time>
      </trkpt>
      <trkpt lat="48.897456" lon="2.219338">
        <ele>49.933469</ele>
        <time>2025-09-08T03:38:04.778Z</time>
      </trkpt>
      <trkpt lat="48.897450" lon="2.219356">
        <ele>49.961194</ele>
        <time>2025-09-08T03:38:05.274Z</time>
      </trkpt>
      <trkpt lat="48.897388" lon="2.219525">
        <ele>50.227066</ele>
        <time>2025-09-08T03:38:09.584Z</time>
      </trkpt>
      <trkpt lat="48.897346" lon="2.219557">
        <ele>50.325227</ele>
        <time>2025-09-08T03:38:11.224Z</time>
      </trkpt>
      <trkpt lat="48.897214" lon="2.219974">
        <ele>50.961044</ele>
        <time>2025-09-08T03:38:21.015Z</time>
      </trkpt>
      <trkpt lat="48.897149" lon="2.220181">
        <ele>51.276191</ele>
        <time>2025-09-08T03:38:26.020Z</time>
      </trkpt>
      <trkpt lat="48.897088" lon="2.220373">
        <ele>51.569144</ele>
        <time>2025-09-08T03:38:30.428Z</time>
      </trkpt>
      <trkpt lat="48.896963" lon="2.220771">
        <ele>52.175102</ele>
        <time>2025-09-08T03:38:39.188Z</time>
      </trkpt>
      <trkpt lat="48.896820" lon="2.221223">
        <ele>52.740011</ele>
        <time>2025-09-08T03:38:48.563Z</time>
      </trkpt>
      <trkpt lat="48.896685" lon="2.221651">
        <ele>52.949149</ele>
        <time>2025-09-08T03:38:57.002Z</time>
      </trkpt>
      <trkpt lat="48.896555" lon="2.222063">
        <ele>53.150482</ele>
        <time>2025-09-08T03:39:04.496Z</time>
      </trkpt>
      <trkpt lat="48.896431" lon="2.222452">
        <ele>53.340943</ele>
        <time>2025-09-08T03:39:11.603Z</time>
      </trkpt>
      <trkpt lat="48.896332" lon="2.222769">
        <ele>53.495558</ele>
        <time>2025-09-08T03:39:17.384Z</time>
      </trkpt>
      <trkpt lat="48.896162" lon="2.223308">
        <ele>53.758933</ele>
        <time>2025-09-08T03:39:26.776Z</time>
      </trkpt>
      <trkpt lat="48.896158" lon="2.223336">
        <ele>53.771557</ele>
        <time>2025-09-08T03:39:27.225Z</time>
      </trkpt>
      <trkpt lat="48.896161" lon="2.223354">
        <ele>53.779738</ele>
        <time>2025-09-08T03:39:27.531Z</time>
      </trkpt>
      <trkpt lat="48.896149" lon="2.223397">
        <ele>53.800318</ele>
        <time>2025-09-08T03:39:28.272Z</time>
      </trkpt>
      <trkpt lat="48.896145" lon="2.223410">
        <ele>53.806642</ele>
        <time>2025-09-08T03:39:28.508Z</time>
      </trkpt>
      <trkpt lat="48.896124" lon="2.223483">
        <ele>53.841747</ele>
        <time>2025-09-08T03:39:29.755Z</time>
      </trkpt>
      <trkpt lat="48.896101" lon="2.223557">
        <ele>53.877808</ele>
        <time>2025-09-08T03:39:31.038Z</time>
      </trkpt>
      <trkpt lat="48.896087" lon="2.223586">
        <ele>53.885815</ele>
        <time>2025-09-08T03:39:31.618Z</time>
      </trkpt>
      <trkpt lat="48.896078" lon="2.223604">
        <ele>53.884540</ele>
        <time>2025-09-08T03:39:31.998Z</time>
      </trkpt>
      <trkpt lat="48.896067" lon="2.223626">
        <ele>53.882982</ele>
        <time>2025-09-08T03:39:32.436Z</time>
      </trkpt>
      <trkpt lat="48.895991" lon="2.223861">
        <ele>53.868218</ele>
        <time>2025-09-08T03:39:36.554Z</time>
      </trkpt>
      <trkpt lat="48.895790" lon="2.224500">
        <ele>53.828283</ele>
        <time>2025-09-08T03:39:47.548Z</time>
      </trkpt>
      <trkpt lat="48.895665" lon="2.224886">
        <ele>53.804026</ele>
        <time>2025-09-08T03:39:54.370Z</time>
      </trkpt>
      <trkpt lat="48.895545" lon="2.225274">
        <ele>53.779853</ele>
        <time>2025-09-08T03:40:00.557Z</time>
      </trkpt>
      <trkpt lat="48.895473" lon="2.225492">
        <ele>53.766099</ele>
        <time>2025-09-08T03:40:03.775Z</time>
      </trkpt>
      <trkpt lat="48.895406" lon="2.225706">
        <ele>53.752737</ele>
        <time>2025-09-08T03:40:06.845Z</time>
      </trkpt>
      <trkpt lat="48.895244" lon="2.226224">
        <ele>53.691533</ele>
        <time>2025-09-08T03:40:14.262Z</time>
      </trkpt>
      <trkpt lat="48.895126" lon="2.226584">
        <ele>53.614630</ele>
        <time>2025-09-08T03:40:19.984Z</time>
      </trkpt>
      <trkpt lat="48.894993" lon="2.227007">
        <ele>53.524990</ele>
        <time>2025-09-08T03:40:27.305Z</time>
      </trkpt>
      <trkpt lat="48.894850" lon="2.227494">
        <ele>53.423023</ele>
        <time>2025-09-08T03:40:34.790Z</time>
      </trkpt>
      <trkpt lat="48.894848" lon="2.227547">
        <ele>53.412874</ele>
        <time>2025-09-08T03:40:35.483Z</time>
      </trkpt>
      <trkpt lat="48.894838" lon="2.227585">
        <ele>53.405049</ele>
        <time>2025-09-08T03:40:36.049Z</time>
      </trkpt>
      <trkpt lat="48.894818" lon="2.227652">
        <ele>53.390982</ele>
        <time>2025-09-08T03:40:37.041Z</time>
      </trkpt>
      <trkpt lat="48.894799" lon="2.227716">
        <ele>53.377557</ele>
        <time>2025-09-08T03:40:37.933Z</time>
      </trkpt>
      <trkpt lat="48.894786" lon="2.227761">
        <ele>53.368160</ele>
        <time>2025-09-08T03:40:38.543Z</time>
      </trkpt>
      <trkpt lat="48.894556" lon="2.227630">
        <ele>53.296743</ele>
        <time>2025-09-08T03:40:43.539Z</time>
      </trkpt>
      <trkpt lat="48.894526" lon="2.227707">
        <ele>53.279632</ele>
        <time>2025-09-08T03:40:44.683Z</time>
      </trkpt>
      <trkpt lat="48.894531" lon="2.227963">
        <ele>53.230669</ele>
        <time>2025-09-08T03:40:48.264Z</time>
      </trkpt>
      <trkpt lat="48.894686" lon="2.228702">
        <ele>53.799583</ele>
        <time>2025-09-08T03:41:01.478Z</time>
      </trkpt>
      <trkpt lat="48.894716" lon="2.228848">
        <ele>53.935392</ele>
        <time>2025-09-08T03:41:04.513Z</time>
      </trkpt>
      <trkpt lat="48.894687" lon="2.228964">
        <ele>54.045577</ele>
        <time>2025-09-08T03:41:07.187Z</time>
      </trkpt>
      <trkpt lat="48.894542" lon="2.229509">
        <ele>54.567573</ele>
        <time>2025-09-08T03:41:18.256Z</time>
      </trkpt>
      <trkpt lat="48.894438" lon="2.229727">
        <ele>54.806712</ele>
        <time>2025-09-08T03:41:23.428Z</time>
      </trkpt>
      <trkpt lat="48.894368" lon="2.229820">
        <ele>54.932227</ele>
        <time>2025-09-08T03:41:26.324Z</time>
      </trkpt>
      <trkpt lat="48.894314" lon="2.229902">
        <ele>55.035272</ele>
        <time>2025-09-08T03:41:29.294Z</time>
      </trkpt>
      <trkpt lat="48.894264" lon="2.229978">
        <ele>55.130731</ele>
        <time>2025-09-08T03:41:32.083Z</time>
      </trkpt>
      <trkpt lat="48.893937" lon="2.230977">
        <ele>56.239438</ele>
        <time>2025-09-08T03:42:02.253Z</time>
      </trkpt>
      <trkpt lat="48.893813" lon="2.231361">
        <ele>56.711966</ele>
        <time>2025-09-08T03:42:13.684Z</time>
      </trkpt>
      <trkpt lat="48.893464" lon="2.232272">
        <ele>57.876534</ele>
        <time>2025-09-08T03:42:37.276Z</time>
      </trkpt>
      <trkpt lat="48.893108" lon="2.233401">
        <ele>58.639463</ele>
        <time>2025-09-08T03:43:07.729Z</time>
      </trkpt>
      <trkpt lat="48.893023" lon="2.233583">
        <ele>58.630977</ele>
        <time>2025-09-08T03:43:14.330Z</time>
      </trkpt>
      <trkpt lat="48.892962" lon="2.233650">
        <ele>58.626628</ele>
        <time>2025-09-08T03:43:17.642Z</time>
      </trkpt>
      <trkpt lat="48.892908" lon="2.233688">
        <ele>58.623188</ele>
        <time>2025-09-08T03:43:20.064Z</time>
      </trkpt>
      <trkpt lat="48.892762" lon="2.233774">
        <ele>58.614137</ele>
        <time>2025-09-08T03:43:26.510Z</time>
      </trkpt>
      <trkpt lat="48.892665" lon="2.233817">
        <ele>58.608295</ele>
        <time>2025-09-08T03:43:30.595Z</time>
      </trkpt>
      <trkpt lat="48.892650" lon="2.233823">
        <ele>58.607399</ele>
        <time>2025-09-08T03:43:31.173Z</time>
      </trkpt>
      <trkpt lat="48.892542" lon="2.233871">
        <ele>58.600894</ele>
        <time>2025-09-08T03:43:35.558Z</time>
      </trkpt>
      <trkpt lat="48.892328" lon="2.234612">
        <ele>58.570132</ele>
        <time>2025-09-08T03:43:51.218Z</time>
      </trkpt>
      <trkpt lat="48.892005" lon="2.235740">
        <ele>56.219285</ele>
        <time>2025-09-08T03:44:08.503Z</time>
      </trkpt>
      <trkpt lat="48.891792" lon="2.236244">
        <ele>54.593949</ele>
        <time>2025-09-08T03:44:16.440Z</time>
      </trkpt>
      <trkpt lat="48.891702" lon="2.236344">
        <ele>54.134071</ele>
        <time>2025-09-08T03:44:18.131Z</time>
      </trkpt>
      <trkpt lat="48.891586" lon="2.236721">
        <ele>53.004894</ele>
        <time>2025-09-08T03:44:22.417Z</time>
      </trkpt>
      <trkpt lat="48.891804" lon="2.236897">
        <ele>51.986556</ele>
        <time>2025-09-08T03:44:26.562Z</time>
      </trkpt>
      <trkpt lat="48.891752" lon="2.237056">
        <ele>51.504808</ele>
        <time>2025-09-08T03:44:28.743Z</time>
      </trkpt>
      <trkpt lat="48.891367" lon="2.238252">
        <ele>54.573022</ele>
        <time>2025-09-08T03:45:09.575Z</time>
      </trkpt>
      <trkpt lat="48.891071" lon="2.239168">
        <ele>57.508878</ele>
        <time>2025-09-08T03:45:56.433Z</time>
      </trkpt>
      <trkpt lat="48.890985" lon="2.239444">
        <ele>58.387421</ele>
        <time>2025-09-08T03:46:08.301Z</time>
      </trkpt>
      <trkpt lat="48.890939" lon="2.239603">
        <ele>58.887097</ele>
        <time>2025-09-08T03:46:13.899Z</time>
      </trkpt>
      <trkpt lat="48.890713" lon="2.240347">
        <ele>59.301596</ele>
        <time>2025-09-08T03:46:35.132Z</time>
      </trkpt>
      <trkpt lat="48.890678" lon="2.240516">
        <ele>59.369345</ele>
        <time>2025-09-08T03:46:38.860Z</time>
      </trkpt>
      <trkpt lat="48.890633" lon="2.240668">
        <ele>59.433084</ele>
        <time>2025-09-08T03:46:42.192Z</time>
      </trkpt>
      <trkpt lat="48.890500" lon="2.241080">
        <ele>59.608581</ele>
        <time>2025-09-08T03:46:49.855Z</time>
      </trkpt>
      <trkpt lat="48.891120" lon="2.241559">
        <ele>60.012987</ele>
        <time>2025-09-08T03:47:06.845Z</time>
      </trkpt>
      <trkpt lat="48.891008" lon="2.241956">
        <ele>59.374281</ele>
        <time>2025-09-08T03:47:11.768Z</time>
      </trkpt>
      <trkpt lat="48.890787" lon="2.242734">
        <ele>57.670320</ele>
        <time>2025-09-08T03:47:21.749Z</time>
      </trkpt>
      <trkpt lat="48.890839" lon="2.242779">
        <ele>57.487371</ele>
        <time>2025-09-08T03:47:22.887Z</time>
      </trkpt>
      <trkpt lat="48.891422" lon="2.243214">
        <ele>55.501633</ele>
        <time>2025-09-08T03:47:33.797Z</time>
      </trkpt>
      <trkpt lat="48.891499" lon="2.243331">
        <ele>55.168803</ele>
        <time>2025-09-08T03:47:35.475Z</time>
      </trkpt>
      <trkpt lat="48.891520" lon="2.243363">
        <ele>55.077902</ele>
        <time>2025-09-08T03:47:35.964Z</time>
      </trkpt>
      <trkpt lat="48.891590" lon="2.243355">
        <ele>54.863244</ele>
        <time>2025-09-08T03:47:37.104Z</time>
      </trkpt>
      <trkpt lat="48.891682" lon="2.243591">
        <ele>54.380535</ele>
        <time>2025-09-08T03:47:40.222Z</time>
      </trkpt>
      <trkpt lat="48.891817" lon="2.243912">
        <ele>53.836239</ele>
        <time>2025-09-08T03:47:44.905Z</time>
      </trkpt>
      <trkpt lat="48.891903" lon="2.244119">
        <ele>53.486476</ele>
        <time>2025-09-08T03:47:47.897Z</time>
      </trkpt>
      <trkpt lat="48.891937" lon="2.244198">
        <ele>53.351606</ele>
        <time>2025-09-08T03:47:48.981Z</time>
      </trkpt>
      <trkpt lat="48.891962" lon="2.244260">
        <ele>53.247717</ele>
        <time>2025-09-08T03:47:49.934Z</time>
      </trkpt>
      <trkpt lat="48.892099" lon="2.244585">
        <ele>52.696268</ele>
        <time>2025-09-08T03:47:54.735Z</time>
      </trkpt>
      <trkpt lat="48.892137" lon="2.244674">
        <ele>52.544687</ele>
        <time>2025-09-08T03:47:56.185Z</time>
      </trkpt>
      <trkpt lat="48.892145" lon="2.244695">
        <ele>52.510020</ele>
        <time>2025-09-08T03:47:56.531Z</time>
      </trkpt>
      <trkpt lat="48.892163" lon="2.244737">
        <ele>52.438407</ele>
        <time>2025-09-08T03:47:57.113Z</time>
      </trkpt>
      <trkpt lat="48.892418" lon="2.245357">
        <ele>51.393803</ele>
        <time>2025-09-08T03:48:05.634Z</time>
      </trkpt>
      <trkpt lat="48.892490" lon="2.245531">
        <ele>51.100138</ele>
        <time>2025-09-08T03:48:08.044Z</time>
      </trkpt>
      <trkpt lat="48.892508" lon="2.245572">
        <ele>51.029718</ele>
        <time>2025-09-08T03:48:08.620Z</time>
      </trkpt>
      <trkpt lat="48.892575" lon="2.245746">
        <ele>50.741692</ele>
        <time>2025-09-08T03:48:11.450Z</time>
      </trkpt>
      <trkpt lat="48.892741" lon="2.246143">
        <ele>50.536219</ele>
        <time>2025-09-08T03:48:19.465Z</time>
      </trkpt>
      <trkpt lat="48.892776" lon="2.246227">
        <ele>50.509963</ele>
        <time>2025-09-08T03:48:21.218Z</time>
      </trkpt>
      <trkpt lat="48.893001" lon="2.246765">
        <ele>50.341617</ele>
        <time>2025-09-08T03:48:31.732Z</time>
      </trkpt>
      <trkpt lat="48.893037" lon="2.246853">
        <ele>50.314252</ele>
        <time>2025-09-08T03:48:33.312Z</time>
      </trkpt>
      <trkpt lat="48.893298" lon="2.247477">
        <ele>50.118989</ele>
        <time>2025-09-08T03:48:44.209Z</time>
      </trkpt>
      <trkpt lat="48.893704" lon="2.248449">
        <ele>49.720204</ele>
        <time>2025-09-08T03:48:59.742Z</time>
      </trkpt>
      <trkpt lat="48.893991" lon="2.249112">
        <ele>49.321102</ele>
        <time>2025-09-08T03:49:12.328Z</time>
      </trkpt>
      <trkpt lat="48.894168" lon="2.249322">
        <ele>49.149438</ele>
        <time>2025-09-08T03:49:17.067Z</time>
      </trkpt>
      <trkpt lat="48.894257" lon="2.249314">
        <ele>49.081259</ele>
        <time>2025-09-08T03:49:18.806Z</time>
      </trkpt>
      <trkpt lat="48.894343" lon="2.249267">
        <ele>49.011377</ele>
        <time>2025-09-08T03:49:20.593Z</time>
      </trkpt>
      <trkpt lat="48.894468" lon="2.249263">
        <ele>48.915766</ele>
        <time>2025-09-08T03:49:23.090Z</time>
      </trkpt>
      <trkpt lat="48.894664" lon="2.249382">
        <ele>48.754381</ele>
        <time>2025-09-08T03:49:27.211Z</time>
      </trkpt>
      <trkpt lat="48.894726" lon="2.249452">
        <ele>48.695334</ele>
        <time>2025-09-08T03:49:28.749Z</time>
      </trkpt>
      <trkpt lat="48.894996" lon="2.249946">
        <ele>48.482571</ele>
        <time>2025-09-08T03:49:37.486Z</time>
      </trkpt>
      <trkpt lat="48.895057" lon="2.250012">
        <ele>48.462027</ele>
        <time>2025-09-08T03:49:39.131Z</time>
      </trkpt>
      <trkpt lat="48.895106" lon="2.250092">
        <ele>48.442299</ele>
        <time>2025-09-08T03:49:40.720Z</time>
      </trkpt>
      <trkpt lat="48.895190" lon="2.250169">
        <ele>48.415384</ele>
        <time>2025-09-08T03:49:42.867Z</time>
      </trkpt>
      <trkpt lat="48.895428" lon="2.250406">
        <ele>48.337315</ele>
        <time>2025-09-08T03:49:48.681Z</time>
      </trkpt>
      <trkpt lat="48.895485" lon="2.250487">
        <ele>48.315907</ele>
        <time>2025-09-08T03:49:50.237Z</time>
      </trkpt>
      <trkpt lat="48.895876" lon="2.251088">
        <ele>48.163352</ele>
        <time>2025-09-08T03:50:02.154Z</time>
      </trkpt>
      <trkpt lat="48.896075" lon="2.251485">
        <ele>48.073278</ele>
        <time>2025-09-08T03:50:10.917Z</time>
      </trkpt>
      <trkpt lat="48.896266" lon="2.251891">
        <ele>48.026275</ele>
        <time>2025-09-08T03:50:19.689Z</time>
      </trkpt>
      <trkpt lat="48.896348" lon="2.252016">
        <ele>48.014761</ele>
        <time>2025-09-08T03:50:22.665Z</time>
      </trkpt>
      <trkpt lat="48.896337" lon="2.252226">
        <ele>48.001026</ele>
        <time>2025-09-08T03:50:26.195Z</time>
      </trkpt>
      <trkpt lat="48.896361" lon="2.252339">
        <ele>47.993283</ele>
        <time>2025-09-08T03:50:28.187Z</time>
      </trkpt>
      <trkpt lat="48.896417" lon="2.252511">
        <ele>47.980769</ele>
        <time>2025-09-08T03:50:31.389Z</time>
      </trkpt>
      <trkpt lat="48.896461" lon="2.252633">
        <ele>47.971696</ele>
        <time>2025-09-08T03:50:33.701Z</time>
      </trkpt>
      <trkpt lat="48.896508" lon="2.252940">
        <ele>47.951144</ele>
        <time>2025-09-08T03:50:38.722Z</time>
      </trkpt>
      <trkpt lat="48.896674" lon="2.254743">
        <ele>47.769272</ele>
        <time>2025-09-08T03:51:03.957Z</time>
      </trkpt>
      <trkpt lat="48.896678" lon="2.254815">
        <ele>47.757088</ele>
        <time>2025-09-08T03:51:04.880Z</time>
      </trkpt>
      <trkpt lat="48.896755" lon="2.254882">
        <ele>47.734335</ele>
        <time>2025-09-08T03:51:06.515Z</time>
      </trkpt>
      <trkpt lat="48.896808" lon="2.255221">
        <ele>47.675578</ele>
        <time>2025-09-08T03:51:10.945Z</time>
      </trkpt>
      <trkpt lat="48.896825" lon="2.255399">
        <ele>47.645249</ele>
        <time>2025-09-08T03:51:13.294Z</time>
      </trkpt>
      <trkpt lat="48.896807" lon="2.255581">
        <ele>47.614215</ele>
        <time>2025-09-08T03:51:15.769Z</time>
      </trkpt>
      <trkpt lat="48.896827" lon="2.255836">
        <ele>47.570911</ele>
        <time>2025-09-08T03:51:19.438Z</time>
      </trkpt>
      <trkpt lat="48.896847" lon="2.256236">
        <ele>47.503268</ele>
        <time>2025-09-08T03:51:25.761Z</time>
      </trkpt>
      <trkpt lat="48.896854" lon="2.256372">
        <ele>47.480266</ele>
        <time>2025-09-08T03:51:28.237Z</time>
      </trkpt>
      <trkpt lat="48.896853" lon="2.256495">
        <ele>47.459524</ele>
        <time>2025-09-08T03:51:30.378Z</time>
      </trkpt>
      <trkpt lat="48.896853" lon="2.256556">
        <ele>47.449238</ele>
        <time>2025-09-08T03:51:31.559Z</time>
      </trkpt>
      <trkpt lat="48.897033" lon="2.256543">
        <ele>47.428555</ele>
        <time>2025-09-08T03:51:36.880Z</time>
      </trkpt>
      <trkpt lat="48.897035" lon="2.256490">
        <ele>47.448485</ele>
        <time>2025-09-08T03:51:37.871Z</time>
      </trkpt>
      <trkpt lat="48.897189" lon="2.256469">
        <ele>47.536780</ele>
        <time>2025-09-08T03:51:42.585Z</time>
      </trkpt>
      <trkpt lat="48.897573" lon="2.256523">
        <ele>47.757000</ele>
        <time>2025-09-08T03:51:53.495Z</time>
      </trkpt>
      <trkpt lat="48.897722" lon="2.256544">
        <ele>47.842452</ele>
        <time>2025-09-08T03:51:57.892Z</time>
      </trkpt>
      <trkpt lat="48.897721" lon="2.256670">
        <ele>47.889757</ele>
        <time>2025-09-08T03:52:00.486Z</time>
      </trkpt>
      <trkpt lat="48.897966" lon="2.257436">
        <ele>48.209553</ele>
        <time>2025-09-08T03:52:15.380Z</time>
      </trkpt>
      <trkpt lat="48.897975" lon="2.257467">
        <ele>48.222275</ele>
        <time>2025-09-08T03:52:15.889Z</time>
      </trkpt>
      <trkpt lat="48.898084" lon="2.257799">
        <ele>48.361590</ele>
        <time>2025-09-08T03:52:21.058Z</time>
      </trkpt>
      <trkpt lat="48.898093" lon="2.257826">
        <ele>48.372955</ele>
        <time>2025-09-08T03:52:21.477Z</time>
      </trkpt>
      <trkpt lat="48.898200" lon="2.258156">
        <ele>48.299363</ele>
        <time>2025-09-08T03:52:26.341Z</time>
      </trkpt>
      <trkpt lat="48.898208" lon="2.258181">
        <ele>48.279540</ele>
        <time>2025-09-08T03:52:26.706Z</time>
      </trkpt>
      <trkpt lat="48.898572" lon="2.259264">
        <ele>47.412377</ele>
        <time>2025-09-08T03:52:41.965Z</time>
      </trkpt>
      <trkpt lat="48.898598" lon="2.259338">
        <ele>47.352558</ele>
        <time>2025-09-08T03:52:43.048Z</time>
      </trkpt>
      <trkpt lat="48.898750" lon="2.259780">
        <ele>46.996934</ele>
        <time>2025-09-08T03:52:49.319Z</time>
      </trkpt>
      <trkpt lat="48.898957" lon="2.260373">
        <ele>46.518265</ele>
        <time>2025-09-08T03:52:57.943Z</time>
      </trkpt>
      <trkpt lat="48.899071" lon="2.260656">
        <ele>46.312815</ele>
        <time>2025-09-08T03:53:02.353Z</time>
      </trkpt>
      <trkpt lat="48.899140" lon="2.260833">
        <ele>46.188327</ele>
        <time>2025-09-08T03:53:05.197Z</time>
      </trkpt>
      <trkpt lat="48.899496" lon="2.261689">
        <ele>45.575564</ele>
        <time>2025-09-08T03:53:19.045Z</time>
      </trkpt>
      <trkpt lat="48.898752" lon="2.262416">
        <ele>44.499083</ele>
        <time>2025-09-08T03:53:36.785Z</time>
      </trkpt>
      <trkpt lat="48.898295" lon="2.262889">
        <ele>42.094028</ele>
        <time>2025-09-08T03:53:46.923Z</time>
      </trkpt>
      <trkpt lat="48.898200" lon="2.262985">
        <ele>41.597783</ele>
        <time>2025-09-08T03:53:48.911Z</time>
      </trkpt>
      <trkpt lat="48.897993" lon="2.263189">
        <ele>40.524616</ele>
        <time>2025-09-08T03:53:52.974Z</time>
      </trkpt>
      <trkpt lat="48.897937" lon="2.263244">
        <ele>40.234583</ele>
        <time>2025-09-08T03:53:54.041Z</time>
      </trkpt>
      <trkpt lat="48.897830" lon="2.263351">
        <ele>39.677429</ele>
        <time>2025-09-08T03:53:56.039Z</time>
      </trkpt>
      <trkpt lat="48.897742" lon="2.263434">
        <ele>39.226907</ele>
        <time>2025-09-08T03:53:57.589Z</time>
      </trkpt>
      <trkpt lat="48.897545" lon="2.263637">
        <ele>38.191590</ele>
        <time>2025-09-08T03:54:01.115Z</time>
      </trkpt>
      <trkpt lat="48.897458" lon="2.263666">
        <ele>37.804068</ele>
        <time>2025-09-08T03:54:02.411Z</time>
      </trkpt>
      <trkpt lat="48.897215" lon="2.263920">
        <ele>36.653298</ele>
        <time>2025-09-08T03:54:06.768Z</time>
      </trkpt>
      <trkpt lat="48.897096" lon="2.264073">
        <ele>36.159947</ele>
        <time>2025-09-08T03:54:09.095Z</time>
      </trkpt>
      <trkpt lat="48.896933" lon="2.264188">
        <ele>35.591033</ele>
        <time>2025-09-08T03:54:11.815Z</time>
      </trkpt>
      <trkpt lat="48.896764" lon="2.264319">
        <ele>34.990461</ele>
        <time>2025-09-08T03:54:14.768Z</time>
      </trkpt>
      <trkpt lat="48.896693" lon="2.264370">
        <ele>34.741850</ele>
        <time>2025-09-08T03:54:16.036Z</time>
      </trkpt>
      <trkpt lat="48.896650" lon="2.264407">
        <ele>34.585426</ele>
        <time>2025-09-08T03:54:16.825Z</time>
      </trkpt>
      <trkpt lat="48.896519" lon="2.264550">
        <ele>34.074890</ele>
        <time>2025-09-08T03:54:19.492Z</time>
      </trkpt>
      <trkpt lat="48.895746" lon="2.265333">
        <ele>31.302883</ele>
        <time>2025-09-08T03:54:38.172Z</time>
      </trkpt>
      <trkpt lat="48.895511" lon="2.265597">
        <ele>31.258659</ele>
        <time>2025-09-08T03:54:48.890Z</time>
      </trkpt>
      <trkpt lat="48.895366" lon="2.265707">
        <ele>31.234130</ele>
        <time>2025-09-08T03:54:54.666Z</time>
      </trkpt>
      <trkpt lat="48.895319" lon="2.265751">
        <ele>31.225776</ele>
        <time>2025-09-08T03:54:56.517Z</time>
      </trkpt>
      <trkpt lat="48.895227" lon="2.265668">
        <ele>31.209584</ele>
        <time>2025-09-08T03:54:59.798Z</time>
      </trkpt>
      <trkpt lat="48.895141" lon="2.265568">
        <ele>31.193197</ele>
        <time>2025-09-08T03:55:02.815Z</time>
      </trkpt>
      <trkpt lat="48.895049" lon="2.265375">
        <ele>31.169471</ele>
        <time>2025-09-08T03:55:06.905Z</time>
      </trkpt>
      <trkpt lat="48.894756" lon="2.264762">
        <ele>31.094044</ele>
        <time>2025-09-08T03:55:17.401Z</time>
      </trkpt>
      <trkpt lat="48.894368" lon="2.264125">
        <ele>30.655998</ele>
        <time>2025-09-08T03:55:28.233Z</time>
      </trkpt>
      <trkpt lat="48.893960" lon="2.263455">
        <ele>29.548870</ele>
        <time>2025-09-08T03:55:39.600Z</time>
      </trkpt>
      <trkpt lat="48.893750" lon="2.263171">
        <ele>29.030715</ele>
        <time>2025-09-08T03:55:44.898Z</time>
      </trkpt>
      <trkpt lat="48.893279" lon="2.262539">
        <ele>27.872560</ele>
        <time>2025-09-08T03:55:56.528Z</time>
      </trkpt>
      <trkpt lat="48.892778" lon="2.262134">
        <ele>27.722482</ele>
        <time>2025-09-08T03:56:08.352Z</time>
      </trkpt>
      <trkpt lat="48.892601" lon="2.262034">
        <ele>27.722482</ele>
        <time>2025-09-08T03:56:12.422Z</time>
      </trkpt>
      <trkpt lat="48.892357" lon="2.262301">
        <ele>27.722482</ele>
        <time>2025-09-08T03:56:19.058Z</time>
      </trkpt>
      <trkpt lat="48.892290" lon="2.262410">
        <ele>27.722482</ele>
        <time>2025-09-08T03:56:21.288Z</time>
      </trkpt>
      <trkpt lat="48.892245" lon="2.262505">
        <ele>27.722482</ele>
        <time>2025-09-08T03:56:23.016Z</time>
      </trkpt>
      <trkpt lat="48.892131" lon="2.262743">
        <ele>27.722482</ele>
        <time>2025-09-08T03:56:27.546Z</time>
      </trkpt>
      <trkpt lat="48.892130" lon="2.262890">
        <ele>27.722482</ele>
        <time>2025-09-08T03:56:29.845Z</time>
      </trkpt>
      <trkpt lat="48.892080" lon="2.262824">
        <ele>27.722482</ele>
        <time>2025-09-08T03:56:31.946Z</time>
      </trkpt>
      <trkpt lat="48.892027" lon="2.262843">
        <ele>27.722482</ele>
        <time>2025-09-08T03:56:35.782Z</time>
      </trkpt>
      <trkpt lat="48.891621" lon="2.262385">
        <ele>27.722482</ele>
        <time>2025-09-08T03:57:10.915Z</time>
      </trkpt>
      <trkpt lat="48.891465" lon="2.261991">
        <ele>27.722482</ele>
        <time>2025-09-08T03:57:31.928Z</time>
      </trkpt>
    </trkseg>
  </trk>
</gpx>